<?xml version="1.0" encoding="UTF-8" standalone="no" ?>
<gpx xmlns="http://www.topografix.com/GPX/1/1" xmlns:xsi="http://www.w3.org/2001/XMLSchema-instance" xsi:schemaLocation="http://www.topografix.com/GPX/1/1 http://www.topografix.com/GPX/1/1/gpx.xsd" version="1.1" creator="VisuGPX - https://www.visugpx.com">
  <metadata>
    <name>Rando Soizic - Pré de 5 sous</name>
    <desc><![CDATA[Très belle randonnée. Le départ de la trace est plus à gauche puis part à droite si vous ne voulez pas passer par un terrain bien pénible :) 
Nous avons bartassé comme en dit en Ardèche.
]]></desc>
  </metadata>
  <trk>
    <name><![CDATA[19-MARS-17 14:43:09]]></name>
    <trkseg>
      <trkpt lat="44.99206" lon="5.19795">
        <ele>478.87</ele>
        <time>2017-03-19T08:38:08Z</time>
      </trkpt>
      <trkpt lat="44.99211" lon="5.1979">
        <ele>478.87</ele>
        <time>2017-03-19T08:38:28Z</time>
      </trkpt>
      <trkpt lat="44.99204" lon="5.19783">
        <ele>479.35</ele>
        <time>2017-03-19T08:39:43Z</time>
      </trkpt>
      <trkpt lat="44.99197" lon="5.19786">
        <ele>479.35</ele>
        <time>2017-03-19T08:39:45Z</time>
      </trkpt>
      <trkpt lat="44.99191" lon="5.1978">
        <ele>478.87</ele>
        <time>2017-03-19T08:39:51Z</time>
      </trkpt>
      <trkpt lat="44.9919" lon="5.1978">
        <ele>481.28</ele>
        <time>2017-03-19T08:39:52Z</time>
      </trkpt>
      <trkpt lat="44.99184" lon="5.19781">
        <ele>481.76</ele>
        <time>2017-03-19T08:40:00Z</time>
      </trkpt>
      <trkpt lat="44.99181" lon="5.19783">
        <ele>482.24</ele>
        <time>2017-03-19T08:40:04Z</time>
      </trkpt>
      <trkpt lat="44.99179" lon="5.19785">
        <ele>482.72</ele>
        <time>2017-03-19T08:40:06Z</time>
      </trkpt>
      <trkpt lat="44.99173" lon="5.19797">
        <ele>483.2</ele>
        <time>2017-03-19T08:40:13Z</time>
      </trkpt>
      <trkpt lat="44.99166" lon="5.1981">
        <ele>483.68</ele>
        <time>2017-03-19T08:40:24Z</time>
      </trkpt>
      <trkpt lat="44.99163" lon="5.19814">
        <ele>483.68</ele>
        <time>2017-03-19T08:40:27Z</time>
      </trkpt>
      <trkpt lat="44.99155" lon="5.19826">
        <ele>484.16</ele>
        <time>2017-03-19T08:40:37Z</time>
      </trkpt>
      <trkpt lat="44.99155" lon="5.1983">
        <ele>484.64</ele>
        <time>2017-03-19T08:40:39Z</time>
      </trkpt>
      <trkpt lat="44.99151" lon="5.19841">
        <ele>485.12</ele>
        <time>2017-03-19T08:40:45Z</time>
      </trkpt>
      <trkpt lat="44.99152" lon="5.19856">
        <ele>486.08</ele>
        <time>2017-03-19T08:40:51Z</time>
      </trkpt>
      <trkpt lat="44.99153" lon="5.1986">
        <ele>486.08</ele>
        <time>2017-03-19T08:40:54Z</time>
      </trkpt>
      <trkpt lat="44.99156" lon="5.1987">
        <ele>486.56</ele>
        <time>2017-03-19T08:40:59Z</time>
      </trkpt>
      <trkpt lat="44.99158" lon="5.19882">
        <ele>487.53</ele>
        <time>2017-03-19T08:41:05Z</time>
      </trkpt>
      <trkpt lat="44.99158" lon="5.19885">
        <ele>487.53</ele>
        <time>2017-03-19T08:41:07Z</time>
      </trkpt>
      <trkpt lat="44.99158" lon="5.19895">
        <ele>488.49</ele>
        <time>2017-03-19T08:41:12Z</time>
      </trkpt>
      <trkpt lat="44.99161" lon="5.19899">
        <ele>488.97</ele>
        <time>2017-03-19T08:41:23Z</time>
      </trkpt>
      <trkpt lat="44.99159" lon="5.19905">
        <ele>489.93</ele>
        <time>2017-03-19T08:41:26Z</time>
      </trkpt>
      <trkpt lat="44.99159" lon="5.19921">
        <ele>492.81</ele>
        <time>2017-03-19T08:41:37Z</time>
      </trkpt>
      <trkpt lat="44.99158" lon="5.19927">
        <ele>493.29</ele>
        <time>2017-03-19T08:41:40Z</time>
      </trkpt>
      <trkpt lat="44.99162" lon="5.19937">
        <ele>494.26</ele>
        <time>2017-03-19T08:41:52Z</time>
      </trkpt>
      <trkpt lat="44.99163" lon="5.19942">
        <ele>495.22</ele>
        <time>2017-03-19T08:41:55Z</time>
      </trkpt>
      <trkpt lat="44.99168" lon="5.19952">
        <ele>496.18</ele>
        <time>2017-03-19T08:42:02Z</time>
      </trkpt>
      <trkpt lat="44.99169" lon="5.19956">
        <ele>497.14</ele>
        <time>2017-03-19T08:42:06Z</time>
      </trkpt>
      <trkpt lat="44.9917" lon="5.19958">
        <ele>497.14</ele>
        <time>2017-03-19T08:42:08Z</time>
      </trkpt>
      <trkpt lat="44.99176" lon="5.19964">
        <ele>498.1</ele>
        <time>2017-03-19T08:42:15Z</time>
      </trkpt>
      <trkpt lat="44.99181" lon="5.19976">
        <ele>500.02</ele>
        <time>2017-03-19T08:42:25Z</time>
      </trkpt>
      <trkpt lat="44.99186" lon="5.19982">
        <ele>500.98</ele>
        <time>2017-03-19T08:42:30Z</time>
      </trkpt>
      <trkpt lat="44.9919" lon="5.1999">
        <ele>502.43</ele>
        <time>2017-03-19T08:42:38Z</time>
      </trkpt>
      <trkpt lat="44.99192" lon="5.19991">
        <ele>502.91</ele>
        <time>2017-03-19T08:42:40Z</time>
      </trkpt>
      <trkpt lat="44.99196" lon="5.19993">
        <ele>503.39</ele>
        <time>2017-03-19T08:42:43Z</time>
      </trkpt>
      <trkpt lat="44.99199" lon="5.19995">
        <ele>503.87</ele>
        <time>2017-03-19T08:42:46Z</time>
      </trkpt>
      <trkpt lat="44.99202" lon="5.20001">
        <ele>504.83</ele>
        <time>2017-03-19T08:42:51Z</time>
      </trkpt>
      <trkpt lat="44.99204" lon="5.20007">
        <ele>505.79</ele>
        <time>2017-03-19T08:42:56Z</time>
      </trkpt>
      <trkpt lat="44.99206" lon="5.20013">
        <ele>506.27</ele>
        <time>2017-03-19T08:43:00Z</time>
      </trkpt>
      <trkpt lat="44.99207" lon="5.20019">
        <ele>506.75</ele>
        <time>2017-03-19T08:43:04Z</time>
      </trkpt>
      <trkpt lat="44.99209" lon="5.20021">
        <ele>507.23</ele>
        <time>2017-03-19T08:43:06Z</time>
      </trkpt>
      <trkpt lat="44.99213" lon="5.20032">
        <ele>508.67</ele>
        <time>2017-03-19T08:43:16Z</time>
      </trkpt>
      <trkpt lat="44.99214" lon="5.20039">
        <ele>509.64</ele>
        <time>2017-03-19T08:43:20Z</time>
      </trkpt>
      <trkpt lat="44.99215" lon="5.20041">
        <ele>510.12</ele>
        <time>2017-03-19T08:43:22Z</time>
      </trkpt>
      <trkpt lat="44.99217" lon="5.20049">
        <ele>511.08</ele>
        <time>2017-03-19T08:43:27Z</time>
      </trkpt>
      <trkpt lat="44.99217" lon="5.20057">
        <ele>512.04</ele>
        <time>2017-03-19T08:43:32Z</time>
      </trkpt>
      <trkpt lat="44.99218" lon="5.20068">
        <ele>512.52</ele>
        <time>2017-03-19T08:43:38Z</time>
      </trkpt>
      <trkpt lat="44.9922" lon="5.20076">
        <ele>513.48</ele>
        <time>2017-03-19T08:43:45Z</time>
      </trkpt>
      <trkpt lat="44.99221" lon="5.2008">
        <ele>513.96</ele>
        <time>2017-03-19T08:43:48Z</time>
      </trkpt>
      <trkpt lat="44.99223" lon="5.20086">
        <ele>514.92</ele>
        <time>2017-03-19T08:43:52Z</time>
      </trkpt>
      <trkpt lat="44.99223" lon="5.2009">
        <ele>515.4</ele>
        <time>2017-03-19T08:43:55Z</time>
      </trkpt>
      <trkpt lat="44.99232" lon="5.20107">
        <ele>516.37</ele>
        <time>2017-03-19T08:44:06Z</time>
      </trkpt>
      <trkpt lat="44.99235" lon="5.20116">
        <ele>516.85</ele>
        <time>2017-03-19T08:44:11Z</time>
      </trkpt>
      <trkpt lat="44.99237" lon="5.20124">
        <ele>517.33</ele>
        <time>2017-03-19T08:44:16Z</time>
      </trkpt>
      <trkpt lat="44.99239" lon="5.20126">
        <ele>517.81</ele>
        <time>2017-03-19T08:44:18Z</time>
      </trkpt>
      <trkpt lat="44.99243" lon="5.20126">
        <ele>517.81</ele>
        <time>2017-03-19T08:44:21Z</time>
      </trkpt>
      <trkpt lat="44.99245" lon="5.20122">
        <ele>520.21</ele>
        <time>2017-03-19T08:44:28Z</time>
      </trkpt>
      <trkpt lat="44.9925" lon="5.20123">
        <ele>521.65</ele>
        <time>2017-03-19T08:44:36Z</time>
      </trkpt>
      <trkpt lat="44.99251" lon="5.20125">
        <ele>523.09</ele>
        <time>2017-03-19T08:44:46Z</time>
      </trkpt>
      <trkpt lat="44.99251" lon="5.20125">
        <ele>523.09</ele>
        <time>2017-03-19T08:45:06Z</time>
      </trkpt>
      <trkpt lat="44.99252" lon="5.20125">
        <ele>523.09</ele>
        <time>2017-03-19T08:45:28Z</time>
      </trkpt>
      <trkpt lat="44.99252" lon="5.20126">
        <ele>523.58</ele>
        <time>2017-03-19T08:45:34Z</time>
      </trkpt>
      <trkpt lat="44.99258" lon="5.20131">
        <ele>524.54</ele>
        <time>2017-03-19T08:45:39Z</time>
      </trkpt>
      <trkpt lat="44.99264" lon="5.20136">
        <ele>525.02</ele>
        <time>2017-03-19T08:45:45Z</time>
      </trkpt>
      <trkpt lat="44.99266" lon="5.20145">
        <ele>525.5</ele>
        <time>2017-03-19T08:45:51Z</time>
      </trkpt>
      <trkpt lat="44.99268" lon="5.20153">
        <ele>526.46</ele>
        <time>2017-03-19T08:45:56Z</time>
      </trkpt>
      <trkpt lat="44.99271" lon="5.20158">
        <ele>527.42</ele>
        <time>2017-03-19T08:46:00Z</time>
      </trkpt>
      <trkpt lat="44.99278" lon="5.20159">
        <ele>528.86</ele>
        <time>2017-03-19T08:46:07Z</time>
      </trkpt>
      <trkpt lat="44.9928" lon="5.20156">
        <ele>530.3</ele>
        <time>2017-03-19T08:46:10Z</time>
      </trkpt>
      <trkpt lat="44.99281" lon="5.20157">
        <ele>530.3</ele>
        <time>2017-03-19T08:46:13Z</time>
      </trkpt>
      <trkpt lat="44.99284" lon="5.20158">
        <ele>532.23</ele>
        <time>2017-03-19T08:46:20Z</time>
      </trkpt>
      <trkpt lat="44.99286" lon="5.20163">
        <ele>533.19</ele>
        <time>2017-03-19T08:46:25Z</time>
      </trkpt>
      <trkpt lat="44.99289" lon="5.20167">
        <ele>534.15</ele>
        <time>2017-03-19T08:46:29Z</time>
      </trkpt>
      <trkpt lat="44.99293" lon="5.20175">
        <ele>536.55</ele>
        <time>2017-03-19T08:46:41Z</time>
      </trkpt>
      <trkpt lat="44.99293" lon="5.20177">
        <ele>536.55</ele>
        <time>2017-03-19T08:46:43Z</time>
      </trkpt>
      <trkpt lat="44.99296" lon="5.20184">
        <ele>538.96</ele>
        <time>2017-03-19T08:46:50Z</time>
      </trkpt>
      <trkpt lat="44.99299" lon="5.20187">
        <ele>540.88</ele>
        <time>2017-03-19T08:46:56Z</time>
      </trkpt>
      <trkpt lat="44.993" lon="5.2019">
        <ele>540.4</ele>
        <time>2017-03-19T08:46:59Z</time>
      </trkpt>
      <trkpt lat="44.99302" lon="5.20191">
        <ele>540.88</ele>
        <time>2017-03-19T08:47:01Z</time>
      </trkpt>
      <trkpt lat="44.9931" lon="5.202">
        <ele>541.84</ele>
        <time>2017-03-19T08:47:11Z</time>
      </trkpt>
      <trkpt lat="44.99315" lon="5.20207">
        <ele>542.8</ele>
        <time>2017-03-19T08:47:19Z</time>
      </trkpt>
      <trkpt lat="44.99318" lon="5.20214">
        <ele>542.8</ele>
        <time>2017-03-19T08:47:24Z</time>
      </trkpt>
      <trkpt lat="44.99322" lon="5.20221">
        <ele>543.28</ele>
        <time>2017-03-19T08:47:31Z</time>
      </trkpt>
      <trkpt lat="44.99321" lon="5.20226">
        <ele>544.24</ele>
        <time>2017-03-19T08:47:35Z</time>
      </trkpt>
      <trkpt lat="44.99323" lon="5.20231">
        <ele>544.72</ele>
        <time>2017-03-19T08:47:39Z</time>
      </trkpt>
      <trkpt lat="44.99326" lon="5.20239">
        <ele>546.65</ele>
        <time>2017-03-19T08:47:48Z</time>
      </trkpt>
      <trkpt lat="44.99327" lon="5.2024">
        <ele>546.17</ele>
        <time>2017-03-19T08:47:49Z</time>
      </trkpt>
      <trkpt lat="44.99328" lon="5.20245">
        <ele>547.13</ele>
        <time>2017-03-19T08:47:52Z</time>
      </trkpt>
      <trkpt lat="44.99328" lon="5.20251">
        <ele>547.61</ele>
        <time>2017-03-19T08:47:55Z</time>
      </trkpt>
      <trkpt lat="44.99328" lon="5.20254">
        <ele>547.61</ele>
        <time>2017-03-19T08:47:57Z</time>
      </trkpt>
      <trkpt lat="44.99332" lon="5.20257">
        <ele>548.57</ele>
        <time>2017-03-19T08:48:01Z</time>
      </trkpt>
      <trkpt lat="44.99335" lon="5.20266">
        <ele>549.05</ele>
        <time>2017-03-19T08:48:11Z</time>
      </trkpt>
      <trkpt lat="44.99334" lon="5.2027">
        <ele>549.53</ele>
        <time>2017-03-19T08:48:14Z</time>
      </trkpt>
      <trkpt lat="44.99336" lon="5.20274">
        <ele>550.01</ele>
        <time>2017-03-19T08:48:17Z</time>
      </trkpt>
      <trkpt lat="44.99335" lon="5.20277">
        <ele>550.01</ele>
        <time>2017-03-19T08:48:19Z</time>
      </trkpt>
      <trkpt lat="44.99339" lon="5.20284">
        <ele>550.01</ele>
        <time>2017-03-19T08:48:25Z</time>
      </trkpt>
      <trkpt lat="44.99341" lon="5.20288">
        <ele>551.45</ele>
        <time>2017-03-19T08:48:29Z</time>
      </trkpt>
      <trkpt lat="44.99344" lon="5.20291">
        <ele>552.41</ele>
        <time>2017-03-19T08:48:33Z</time>
      </trkpt>
      <trkpt lat="44.99343" lon="5.20293">
        <ele>552.41</ele>
        <time>2017-03-19T08:48:35Z</time>
      </trkpt>
      <trkpt lat="44.99342" lon="5.203">
        <ele>553.38</ele>
        <time>2017-03-19T08:48:41Z</time>
      </trkpt>
      <trkpt lat="44.99342" lon="5.20304">
        <ele>553.86</ele>
        <time>2017-03-19T08:48:45Z</time>
      </trkpt>
      <trkpt lat="44.99343" lon="5.20311">
        <ele>553.38</ele>
        <time>2017-03-19T08:48:52Z</time>
      </trkpt>
      <trkpt lat="44.99346" lon="5.20312">
        <ele>553.86</ele>
        <time>2017-03-19T08:48:57Z</time>
      </trkpt>
      <trkpt lat="44.99349" lon="5.20313">
        <ele>554.82</ele>
        <time>2017-03-19T08:49:01Z</time>
      </trkpt>
      <trkpt lat="44.99351" lon="5.20319">
        <ele>556.74</ele>
        <time>2017-03-19T08:49:08Z</time>
      </trkpt>
      <trkpt lat="44.99354" lon="5.20328">
        <ele>557.7</ele>
        <time>2017-03-19T08:49:18Z</time>
      </trkpt>
      <trkpt lat="44.99354" lon="5.20332">
        <ele>559.14</ele>
        <time>2017-03-19T08:49:29Z</time>
      </trkpt>
      <trkpt lat="44.99355" lon="5.20332">
        <ele>559.14</ele>
        <time>2017-03-19T08:49:37Z</time>
      </trkpt>
      <trkpt lat="44.99361" lon="5.20324">
        <ele>561.07</ele>
        <time>2017-03-19T08:49:47Z</time>
      </trkpt>
      <trkpt lat="44.99361" lon="5.20324">
        <ele>561.55</ele>
        <time>2017-03-19T08:49:48Z</time>
      </trkpt>
      <trkpt lat="44.99366" lon="5.2032">
        <ele>563.95</ele>
        <time>2017-03-19T08:49:58Z</time>
      </trkpt>
      <trkpt lat="44.99368" lon="5.20317">
        <ele>565.39</ele>
        <time>2017-03-19T08:50:04Z</time>
      </trkpt>
      <trkpt lat="44.99371" lon="5.20317">
        <ele>567.32</ele>
        <time>2017-03-19T08:50:15Z</time>
      </trkpt>
      <trkpt lat="44.99376" lon="5.20319">
        <ele>570.2</ele>
        <time>2017-03-19T08:50:27Z</time>
      </trkpt>
      <trkpt lat="44.99378" lon="5.20321">
        <ele>571.64</ele>
        <time>2017-03-19T08:50:37Z</time>
      </trkpt>
      <trkpt lat="44.9938" lon="5.20323">
        <ele>573.56</ele>
        <time>2017-03-19T08:50:50Z</time>
      </trkpt>
      <trkpt lat="44.99383" lon="5.20328">
        <ele>576.45</ele>
        <time>2017-03-19T08:51:01Z</time>
      </trkpt>
      <trkpt lat="44.99389" lon="5.20329">
        <ele>578.85</ele>
        <time>2017-03-19T08:51:10Z</time>
      </trkpt>
      <trkpt lat="44.99393" lon="5.20329">
        <ele>579.81</ele>
        <time>2017-03-19T08:51:20Z</time>
      </trkpt>
      <trkpt lat="44.99396" lon="5.2033">
        <ele>579.81</ele>
        <time>2017-03-19T08:51:43Z</time>
      </trkpt>
      <trkpt lat="44.99398" lon="5.20331">
        <ele>581.73</ele>
        <time>2017-03-19T08:51:50Z</time>
      </trkpt>
      <trkpt lat="44.99398" lon="5.20334">
        <ele>583.18</ele>
        <time>2017-03-19T08:51:55Z</time>
      </trkpt>
      <trkpt lat="44.99399" lon="5.20342">
        <ele>583.18</ele>
        <time>2017-03-19T08:52:01Z</time>
      </trkpt>
      <trkpt lat="44.994" lon="5.20342">
        <ele>584.62</ele>
        <time>2017-03-19T08:52:03Z</time>
      </trkpt>
      <trkpt lat="44.99404" lon="5.20345">
        <ele>587.02</ele>
        <time>2017-03-19T08:52:13Z</time>
      </trkpt>
      <trkpt lat="44.99405" lon="5.2035">
        <ele>588.95</ele>
        <time>2017-03-19T08:52:23Z</time>
      </trkpt>
      <trkpt lat="44.99407" lon="5.20353">
        <ele>588.95</ele>
        <time>2017-03-19T08:52:34Z</time>
      </trkpt>
      <trkpt lat="44.99409" lon="5.20353">
        <ele>590.39</ele>
        <time>2017-03-19T08:52:38Z</time>
      </trkpt>
      <trkpt lat="44.9941" lon="5.20352">
        <ele>590.39</ele>
        <time>2017-03-19T08:52:43Z</time>
      </trkpt>
      <trkpt lat="44.99415" lon="5.20346">
        <ele>592.31</ele>
        <time>2017-03-19T08:52:49Z</time>
      </trkpt>
      <trkpt lat="44.99418" lon="5.2034">
        <ele>594.23</ele>
        <time>2017-03-19T08:52:57Z</time>
      </trkpt>
      <trkpt lat="44.99424" lon="5.20338">
        <ele>596.64</ele>
        <time>2017-03-19T08:53:06Z</time>
      </trkpt>
      <trkpt lat="44.99427" lon="5.20337">
        <ele>597.12</ele>
        <time>2017-03-19T08:53:09Z</time>
      </trkpt>
      <trkpt lat="44.99433" lon="5.20334">
        <ele>600.48</ele>
        <time>2017-03-19T08:53:20Z</time>
      </trkpt>
      <trkpt lat="44.99433" lon="5.20334">
        <ele>599.52</ele>
        <time>2017-03-19T08:53:42Z</time>
      </trkpt>
      <trkpt lat="44.99434" lon="5.20335">
        <ele>599.04</ele>
        <time>2017-03-19T08:54:02Z</time>
      </trkpt>
      <trkpt lat="44.99434" lon="5.20335">
        <ele>599.04</ele>
        <time>2017-03-19T08:54:19Z</time>
      </trkpt>
      <trkpt lat="44.99435" lon="5.20334">
        <ele>599.52</ele>
        <time>2017-03-19T08:54:33Z</time>
      </trkpt>
      <trkpt lat="44.99438" lon="5.20333">
        <ele>600</ele>
        <time>2017-03-19T08:54:41Z</time>
      </trkpt>
      <trkpt lat="44.99443" lon="5.20332">
        <ele>601.44</ele>
        <time>2017-03-19T08:54:49Z</time>
      </trkpt>
      <trkpt lat="44.99447" lon="5.20331">
        <ele>602.88</ele>
        <time>2017-03-19T08:54:55Z</time>
      </trkpt>
      <trkpt lat="44.99448" lon="5.20331">
        <ele>604.33</ele>
        <time>2017-03-19T08:55:00Z</time>
      </trkpt>
      <trkpt lat="44.99448" lon="5.20334">
        <ele>605.77</ele>
        <time>2017-03-19T08:55:08Z</time>
      </trkpt>
      <trkpt lat="44.99445" lon="5.20338">
        <ele>606.73</ele>
        <time>2017-03-19T08:55:13Z</time>
      </trkpt>
      <trkpt lat="44.99444" lon="5.20345">
        <ele>608.65</ele>
        <time>2017-03-19T08:55:25Z</time>
      </trkpt>
      <trkpt lat="44.99447" lon="5.20344">
        <ele>612.02</ele>
        <time>2017-03-19T08:55:36Z</time>
      </trkpt>
      <trkpt lat="44.99449" lon="5.20347">
        <ele>612.98</ele>
        <time>2017-03-19T08:55:45Z</time>
      </trkpt>
      <trkpt lat="44.99452" lon="5.20349">
        <ele>613.46</ele>
        <time>2017-03-19T08:55:48Z</time>
      </trkpt>
      <trkpt lat="44.99456" lon="5.20345">
        <ele>614.9</ele>
        <time>2017-03-19T08:55:58Z</time>
      </trkpt>
      <trkpt lat="44.99457" lon="5.20348">
        <ele>616.34</ele>
        <time>2017-03-19T08:56:11Z</time>
      </trkpt>
      <trkpt lat="44.99458" lon="5.20347">
        <ele>617.3</ele>
        <time>2017-03-19T08:56:23Z</time>
      </trkpt>
      <trkpt lat="44.99458" lon="5.20347">
        <ele>617.3</ele>
        <time>2017-03-19T08:56:45Z</time>
      </trkpt>
      <trkpt lat="44.99458" lon="5.20347">
        <ele>617.3</ele>
        <time>2017-03-19T08:56:58Z</time>
      </trkpt>
      <trkpt lat="44.99459" lon="5.20346">
        <ele>618.26</ele>
        <time>2017-03-19T08:57:09Z</time>
      </trkpt>
      <trkpt lat="44.9946" lon="5.20348">
        <ele>617.78</ele>
        <time>2017-03-19T08:57:38Z</time>
      </trkpt>
      <trkpt lat="44.99464" lon="5.20354">
        <ele>620.67</ele>
        <time>2017-03-19T08:57:47Z</time>
      </trkpt>
      <trkpt lat="44.99464" lon="5.20354">
        <ele>620.67</ele>
        <time>2017-03-19T08:57:48Z</time>
      </trkpt>
      <trkpt lat="44.9947" lon="5.20353">
        <ele>624.51</ele>
        <time>2017-03-19T08:57:59Z</time>
      </trkpt>
      <trkpt lat="44.99473" lon="5.20354">
        <ele>624.51</ele>
        <time>2017-03-19T08:58:02Z</time>
      </trkpt>
      <trkpt lat="44.99478" lon="5.20352">
        <ele>625.47</ele>
        <time>2017-03-19T08:58:15Z</time>
      </trkpt>
      <trkpt lat="44.99478" lon="5.20352">
        <ele>624.99</ele>
        <time>2017-03-19T08:58:39Z</time>
      </trkpt>
      <trkpt lat="44.99477" lon="5.20351">
        <ele>624.99</ele>
        <time>2017-03-19T08:58:54Z</time>
      </trkpt>
      <trkpt lat="44.99477" lon="5.20351">
        <ele>624.51</ele>
        <time>2017-03-19T08:59:11Z</time>
      </trkpt>
      <trkpt lat="44.99479" lon="5.20353">
        <ele>627.88</ele>
        <time>2017-03-19T08:59:22Z</time>
      </trkpt>
      <trkpt lat="44.9948" lon="5.20354">
        <ele>627.88</ele>
        <time>2017-03-19T08:59:23Z</time>
      </trkpt>
      <trkpt lat="44.99482" lon="5.20353">
        <ele>629.8</ele>
        <time>2017-03-19T08:59:37Z</time>
      </trkpt>
      <trkpt lat="44.99483" lon="5.20353">
        <ele>630.28</ele>
        <time>2017-03-19T08:59:52Z</time>
      </trkpt>
      <trkpt lat="44.99484" lon="5.20354">
        <ele>631.24</ele>
        <time>2017-03-19T09:00:02Z</time>
      </trkpt>
      <trkpt lat="44.99484" lon="5.20354">
        <ele>629.32</ele>
        <time>2017-03-19T09:00:04Z</time>
      </trkpt>
      <trkpt lat="44.99485" lon="5.20354">
        <ele>634.13</ele>
        <time>2017-03-19T09:00:05Z</time>
      </trkpt>
      <trkpt lat="44.99485" lon="5.20355">
        <ele>631.24</ele>
        <time>2017-03-19T09:00:06Z</time>
      </trkpt>
      <trkpt lat="44.99486" lon="5.20355">
        <ele>632.68</ele>
        <time>2017-03-19T09:00:19Z</time>
      </trkpt>
      <trkpt lat="44.99486" lon="5.20355">
        <ele>631.24</ele>
        <time>2017-03-19T09:00:22Z</time>
      </trkpt>
      <trkpt lat="44.99486" lon="5.20355">
        <ele>631.72</ele>
        <time>2017-03-19T09:00:37Z</time>
      </trkpt>
      <trkpt lat="44.99486" lon="5.20356">
        <ele>631.72</ele>
        <time>2017-03-19T09:00:52Z</time>
      </trkpt>
      <trkpt lat="44.99487" lon="5.20356">
        <ele>632.68</ele>
        <time>2017-03-19T09:01:08Z</time>
      </trkpt>
      <trkpt lat="44.99488" lon="5.20357">
        <ele>634.61</ele>
        <time>2017-03-19T09:01:22Z</time>
      </trkpt>
      <trkpt lat="44.99489" lon="5.20353">
        <ele>634.61</ele>
        <time>2017-03-19T09:01:38Z</time>
      </trkpt>
      <trkpt lat="44.9949" lon="5.20352">
        <ele>635.57</ele>
        <time>2017-03-19T09:01:55Z</time>
      </trkpt>
      <trkpt lat="44.99491" lon="5.20353">
        <ele>637.97</ele>
        <time>2017-03-19T09:02:02Z</time>
      </trkpt>
      <trkpt lat="44.99494" lon="5.20354">
        <ele>638.45</ele>
        <time>2017-03-19T09:02:16Z</time>
      </trkpt>
      <trkpt lat="44.99496" lon="5.20354">
        <ele>639.41</ele>
        <time>2017-03-19T09:02:28Z</time>
      </trkpt>
      <trkpt lat="44.99499" lon="5.20356">
        <ele>642.3</ele>
        <time>2017-03-19T09:02:39Z</time>
      </trkpt>
      <trkpt lat="44.99501" lon="5.20356">
        <ele>643.26</ele>
        <time>2017-03-19T09:02:44Z</time>
      </trkpt>
      <trkpt lat="44.99502" lon="5.20358">
        <ele>646.14</ele>
        <time>2017-03-19T09:02:56Z</time>
      </trkpt>
      <trkpt lat="44.99502" lon="5.2036">
        <ele>647.1</ele>
        <time>2017-03-19T09:03:10Z</time>
      </trkpt>
      <trkpt lat="44.99503" lon="5.20361">
        <ele>648.55</ele>
        <time>2017-03-19T09:03:35Z</time>
      </trkpt>
      <trkpt lat="44.99508" lon="5.20365">
        <ele>651.43</ele>
        <time>2017-03-19T09:03:47Z</time>
      </trkpt>
      <trkpt lat="44.99511" lon="5.20369">
        <ele>652.87</ele>
        <time>2017-03-19T09:04:01Z</time>
      </trkpt>
      <trkpt lat="44.99511" lon="5.20369">
        <ele>653.83</ele>
        <time>2017-03-19T09:04:03Z</time>
      </trkpt>
      <trkpt lat="44.99512" lon="5.2037">
        <ele>654.8</ele>
        <time>2017-03-19T09:04:18Z</time>
      </trkpt>
      <trkpt lat="44.99513" lon="5.20371">
        <ele>655.28</ele>
        <time>2017-03-19T09:04:45Z</time>
      </trkpt>
      <trkpt lat="44.99516" lon="5.20376">
        <ele>658.64</ele>
        <time>2017-03-19T09:04:56Z</time>
      </trkpt>
      <trkpt lat="44.99517" lon="5.20376">
        <ele>658.64</ele>
        <time>2017-03-19T09:04:57Z</time>
      </trkpt>
      <trkpt lat="44.9952" lon="5.20381">
        <ele>661.04</ele>
        <time>2017-03-19T09:05:11Z</time>
      </trkpt>
      <trkpt lat="44.9952" lon="5.20381">
        <ele>662.49</ele>
        <time>2017-03-19T09:05:13Z</time>
      </trkpt>
      <trkpt lat="44.99522" lon="5.2038">
        <ele>664.41</ele>
        <time>2017-03-19T09:05:26Z</time>
      </trkpt>
      <trkpt lat="44.99525" lon="5.2038">
        <ele>665.37</ele>
        <time>2017-03-19T09:05:39Z</time>
      </trkpt>
      <trkpt lat="44.99525" lon="5.2038">
        <ele>666.81</ele>
        <time>2017-03-19T09:05:40Z</time>
      </trkpt>
      <trkpt lat="44.99529" lon="5.20378">
        <ele>666.81</ele>
        <time>2017-03-19T09:05:55Z</time>
      </trkpt>
      <trkpt lat="44.99529" lon="5.20378">
        <ele>667.29</ele>
        <time>2017-03-19T09:06:20Z</time>
      </trkpt>
      <trkpt lat="44.99528" lon="5.20378">
        <ele>667.77</ele>
        <time>2017-03-19T09:06:49Z</time>
      </trkpt>
      <trkpt lat="44.99528" lon="5.20378">
        <ele>668.25</ele>
        <time>2017-03-19T09:07:08Z</time>
      </trkpt>
      <trkpt lat="44.99528" lon="5.20378">
        <ele>669.7</ele>
        <time>2017-03-19T09:07:15Z</time>
      </trkpt>
      <trkpt lat="44.99529" lon="5.20376">
        <ele>669.7</ele>
        <time>2017-03-19T09:07:32Z</time>
      </trkpt>
      <trkpt lat="44.9953" lon="5.20375">
        <ele>670.18</ele>
        <time>2017-03-19T09:07:50Z</time>
      </trkpt>
      <trkpt lat="44.99531" lon="5.20374">
        <ele>672.58</ele>
        <time>2017-03-19T09:08:07Z</time>
      </trkpt>
      <trkpt lat="44.99535" lon="5.20373">
        <ele>674.5</ele>
        <time>2017-03-19T09:08:20Z</time>
      </trkpt>
      <trkpt lat="44.99538" lon="5.20371">
        <ele>675.46</ele>
        <time>2017-03-19T09:08:32Z</time>
      </trkpt>
      <trkpt lat="44.99539" lon="5.20372">
        <ele>676.91</ele>
        <time>2017-03-19T09:08:48Z</time>
      </trkpt>
      <trkpt lat="44.99539" lon="5.20372">
        <ele>677.39</ele>
        <time>2017-03-19T09:08:57Z</time>
      </trkpt>
      <trkpt lat="44.99539" lon="5.20372">
        <ele>677.87</ele>
        <time>2017-03-19T09:08:58Z</time>
      </trkpt>
      <trkpt lat="44.99542" lon="5.2037">
        <ele>678.83</ele>
        <time>2017-03-19T09:09:14Z</time>
      </trkpt>
      <trkpt lat="44.99541" lon="5.2037">
        <ele>678.83</ele>
        <time>2017-03-19T09:09:34Z</time>
      </trkpt>
      <trkpt lat="44.99541" lon="5.2037">
        <ele>678.83</ele>
        <time>2017-03-19T09:09:56Z</time>
      </trkpt>
      <trkpt lat="44.99541" lon="5.2037">
        <ele>679.31</ele>
        <time>2017-03-19T09:10:18Z</time>
      </trkpt>
      <trkpt lat="44.99541" lon="5.20369">
        <ele>678.35</ele>
        <time>2017-03-19T09:10:32Z</time>
      </trkpt>
      <trkpt lat="44.99542" lon="5.20367">
        <ele>680.75</ele>
        <time>2017-03-19T09:10:35Z</time>
      </trkpt>
      <trkpt lat="44.99543" lon="5.20365">
        <ele>681.71</ele>
        <time>2017-03-19T09:10:46Z</time>
      </trkpt>
      <trkpt lat="44.99544" lon="5.20364">
        <ele>684.12</ele>
        <time>2017-03-19T09:11:00Z</time>
      </trkpt>
      <trkpt lat="44.99544" lon="5.20363">
        <ele>685.56</ele>
        <time>2017-03-19T09:11:06Z</time>
      </trkpt>
      <trkpt lat="44.99543" lon="5.20363">
        <ele>687</ele>
        <time>2017-03-19T09:11:18Z</time>
      </trkpt>
      <trkpt lat="44.99543" lon="5.20363">
        <ele>687.48</ele>
        <time>2017-03-19T09:11:37Z</time>
      </trkpt>
      <trkpt lat="44.99543" lon="5.20363">
        <ele>683.15</ele>
        <time>2017-03-19T09:11:40Z</time>
      </trkpt>
      <trkpt lat="44.99543" lon="5.20363">
        <ele>686.52</ele>
        <time>2017-03-19T09:11:41Z</time>
      </trkpt>
      <trkpt lat="44.99543" lon="5.20363">
        <ele>692.29</ele>
        <time>2017-03-19T09:11:42Z</time>
      </trkpt>
      <trkpt lat="44.99543" lon="5.20363">
        <ele>688.44</ele>
        <time>2017-03-19T09:11:43Z</time>
      </trkpt>
      <trkpt lat="44.99545" lon="5.20362">
        <ele>688.92</ele>
        <time>2017-03-19T09:11:55Z</time>
      </trkpt>
      <trkpt lat="44.99544" lon="5.20363">
        <ele>688.44</ele>
        <time>2017-03-19T09:12:15Z</time>
      </trkpt>
      <trkpt lat="44.99544" lon="5.20363">
        <ele>688.44</ele>
        <time>2017-03-19T09:12:33Z</time>
      </trkpt>
      <trkpt lat="44.99545" lon="5.20364">
        <ele>690.84</ele>
        <time>2017-03-19T09:12:48Z</time>
      </trkpt>
      <trkpt lat="44.99546" lon="5.20364">
        <ele>691.33</ele>
        <time>2017-03-19T09:13:02Z</time>
      </trkpt>
      <trkpt lat="44.99547" lon="5.20365">
        <ele>693.25</ele>
        <time>2017-03-19T09:13:13Z</time>
      </trkpt>
      <trkpt lat="44.99547" lon="5.20365">
        <ele>692.77</ele>
        <time>2017-03-19T09:13:35Z</time>
      </trkpt>
      <trkpt lat="44.99549" lon="5.20366">
        <ele>693.73</ele>
        <time>2017-03-19T09:13:55Z</time>
      </trkpt>
      <trkpt lat="44.99551" lon="5.20366">
        <ele>697.09</ele>
        <time>2017-03-19T09:14:07Z</time>
      </trkpt>
      <trkpt lat="44.99555" lon="5.20367">
        <ele>697.57</ele>
        <time>2017-03-19T09:14:19Z</time>
      </trkpt>
      <trkpt lat="44.99556" lon="5.20366">
        <ele>697.57</ele>
        <time>2017-03-19T09:14:41Z</time>
      </trkpt>
      <trkpt lat="44.99557" lon="5.20367">
        <ele>698.53</ele>
        <time>2017-03-19T09:14:55Z</time>
      </trkpt>
      <trkpt lat="44.99561" lon="5.20362">
        <ele>699.5</ele>
        <time>2017-03-19T09:15:06Z</time>
      </trkpt>
      <trkpt lat="44.99561" lon="5.2036">
        <ele>700.46</ele>
        <time>2017-03-19T09:15:23Z</time>
      </trkpt>
      <trkpt lat="44.99563" lon="5.20361">
        <ele>701.9</ele>
        <time>2017-03-19T09:15:35Z</time>
      </trkpt>
      <trkpt lat="44.99564" lon="5.20359">
        <ele>705.75</ele>
        <time>2017-03-19T09:15:45Z</time>
      </trkpt>
      <trkpt lat="44.99566" lon="5.20358">
        <ele>707.67</ele>
        <time>2017-03-19T09:15:54Z</time>
      </trkpt>
      <trkpt lat="44.99568" lon="5.20359">
        <ele>710.55</ele>
        <time>2017-03-19T09:16:05Z</time>
      </trkpt>
      <trkpt lat="44.99568" lon="5.20356">
        <ele>711.99</ele>
        <time>2017-03-19T09:16:15Z</time>
      </trkpt>
      <trkpt lat="44.99572" lon="5.20345">
        <ele>713.92</ele>
        <time>2017-03-19T09:16:26Z</time>
      </trkpt>
      <trkpt lat="44.99572" lon="5.20345">
        <ele>713.44</ele>
        <time>2017-03-19T09:16:45Z</time>
      </trkpt>
      <trkpt lat="44.99571" lon="5.20344">
        <ele>713.44</ele>
        <time>2017-03-19T09:17:05Z</time>
      </trkpt>
      <trkpt lat="44.99574" lon="5.20346">
        <ele>713.92</ele>
        <time>2017-03-19T09:17:28Z</time>
      </trkpt>
      <trkpt lat="44.99577" lon="5.20343">
        <ele>714.4</ele>
        <time>2017-03-19T09:17:36Z</time>
      </trkpt>
      <trkpt lat="44.99582" lon="5.20343">
        <ele>717.76</ele>
        <time>2017-03-19T09:17:49Z</time>
      </trkpt>
      <trkpt lat="44.99584" lon="5.20347">
        <ele>719.68</ele>
        <time>2017-03-19T09:18:02Z</time>
      </trkpt>
      <trkpt lat="44.99584" lon="5.20347">
        <ele>719.2</ele>
        <time>2017-03-19T09:18:03Z</time>
      </trkpt>
      <trkpt lat="44.99587" lon="5.20348">
        <ele>721.61</ele>
        <time>2017-03-19T09:18:08Z</time>
      </trkpt>
      <trkpt lat="44.9959" lon="5.20348">
        <ele>722.57</ele>
        <time>2017-03-19T09:18:14Z</time>
      </trkpt>
      <trkpt lat="44.99592" lon="5.2035">
        <ele>724.97</ele>
        <time>2017-03-19T09:18:24Z</time>
      </trkpt>
      <trkpt lat="44.99593" lon="5.20352">
        <ele>728.34</ele>
        <time>2017-03-19T09:18:36Z</time>
      </trkpt>
      <trkpt lat="44.99594" lon="5.20352">
        <ele>727.86</ele>
        <time>2017-03-19T09:18:37Z</time>
      </trkpt>
      <trkpt lat="44.99595" lon="5.20352">
        <ele>729.78</ele>
        <time>2017-03-19T09:18:52Z</time>
      </trkpt>
      <trkpt lat="44.99602" lon="5.20353">
        <ele>733.62</ele>
        <time>2017-03-19T09:19:02Z</time>
      </trkpt>
      <trkpt lat="44.99604" lon="5.20352">
        <ele>735.07</ele>
        <time>2017-03-19T09:19:06Z</time>
      </trkpt>
      <trkpt lat="44.9961" lon="5.20351">
        <ele>736.51</ele>
        <time>2017-03-19T09:19:19Z</time>
      </trkpt>
      <trkpt lat="44.9961" lon="5.20351">
        <ele>736.99</ele>
        <time>2017-03-19T09:19:36Z</time>
      </trkpt>
      <trkpt lat="44.9961" lon="5.20351">
        <ele>736.51</ele>
        <time>2017-03-19T09:19:48Z</time>
      </trkpt>
      <trkpt lat="44.99607" lon="5.20349">
        <ele>735.55</ele>
        <time>2017-03-19T09:20:05Z</time>
      </trkpt>
      <trkpt lat="44.99607" lon="5.20349">
        <ele>735.55</ele>
        <time>2017-03-19T09:20:29Z</time>
      </trkpt>
      <trkpt lat="44.99607" lon="5.20349">
        <ele>736.51</ele>
        <time>2017-03-19T09:20:51Z</time>
      </trkpt>
      <trkpt lat="44.99606" lon="5.20348">
        <ele>736.51</ele>
        <time>2017-03-19T09:21:05Z</time>
      </trkpt>
      <trkpt lat="44.99607" lon="5.20348">
        <ele>736.99</ele>
        <time>2017-03-19T09:21:30Z</time>
      </trkpt>
      <trkpt lat="44.99611" lon="5.20351">
        <ele>738.43</ele>
        <time>2017-03-19T09:21:36Z</time>
      </trkpt>
      <trkpt lat="44.99613" lon="5.20353">
        <ele>739.39</ele>
        <time>2017-03-19T09:21:39Z</time>
      </trkpt>
      <trkpt lat="44.99616" lon="5.20354">
        <ele>743.24</ele>
        <time>2017-03-19T09:21:50Z</time>
      </trkpt>
      <trkpt lat="44.99615" lon="5.20359">
        <ele>744.2</ele>
        <time>2017-03-19T09:22:03Z</time>
      </trkpt>
      <trkpt lat="44.99614" lon="5.20361">
        <ele>743.72</ele>
        <time>2017-03-19T09:22:07Z</time>
      </trkpt>
      <trkpt lat="44.99612" lon="5.20366">
        <ele>743.24</ele>
        <time>2017-03-19T09:22:10Z</time>
      </trkpt>
      <trkpt lat="44.99612" lon="5.2038">
        <ele>744.2</ele>
        <time>2017-03-19T09:22:22Z</time>
      </trkpt>
      <trkpt lat="44.99612" lon="5.20388">
        <ele>747.56</ele>
        <time>2017-03-19T09:22:33Z</time>
      </trkpt>
      <trkpt lat="44.9961" lon="5.20392">
        <ele>748.52</ele>
        <time>2017-03-19T09:22:45Z</time>
      </trkpt>
      <trkpt lat="44.99609" lon="5.20393">
        <ele>749.97</ele>
        <time>2017-03-19T09:22:51Z</time>
      </trkpt>
      <trkpt lat="44.99609" lon="5.20394">
        <ele>753.33</ele>
        <time>2017-03-19T09:23:03Z</time>
      </trkpt>
      <trkpt lat="44.99609" lon="5.20395">
        <ele>756.69</ele>
        <time>2017-03-19T09:23:16Z</time>
      </trkpt>
      <trkpt lat="44.99609" lon="5.20395">
        <ele>756.21</ele>
        <time>2017-03-19T09:23:17Z</time>
      </trkpt>
      <trkpt lat="44.99609" lon="5.20395">
        <ele>759.1</ele>
        <time>2017-03-19T09:23:26Z</time>
      </trkpt>
      <trkpt lat="44.9961" lon="5.20398">
        <ele>759.58</ele>
        <time>2017-03-19T09:23:39Z</time>
      </trkpt>
      <trkpt lat="44.99613" lon="5.20409">
        <ele>761.5</ele>
        <time>2017-03-19T09:23:52Z</time>
      </trkpt>
      <trkpt lat="44.99615" lon="5.2042">
        <ele>762.94</ele>
        <time>2017-03-19T09:24:04Z</time>
      </trkpt>
      <trkpt lat="44.99615" lon="5.2042">
        <ele>761.5</ele>
        <time>2017-03-19T09:24:12Z</time>
      </trkpt>
      <trkpt lat="44.99615" lon="5.20421">
        <ele>765.35</ele>
        <time>2017-03-19T09:24:13Z</time>
      </trkpt>
      <trkpt lat="44.99615" lon="5.20422">
        <ele>763.9</ele>
        <time>2017-03-19T09:24:14Z</time>
      </trkpt>
      <trkpt lat="44.99616" lon="5.20425">
        <ele>764.39</ele>
        <time>2017-03-19T09:24:27Z</time>
      </trkpt>
      <trkpt lat="44.99616" lon="5.20425">
        <ele>763.9</ele>
        <time>2017-03-19T09:24:53Z</time>
      </trkpt>
      <trkpt lat="44.99617" lon="5.20426">
        <ele>763.9</ele>
        <time>2017-03-19T09:25:28Z</time>
      </trkpt>
      <trkpt lat="44.99618" lon="5.20426">
        <ele>762.94</ele>
        <time>2017-03-19T09:26:03Z</time>
      </trkpt>
      <trkpt lat="44.99618" lon="5.20432">
        <ele>762.94</ele>
        <time>2017-03-19T09:26:17Z</time>
      </trkpt>
      <trkpt lat="44.99613" lon="5.20444">
        <ele>761.98</ele>
        <time>2017-03-19T09:26:27Z</time>
      </trkpt>
      <trkpt lat="44.9961" lon="5.20444">
        <ele>761.5</ele>
        <time>2017-03-19T09:26:44Z</time>
      </trkpt>
      <trkpt lat="44.99614" lon="5.20435">
        <ele>762.94</ele>
        <time>2017-03-19T09:26:58Z</time>
      </trkpt>
      <trkpt lat="44.99619" lon="5.20427">
        <ele>761.5</ele>
        <time>2017-03-19T09:27:10Z</time>
      </trkpt>
      <trkpt lat="44.99614" lon="5.20417">
        <ele>761.5</ele>
        <time>2017-03-19T09:27:34Z</time>
      </trkpt>
      <trkpt lat="44.99619" lon="5.20424">
        <ele>761.98</ele>
        <time>2017-03-19T09:27:48Z</time>
      </trkpt>
      <trkpt lat="44.99621" lon="5.20418">
        <ele>760.54</ele>
        <time>2017-03-19T09:28:03Z</time>
      </trkpt>
      <trkpt lat="44.9962" lon="5.20421">
        <ele>760.06</ele>
        <time>2017-03-19T09:28:19Z</time>
      </trkpt>
      <trkpt lat="44.99619" lon="5.20421">
        <ele>760.06</ele>
        <time>2017-03-19T09:28:35Z</time>
      </trkpt>
      <trkpt lat="44.99619" lon="5.20419">
        <ele>758.62</ele>
        <time>2017-03-19T09:28:56Z</time>
      </trkpt>
      <trkpt lat="44.99617" lon="5.20411">
        <ele>757.18</ele>
        <time>2017-03-19T09:29:10Z</time>
      </trkpt>
      <trkpt lat="44.99618" lon="5.20411">
        <ele>753.81</ele>
        <time>2017-03-19T09:29:25Z</time>
      </trkpt>
      <trkpt lat="44.99619" lon="5.20414">
        <ele>753.81</ele>
        <time>2017-03-19T09:29:46Z</time>
      </trkpt>
      <trkpt lat="44.99618" lon="5.2041">
        <ele>752.85</ele>
        <time>2017-03-19T09:30:07Z</time>
      </trkpt>
      <trkpt lat="44.99607" lon="5.204">
        <ele>750.93</ele>
        <time>2017-03-19T09:30:27Z</time>
      </trkpt>
      <trkpt lat="44.99603" lon="5.20395">
        <ele>748.04</ele>
        <time>2017-03-19T09:30:38Z</time>
      </trkpt>
      <trkpt lat="44.99608" lon="5.20386">
        <ele>745.16</ele>
        <time>2017-03-19T09:30:53Z</time>
      </trkpt>
      <trkpt lat="44.99609" lon="5.20383">
        <ele>743.24</ele>
        <time>2017-03-19T09:30:58Z</time>
      </trkpt>
      <trkpt lat="44.9961" lon="5.20375">
        <ele>741.79</ele>
        <time>2017-03-19T09:31:10Z</time>
      </trkpt>
      <trkpt lat="44.99622" lon="5.20368">
        <ele>742.28</ele>
        <time>2017-03-19T09:31:23Z</time>
      </trkpt>
      <trkpt lat="44.99626" lon="5.2036">
        <ele>742.28</ele>
        <time>2017-03-19T09:31:35Z</time>
      </trkpt>
      <trkpt lat="44.99621" lon="5.2034">
        <ele>743.24</ele>
        <time>2017-03-19T09:31:47Z</time>
      </trkpt>
      <trkpt lat="44.99625" lon="5.20338">
        <ele>746.12</ele>
        <time>2017-03-19T09:32:00Z</time>
      </trkpt>
      <trkpt lat="44.99625" lon="5.20337">
        <ele>749</ele>
        <time>2017-03-19T09:32:15Z</time>
      </trkpt>
      <trkpt lat="44.99631" lon="5.20332">
        <ele>752.37</ele>
        <time>2017-03-19T09:32:26Z</time>
      </trkpt>
      <trkpt lat="44.99633" lon="5.2033">
        <ele>755.25</ele>
        <time>2017-03-19T09:32:35Z</time>
      </trkpt>
      <trkpt lat="44.99637" lon="5.20326">
        <ele>757.66</ele>
        <time>2017-03-19T09:32:51Z</time>
      </trkpt>
      <trkpt lat="44.99643" lon="5.20322">
        <ele>761.02</ele>
        <time>2017-03-19T09:33:05Z</time>
      </trkpt>
      <trkpt lat="44.9965" lon="5.20315">
        <ele>763.42</ele>
        <time>2017-03-19T09:33:16Z</time>
      </trkpt>
      <trkpt lat="44.99655" lon="5.20309">
        <ele>766.79</ele>
        <time>2017-03-19T09:33:29Z</time>
      </trkpt>
      <trkpt lat="44.99655" lon="5.20301">
        <ele>769.67</ele>
        <time>2017-03-19T09:33:42Z</time>
      </trkpt>
      <trkpt lat="44.99656" lon="5.2029">
        <ele>772.56</ele>
        <time>2017-03-19T09:33:54Z</time>
      </trkpt>
      <trkpt lat="44.99658" lon="5.20288">
        <ele>775.92</ele>
        <time>2017-03-19T09:34:04Z</time>
      </trkpt>
      <trkpt lat="44.9966" lon="5.20289">
        <ele>778.32</ele>
        <time>2017-03-19T09:34:15Z</time>
      </trkpt>
      <trkpt lat="44.99661" lon="5.20288">
        <ele>781.21</ele>
        <time>2017-03-19T09:34:25Z</time>
      </trkpt>
      <trkpt lat="44.99662" lon="5.20287">
        <ele>782.17</ele>
        <time>2017-03-19T09:34:41Z</time>
      </trkpt>
      <trkpt lat="44.99665" lon="5.20284">
        <ele>783.13</ele>
        <time>2017-03-19T09:34:56Z</time>
      </trkpt>
      <trkpt lat="44.99666" lon="5.20283">
        <ele>784.57</ele>
        <time>2017-03-19T09:34:59Z</time>
      </trkpt>
      <trkpt lat="44.99667" lon="5.20283">
        <ele>785.53</ele>
        <time>2017-03-19T09:35:01Z</time>
      </trkpt>
      <trkpt lat="44.99668" lon="5.2028">
        <ele>786.98</ele>
        <time>2017-03-19T09:35:16Z</time>
      </trkpt>
      <trkpt lat="44.99668" lon="5.2028">
        <ele>787.46</ele>
        <time>2017-03-19T09:35:40Z</time>
      </trkpt>
      <trkpt lat="44.99672" lon="5.2028">
        <ele>789.38</ele>
        <time>2017-03-19T09:35:55Z</time>
      </trkpt>
      <trkpt lat="44.99675" lon="5.20277">
        <ele>790.82</ele>
        <time>2017-03-19T09:36:00Z</time>
      </trkpt>
      <trkpt lat="44.99678" lon="5.2027">
        <ele>793.71</ele>
        <time>2017-03-19T09:36:11Z</time>
      </trkpt>
      <trkpt lat="44.99681" lon="5.20262">
        <ele>796.11</ele>
        <time>2017-03-19T09:36:25Z</time>
      </trkpt>
      <trkpt lat="44.99685" lon="5.20259">
        <ele>798.51</ele>
        <time>2017-03-19T09:36:32Z</time>
      </trkpt>
      <trkpt lat="44.99687" lon="5.20255">
        <ele>801.4</ele>
        <time>2017-03-19T09:36:42Z</time>
      </trkpt>
      <trkpt lat="44.99689" lon="5.20255">
        <ele>801.88</ele>
        <time>2017-03-19T09:36:44Z</time>
      </trkpt>
      <trkpt lat="44.99691" lon="5.20254">
        <ele>802.84</ele>
        <time>2017-03-19T09:36:46Z</time>
      </trkpt>
      <trkpt lat="44.99695" lon="5.20256">
        <ele>805.72</ele>
        <time>2017-03-19T09:36:56Z</time>
      </trkpt>
      <trkpt lat="44.99699" lon="5.20253">
        <ele>809.09</ele>
        <time>2017-03-19T09:37:07Z</time>
      </trkpt>
      <trkpt lat="44.99701" lon="5.20252">
        <ele>810.53</ele>
        <time>2017-03-19T09:37:10Z</time>
      </trkpt>
      <trkpt lat="44.99707" lon="5.20252">
        <ele>812.93</ele>
        <time>2017-03-19T09:37:22Z</time>
      </trkpt>
      <trkpt lat="44.99707" lon="5.20252">
        <ele>811.97</ele>
        <time>2017-03-19T09:37:37Z</time>
      </trkpt>
      <trkpt lat="44.99707" lon="5.20252">
        <ele>811.97</ele>
        <time>2017-03-19T09:37:53Z</time>
      </trkpt>
      <trkpt lat="44.99706" lon="5.20252">
        <ele>811.97</ele>
        <time>2017-03-19T09:38:20Z</time>
      </trkpt>
      <trkpt lat="44.99706" lon="5.20252">
        <ele>812.45</ele>
        <time>2017-03-19T09:38:38Z</time>
      </trkpt>
      <trkpt lat="44.99706" lon="5.20252">
        <ele>812.45</ele>
        <time>2017-03-19T09:39:00Z</time>
      </trkpt>
      <trkpt lat="44.99706" lon="5.20252">
        <ele>813.41</ele>
        <time>2017-03-19T09:39:22Z</time>
      </trkpt>
      <trkpt lat="44.99709" lon="5.20255">
        <ele>811.97</ele>
        <time>2017-03-19T09:39:41Z</time>
      </trkpt>
      <trkpt lat="44.99709" lon="5.20255">
        <ele>811.97</ele>
        <time>2017-03-19T09:39:43Z</time>
      </trkpt>
      <trkpt lat="44.99711" lon="5.20256">
        <ele>812.45</ele>
        <time>2017-03-19T09:39:47Z</time>
      </trkpt>
      <trkpt lat="44.99719" lon="5.20268">
        <ele>813.89</ele>
        <time>2017-03-19T09:40:01Z</time>
      </trkpt>
      <trkpt lat="44.99727" lon="5.20279">
        <ele>814.85</ele>
        <time>2017-03-19T09:40:14Z</time>
      </trkpt>
      <trkpt lat="44.99734" lon="5.20288">
        <ele>816.3</ele>
        <time>2017-03-19T09:40:26Z</time>
      </trkpt>
      <trkpt lat="44.99738" lon="5.20298">
        <ele>819.66</ele>
        <time>2017-03-19T09:40:39Z</time>
      </trkpt>
      <trkpt lat="44.99742" lon="5.20307">
        <ele>822.06</ele>
        <time>2017-03-19T09:40:50Z</time>
      </trkpt>
      <trkpt lat="44.99749" lon="5.20317">
        <ele>824.47</ele>
        <time>2017-03-19T09:41:01Z</time>
      </trkpt>
      <trkpt lat="44.99752" lon="5.20329">
        <ele>827.35</ele>
        <time>2017-03-19T09:41:13Z</time>
      </trkpt>
      <trkpt lat="44.99756" lon="5.20337">
        <ele>829.27</ele>
        <time>2017-03-19T09:41:23Z</time>
      </trkpt>
      <trkpt lat="44.9976" lon="5.20343">
        <ele>830.24</ele>
        <time>2017-03-19T09:41:28Z</time>
      </trkpt>
      <trkpt lat="44.99762" lon="5.20347">
        <ele>830.72</ele>
        <time>2017-03-19T09:41:39Z</time>
      </trkpt>
      <trkpt lat="44.99762" lon="5.20347">
        <ele>829.76</ele>
        <time>2017-03-19T09:42:04Z</time>
      </trkpt>
      <trkpt lat="44.99764" lon="5.20351">
        <ele>831.2</ele>
        <time>2017-03-19T09:42:20Z</time>
      </trkpt>
      <trkpt lat="44.99769" lon="5.20364">
        <ele>833.12</ele>
        <time>2017-03-19T09:42:30Z</time>
      </trkpt>
      <trkpt lat="44.99778" lon="5.20373">
        <ele>834.08</ele>
        <time>2017-03-19T09:42:38Z</time>
      </trkpt>
      <trkpt lat="44.9979" lon="5.20387">
        <ele>836.48</ele>
        <time>2017-03-19T09:42:50Z</time>
      </trkpt>
      <trkpt lat="44.99806" lon="5.20392">
        <ele>837.93</ele>
        <time>2017-03-19T09:43:00Z</time>
      </trkpt>
      <trkpt lat="44.99817" lon="5.20392">
        <ele>838.41</ele>
        <time>2017-03-19T09:43:04Z</time>
      </trkpt>
      <trkpt lat="44.99831" lon="5.20402">
        <ele>841.29</ele>
        <time>2017-03-19T09:43:16Z</time>
      </trkpt>
      <trkpt lat="44.99835" lon="5.20408">
        <ele>842.73</ele>
        <time>2017-03-19T09:43:20Z</time>
      </trkpt>
      <trkpt lat="44.99838" lon="5.20415">
        <ele>845.62</ele>
        <time>2017-03-19T09:43:30Z</time>
      </trkpt>
      <trkpt lat="44.99838" lon="5.20415">
        <ele>845.62</ele>
        <time>2017-03-19T09:43:31Z</time>
      </trkpt>
      <trkpt lat="44.99842" lon="5.20425">
        <ele>847.54</ele>
        <time>2017-03-19T09:43:39Z</time>
      </trkpt>
      <trkpt lat="44.99847" lon="5.20433">
        <ele>850.42</ele>
        <time>2017-03-19T09:43:48Z</time>
      </trkpt>
      <trkpt lat="44.99848" lon="5.20435">
        <ele>850.42</ele>
        <time>2017-03-19T09:43:59Z</time>
      </trkpt>
      <trkpt lat="44.99852" lon="5.20434">
        <ele>850.9</ele>
        <time>2017-03-19T09:44:03Z</time>
      </trkpt>
      <trkpt lat="44.99855" lon="5.20433">
        <ele>851.38</ele>
        <time>2017-03-19T09:44:06Z</time>
      </trkpt>
      <trkpt lat="44.99866" lon="5.20422">
        <ele>853.79</ele>
        <time>2017-03-19T09:44:21Z</time>
      </trkpt>
      <trkpt lat="44.99876" lon="5.20416">
        <ele>856.67</ele>
        <time>2017-03-19T09:44:34Z</time>
      </trkpt>
      <trkpt lat="44.99878" lon="5.20416">
        <ele>856.67</ele>
        <time>2017-03-19T09:44:37Z</time>
      </trkpt>
      <trkpt lat="44.99889" lon="5.20416">
        <ele>860.04</ele>
        <time>2017-03-19T09:44:48Z</time>
      </trkpt>
      <trkpt lat="44.99889" lon="5.20416">
        <ele>860.52</ele>
        <time>2017-03-19T09:44:50Z</time>
      </trkpt>
      <trkpt lat="44.99898" lon="5.20421">
        <ele>863.4</ele>
        <time>2017-03-19T09:45:01Z</time>
      </trkpt>
      <trkpt lat="44.99908" lon="5.20426">
        <ele>865.32</ele>
        <time>2017-03-19T09:45:12Z</time>
      </trkpt>
      <trkpt lat="44.99911" lon="5.20427">
        <ele>866.77</ele>
        <time>2017-03-19T09:45:21Z</time>
      </trkpt>
      <trkpt lat="44.99911" lon="5.20427">
        <ele>867.25</ele>
        <time>2017-03-19T09:45:29Z</time>
      </trkpt>
      <trkpt lat="44.99912" lon="5.20428">
        <ele>867.25</ele>
        <time>2017-03-19T09:45:46Z</time>
      </trkpt>
      <trkpt lat="44.99913" lon="5.20429">
        <ele>866.29</ele>
        <time>2017-03-19T09:46:01Z</time>
      </trkpt>
      <trkpt lat="44.99916" lon="5.20432">
        <ele>867.25</ele>
        <time>2017-03-19T09:46:13Z</time>
      </trkpt>
      <trkpt lat="44.99916" lon="5.20432">
        <ele>868.21</ele>
        <time>2017-03-19T09:46:22Z</time>
      </trkpt>
      <trkpt lat="44.99916" lon="5.20432">
        <ele>868.21</ele>
        <time>2017-03-19T09:46:26Z</time>
      </trkpt>
      <trkpt lat="44.99913" lon="5.20434">
        <ele>867.25</ele>
        <time>2017-03-19T09:46:41Z</time>
      </trkpt>
      <trkpt lat="44.99913" lon="5.20434">
        <ele>868.69</ele>
        <time>2017-03-19T09:46:44Z</time>
      </trkpt>
      <trkpt lat="44.99914" lon="5.20434">
        <ele>869.17</ele>
        <time>2017-03-19T09:46:53Z</time>
      </trkpt>
      <trkpt lat="44.99916" lon="5.20437">
        <ele>868.69</ele>
        <time>2017-03-19T09:47:14Z</time>
      </trkpt>
      <trkpt lat="44.99918" lon="5.2044">
        <ele>869.17</ele>
        <time>2017-03-19T09:47:17Z</time>
      </trkpt>
      <trkpt lat="44.9992" lon="5.20449">
        <ele>871.09</ele>
        <time>2017-03-19T09:47:25Z</time>
      </trkpt>
      <trkpt lat="44.99924" lon="5.20457">
        <ele>871.57</ele>
        <time>2017-03-19T09:47:36Z</time>
      </trkpt>
      <trkpt lat="44.99923" lon="5.20463">
        <ele>873.98</ele>
        <time>2017-03-19T09:47:51Z</time>
      </trkpt>
      <trkpt lat="44.99921" lon="5.20471">
        <ele>877.34</ele>
        <time>2017-03-19T09:48:02Z</time>
      </trkpt>
      <trkpt lat="44.99922" lon="5.20477">
        <ele>880.22</ele>
        <time>2017-03-19T09:48:12Z</time>
      </trkpt>
      <trkpt lat="44.99922" lon="5.20488">
        <ele>882.63</ele>
        <time>2017-03-19T09:48:24Z</time>
      </trkpt>
      <trkpt lat="44.99922" lon="5.20492">
        <ele>884.07</ele>
        <time>2017-03-19T09:48:28Z</time>
      </trkpt>
      <trkpt lat="44.99923" lon="5.20498">
        <ele>884.55</ele>
        <time>2017-03-19T09:48:31Z</time>
      </trkpt>
      <trkpt lat="44.99921" lon="5.20515">
        <ele>885.99</ele>
        <time>2017-03-19T09:48:42Z</time>
      </trkpt>
      <trkpt lat="44.99921" lon="5.20526">
        <ele>887.43</ele>
        <time>2017-03-19T09:48:48Z</time>
      </trkpt>
      <trkpt lat="44.9992" lon="5.20537">
        <ele>888.4</ele>
        <time>2017-03-19T09:48:56Z</time>
      </trkpt>
      <trkpt lat="44.99918" lon="5.20546">
        <ele>890.32</ele>
        <time>2017-03-19T09:49:08Z</time>
      </trkpt>
      <trkpt lat="44.99918" lon="5.20546">
        <ele>890.32</ele>
        <time>2017-03-19T09:49:10Z</time>
      </trkpt>
      <trkpt lat="44.99916" lon="5.2055">
        <ele>890.8</ele>
        <time>2017-03-19T09:49:15Z</time>
      </trkpt>
      <trkpt lat="44.99914" lon="5.2056">
        <ele>892.24</ele>
        <time>2017-03-19T09:49:26Z</time>
      </trkpt>
      <trkpt lat="44.99911" lon="5.20574">
        <ele>893.2</ele>
        <time>2017-03-19T09:49:36Z</time>
      </trkpt>
      <trkpt lat="44.99909" lon="5.20577">
        <ele>894.16</ele>
        <time>2017-03-19T09:49:52Z</time>
      </trkpt>
      <trkpt lat="44.99906" lon="5.20589">
        <ele>895.12</ele>
        <time>2017-03-19T09:50:01Z</time>
      </trkpt>
      <trkpt lat="44.99901" lon="5.20601">
        <ele>896.09</ele>
        <time>2017-03-19T09:50:10Z</time>
      </trkpt>
      <trkpt lat="44.99895" lon="5.20616">
        <ele>897.53</ele>
        <time>2017-03-19T09:50:21Z</time>
      </trkpt>
      <trkpt lat="44.99892" lon="5.20625">
        <ele>898.01</ele>
        <time>2017-03-19T09:50:30Z</time>
      </trkpt>
      <trkpt lat="44.99892" lon="5.20628">
        <ele>898.49</ele>
        <time>2017-03-19T09:50:33Z</time>
      </trkpt>
      <trkpt lat="44.99888" lon="5.2064">
        <ele>900.89</ele>
        <time>2017-03-19T09:50:43Z</time>
      </trkpt>
      <trkpt lat="44.99885" lon="5.20649">
        <ele>902.82</ele>
        <time>2017-03-19T09:50:49Z</time>
      </trkpt>
      <trkpt lat="44.99885" lon="5.20665">
        <ele>904.74</ele>
        <time>2017-03-19T09:50:59Z</time>
      </trkpt>
      <trkpt lat="44.99881" lon="5.20679">
        <ele>907.62</ele>
        <time>2017-03-19T09:51:10Z</time>
      </trkpt>
      <trkpt lat="44.99881" lon="5.2068">
        <ele>908.1</ele>
        <time>2017-03-19T09:51:11Z</time>
      </trkpt>
      <trkpt lat="44.99878" lon="5.20694">
        <ele>910.99</ele>
        <time>2017-03-19T09:51:22Z</time>
      </trkpt>
      <trkpt lat="44.99878" lon="5.20695">
        <ele>911.47</ele>
        <time>2017-03-19T09:51:23Z</time>
      </trkpt>
      <trkpt lat="44.99877" lon="5.20706">
        <ele>913.87</ele>
        <time>2017-03-19T09:51:34Z</time>
      </trkpt>
      <trkpt lat="44.99877" lon="5.20706">
        <ele>914.35</ele>
        <time>2017-03-19T09:51:59Z</time>
      </trkpt>
      <trkpt lat="44.99875" lon="5.2071">
        <ele>914.83</ele>
        <time>2017-03-19T09:52:14Z</time>
      </trkpt>
      <trkpt lat="44.99869" lon="5.20719">
        <ele>916.75</ele>
        <time>2017-03-19T09:52:26Z</time>
      </trkpt>
      <trkpt lat="44.99869" lon="5.2072">
        <ele>916.75</ele>
        <time>2017-03-19T09:52:27Z</time>
      </trkpt>
      <trkpt lat="44.99866" lon="5.20726">
        <ele>917.72</ele>
        <time>2017-03-19T09:52:32Z</time>
      </trkpt>
      <trkpt lat="44.99864" lon="5.2073">
        <ele>918.68</ele>
        <time>2017-03-19T09:52:36Z</time>
      </trkpt>
      <trkpt lat="44.99862" lon="5.20735">
        <ele>919.64</ele>
        <time>2017-03-19T09:52:40Z</time>
      </trkpt>
      <trkpt lat="44.99859" lon="5.20738">
        <ele>920.12</ele>
        <time>2017-03-19T09:52:44Z</time>
      </trkpt>
      <trkpt lat="44.99858" lon="5.20741">
        <ele>921.08</ele>
        <time>2017-03-19T09:52:48Z</time>
      </trkpt>
      <trkpt lat="44.99855" lon="5.20749">
        <ele>922.52</ele>
        <time>2017-03-19T09:52:56Z</time>
      </trkpt>
      <trkpt lat="44.99854" lon="5.20752">
        <ele>922.52</ele>
        <time>2017-03-19T09:52:59Z</time>
      </trkpt>
      <trkpt lat="44.99852" lon="5.20754">
        <ele>923</ele>
        <time>2017-03-19T09:53:01Z</time>
      </trkpt>
      <trkpt lat="44.99849" lon="5.20758">
        <ele>923.96</ele>
        <time>2017-03-19T09:53:04Z</time>
      </trkpt>
      <trkpt lat="44.99843" lon="5.20769">
        <ele>924.45</ele>
        <time>2017-03-19T09:53:16Z</time>
      </trkpt>
      <trkpt lat="44.99841" lon="5.20774">
        <ele>923</ele>
        <time>2017-03-19T09:53:28Z</time>
      </trkpt>
      <trkpt lat="44.9984" lon="5.20774">
        <ele>923</ele>
        <time>2017-03-19T09:53:46Z</time>
      </trkpt>
      <trkpt lat="44.9984" lon="5.20774">
        <ele>923.48</ele>
        <time>2017-03-19T09:54:02Z</time>
      </trkpt>
      <trkpt lat="44.99842" lon="5.20778">
        <ele>922.52</ele>
        <time>2017-03-19T09:54:07Z</time>
      </trkpt>
      <trkpt lat="44.99844" lon="5.20785">
        <ele>921.56</ele>
        <time>2017-03-19T09:54:12Z</time>
      </trkpt>
      <trkpt lat="44.99848" lon="5.2079">
        <ele>921.08</ele>
        <time>2017-03-19T09:54:16Z</time>
      </trkpt>
      <trkpt lat="44.99861" lon="5.20799">
        <ele>918.68</ele>
        <time>2017-03-19T09:54:29Z</time>
      </trkpt>
      <trkpt lat="44.99869" lon="5.208">
        <ele>917.72</ele>
        <time>2017-03-19T09:54:36Z</time>
      </trkpt>
      <trkpt lat="44.99879" lon="5.20803">
        <ele>916.75</ele>
        <time>2017-03-19T09:54:45Z</time>
      </trkpt>
      <trkpt lat="44.99881" lon="5.20804">
        <ele>916.75</ele>
        <time>2017-03-19T09:54:47Z</time>
      </trkpt>
      <trkpt lat="44.99892" lon="5.20812">
        <ele>915.31</ele>
        <time>2017-03-19T09:54:58Z</time>
      </trkpt>
      <trkpt lat="44.99901" lon="5.20821">
        <ele>914.35</ele>
        <time>2017-03-19T09:55:09Z</time>
      </trkpt>
      <trkpt lat="44.99912" lon="5.20833">
        <ele>912.43</ele>
        <time>2017-03-19T09:55:22Z</time>
      </trkpt>
      <trkpt lat="44.99914" lon="5.20834">
        <ele>911.47</ele>
        <time>2017-03-19T09:55:26Z</time>
      </trkpt>
      <trkpt lat="44.99917" lon="5.20837">
        <ele>911.47</ele>
        <time>2017-03-19T09:55:28Z</time>
      </trkpt>
      <trkpt lat="44.99927" lon="5.20852">
        <ele>910.03</ele>
        <time>2017-03-19T09:55:37Z</time>
      </trkpt>
      <trkpt lat="44.99931" lon="5.20861">
        <ele>908.1</ele>
        <time>2017-03-19T09:55:43Z</time>
      </trkpt>
      <trkpt lat="44.9994" lon="5.20878">
        <ele>906.66</ele>
        <time>2017-03-19T09:55:55Z</time>
      </trkpt>
      <trkpt lat="44.99941" lon="5.20891">
        <ele>906.18</ele>
        <time>2017-03-19T09:56:06Z</time>
      </trkpt>
      <trkpt lat="44.99941" lon="5.20905">
        <ele>906.66</ele>
        <time>2017-03-19T09:56:15Z</time>
      </trkpt>
      <trkpt lat="44.9994" lon="5.20917">
        <ele>906.66</ele>
        <time>2017-03-19T09:56:23Z</time>
      </trkpt>
      <trkpt lat="44.99938" lon="5.2092">
        <ele>906.18</ele>
        <time>2017-03-19T09:56:44Z</time>
      </trkpt>
      <trkpt lat="44.99938" lon="5.2092">
        <ele>906.18</ele>
        <time>2017-03-19T09:57:20Z</time>
      </trkpt>
      <trkpt lat="44.99938" lon="5.2092">
        <ele>907.14</ele>
        <time>2017-03-19T09:57:49Z</time>
      </trkpt>
      <trkpt lat="44.99937" lon="5.20937">
        <ele>907.14</ele>
        <time>2017-03-19T09:58:00Z</time>
      </trkpt>
      <trkpt lat="44.99936" lon="5.20957">
        <ele>908.58</ele>
        <time>2017-03-19T09:58:11Z</time>
      </trkpt>
      <trkpt lat="44.99938" lon="5.2098">
        <ele>910.03</ele>
        <time>2017-03-19T09:58:24Z</time>
      </trkpt>
      <trkpt lat="44.99943" lon="5.21">
        <ele>912.43</ele>
        <time>2017-03-19T09:58:37Z</time>
      </trkpt>
      <trkpt lat="44.99951" lon="5.21022">
        <ele>915.31</ele>
        <time>2017-03-19T09:58:51Z</time>
      </trkpt>
      <trkpt lat="44.99949" lon="5.21028">
        <ele>917.72</ele>
        <time>2017-03-19T09:59:00Z</time>
      </trkpt>
      <trkpt lat="44.99945" lon="5.21026">
        <ele>918.68</ele>
        <time>2017-03-19T09:59:04Z</time>
      </trkpt>
      <trkpt lat="44.9994" lon="5.21032">
        <ele>921.56</ele>
        <time>2017-03-19T09:59:14Z</time>
      </trkpt>
      <trkpt lat="44.99942" lon="5.21035">
        <ele>921.56</ele>
        <time>2017-03-19T09:59:17Z</time>
      </trkpt>
      <trkpt lat="44.99943" lon="5.21045">
        <ele>923.48</ele>
        <time>2017-03-19T09:59:30Z</time>
      </trkpt>
      <trkpt lat="44.9994" lon="5.21051">
        <ele>926.85</ele>
        <time>2017-03-19T09:59:44Z</time>
      </trkpt>
      <trkpt lat="44.99941" lon="5.21066">
        <ele>929.73</ele>
        <time>2017-03-19T09:59:57Z</time>
      </trkpt>
      <trkpt lat="44.99945" lon="5.21083">
        <ele>932.62</ele>
        <time>2017-03-19T10:00:10Z</time>
      </trkpt>
      <trkpt lat="44.99949" lon="5.21105">
        <ele>935.5</ele>
        <time>2017-03-19T10:00:25Z</time>
      </trkpt>
      <trkpt lat="44.99949" lon="5.21111">
        <ele>937.9</ele>
        <time>2017-03-19T10:00:35Z</time>
      </trkpt>
      <trkpt lat="44.99949" lon="5.21121">
        <ele>939.35</ele>
        <time>2017-03-19T10:00:46Z</time>
      </trkpt>
      <trkpt lat="44.99955" lon="5.21135">
        <ele>940.79</ele>
        <time>2017-03-19T10:01:00Z</time>
      </trkpt>
      <trkpt lat="44.99955" lon="5.21135">
        <ele>940.79</ele>
        <time>2017-03-19T10:01:26Z</time>
      </trkpt>
      <trkpt lat="44.99955" lon="5.21136">
        <ele>940.79</ele>
        <time>2017-03-19T10:01:52Z</time>
      </trkpt>
      <trkpt lat="44.99955" lon="5.21135">
        <ele>940.31</ele>
        <time>2017-03-19T10:02:17Z</time>
      </trkpt>
      <trkpt lat="44.99955" lon="5.21135">
        <ele>940.79</ele>
        <time>2017-03-19T10:02:44Z</time>
      </trkpt>
      <trkpt lat="44.99955" lon="5.21135">
        <ele>940.31</ele>
        <time>2017-03-19T10:03:06Z</time>
      </trkpt>
      <trkpt lat="44.99955" lon="5.21138">
        <ele>939.35</ele>
        <time>2017-03-19T10:03:18Z</time>
      </trkpt>
      <trkpt lat="44.99965" lon="5.21137">
        <ele>942.23</ele>
        <time>2017-03-19T10:04:20Z</time>
      </trkpt>
      <trkpt lat="44.99967" lon="5.21138">
        <ele>940.79</ele>
        <time>2017-03-19T10:04:21Z</time>
      </trkpt>
      <trkpt lat="44.99966" lon="5.21141">
        <ele>939.83</ele>
        <time>2017-03-19T10:04:23Z</time>
      </trkpt>
      <trkpt lat="44.99956" lon="5.21149">
        <ele>940.79</ele>
        <time>2017-03-19T10:04:33Z</time>
      </trkpt>
      <trkpt lat="44.99954" lon="5.21151">
        <ele>942.71</ele>
        <time>2017-03-19T10:04:36Z</time>
      </trkpt>
      <trkpt lat="44.99949" lon="5.21161">
        <ele>944.15</ele>
        <time>2017-03-19T10:04:48Z</time>
      </trkpt>
      <trkpt lat="44.99948" lon="5.21164">
        <ele>944.63</ele>
        <time>2017-03-19T10:04:51Z</time>
      </trkpt>
      <trkpt lat="44.99945" lon="5.21171">
        <ele>944.15</ele>
        <time>2017-03-19T10:04:57Z</time>
      </trkpt>
      <trkpt lat="44.99941" lon="5.2119">
        <ele>945.59</ele>
        <time>2017-03-19T10:05:10Z</time>
      </trkpt>
      <trkpt lat="44.99935" lon="5.21207">
        <ele>946.07</ele>
        <time>2017-03-19T10:05:23Z</time>
      </trkpt>
      <trkpt lat="44.99931" lon="5.21218">
        <ele>946.56</ele>
        <time>2017-03-19T10:05:29Z</time>
      </trkpt>
      <trkpt lat="44.99929" lon="5.21222">
        <ele>946.56</ele>
        <time>2017-03-19T10:05:31Z</time>
      </trkpt>
      <trkpt lat="44.99925" lon="5.21232">
        <ele>946.56</ele>
        <time>2017-03-19T10:05:37Z</time>
      </trkpt>
      <trkpt lat="44.99928" lon="5.21251">
        <ele>947.52</ele>
        <time>2017-03-19T10:05:48Z</time>
      </trkpt>
      <trkpt lat="44.99928" lon="5.21256">
        <ele>947.52</ele>
        <time>2017-03-19T10:05:51Z</time>
      </trkpt>
      <trkpt lat="44.99924" lon="5.21271">
        <ele>949.92</ele>
        <time>2017-03-19T10:06:04Z</time>
      </trkpt>
      <trkpt lat="44.99919" lon="5.21285">
        <ele>952.32</ele>
        <time>2017-03-19T10:06:15Z</time>
      </trkpt>
      <trkpt lat="44.99922" lon="5.21299">
        <ele>954.25</ele>
        <time>2017-03-19T10:06:24Z</time>
      </trkpt>
      <trkpt lat="44.99924" lon="5.21309">
        <ele>956.65</ele>
        <time>2017-03-19T10:06:34Z</time>
      </trkpt>
      <trkpt lat="44.99924" lon="5.2131">
        <ele>960.01</ele>
        <time>2017-03-19T10:06:46Z</time>
      </trkpt>
      <trkpt lat="44.99925" lon="5.21325">
        <ele>961.94</ele>
        <time>2017-03-19T10:06:58Z</time>
      </trkpt>
      <trkpt lat="44.9993" lon="5.21338">
        <ele>963.38</ele>
        <time>2017-03-19T10:07:09Z</time>
      </trkpt>
      <trkpt lat="44.99927" lon="5.21347">
        <ele>965.3</ele>
        <time>2017-03-19T10:07:18Z</time>
      </trkpt>
      <trkpt lat="44.9993" lon="5.21356">
        <ele>967.7</ele>
        <time>2017-03-19T10:07:29Z</time>
      </trkpt>
      <trkpt lat="44.99932" lon="5.21364">
        <ele>968.67</ele>
        <time>2017-03-19T10:07:35Z</time>
      </trkpt>
      <trkpt lat="44.99932" lon="5.2137">
        <ele>971.07</ele>
        <time>2017-03-19T10:07:46Z</time>
      </trkpt>
      <trkpt lat="44.99934" lon="5.21382">
        <ele>973.47</ele>
        <time>2017-03-19T10:07:58Z</time>
      </trkpt>
      <trkpt lat="44.99932" lon="5.21388">
        <ele>975.88</ele>
        <time>2017-03-19T10:08:09Z</time>
      </trkpt>
      <trkpt lat="44.99937" lon="5.21401">
        <ele>978.76</ele>
        <time>2017-03-19T10:08:20Z</time>
      </trkpt>
      <trkpt lat="44.99936" lon="5.21407">
        <ele>981.64</ele>
        <time>2017-03-19T10:08:31Z</time>
      </trkpt>
      <trkpt lat="44.99937" lon="5.21411">
        <ele>983.57</ele>
        <time>2017-03-19T10:08:41Z</time>
      </trkpt>
      <trkpt lat="44.99936" lon="5.21419">
        <ele>984.53</ele>
        <time>2017-03-19T10:08:47Z</time>
      </trkpt>
      <trkpt lat="44.99936" lon="5.21428">
        <ele>986.93</ele>
        <time>2017-03-19T10:08:58Z</time>
      </trkpt>
      <trkpt lat="44.99937" lon="5.2144">
        <ele>989.81</ele>
        <time>2017-03-19T10:09:08Z</time>
      </trkpt>
      <trkpt lat="44.99941" lon="5.21451">
        <ele>991.74</ele>
        <time>2017-03-19T10:09:19Z</time>
      </trkpt>
      <trkpt lat="44.9994" lon="5.21465">
        <ele>994.14</ele>
        <time>2017-03-19T10:09:31Z</time>
      </trkpt>
      <trkpt lat="44.99939" lon="5.21477">
        <ele>997.02</ele>
        <time>2017-03-19T10:09:42Z</time>
      </trkpt>
      <trkpt lat="44.99943" lon="5.21484">
        <ele>997.02</ele>
        <time>2017-03-19T10:09:52Z</time>
      </trkpt>
      <trkpt lat="44.99943" lon="5.21487">
        <ele>997.02</ele>
        <time>2017-03-19T10:10:05Z</time>
      </trkpt>
      <trkpt lat="44.99943" lon="5.21486">
        <ele>997.02</ele>
        <time>2017-03-19T10:10:13Z</time>
      </trkpt>
      <trkpt lat="44.99941" lon="5.21485">
        <ele>997.02</ele>
        <time>2017-03-19T10:10:16Z</time>
      </trkpt>
      <trkpt lat="44.99939" lon="5.21484">
        <ele>996.54</ele>
        <time>2017-03-19T10:10:18Z</time>
      </trkpt>
      <trkpt lat="44.99937" lon="5.21485">
        <ele>996.54</ele>
        <time>2017-03-19T10:10:20Z</time>
      </trkpt>
      <trkpt lat="44.99931" lon="5.21487">
        <ele>994.14</ele>
        <time>2017-03-19T10:10:33Z</time>
      </trkpt>
      <trkpt lat="44.99934" lon="5.21485">
        <ele>996.06</ele>
        <time>2017-03-19T10:10:41Z</time>
      </trkpt>
      <trkpt lat="44.99939" lon="5.21487">
        <ele>997.02</ele>
        <time>2017-03-19T10:10:52Z</time>
      </trkpt>
      <trkpt lat="44.99939" lon="5.21487">
        <ele>996.54</ele>
        <time>2017-03-19T10:11:14Z</time>
      </trkpt>
      <trkpt lat="44.99939" lon="5.21487">
        <ele>997.02</ele>
        <time>2017-03-19T10:11:15Z</time>
      </trkpt>
      <trkpt lat="44.9994" lon="5.21489">
        <ele>997.02</ele>
        <time>2017-03-19T10:11:18Z</time>
      </trkpt>
      <trkpt lat="44.99943" lon="5.21492">
        <ele>997.02</ele>
        <time>2017-03-19T10:11:21Z</time>
      </trkpt>
      <trkpt lat="44.99949" lon="5.21498">
        <ele>996.54</ele>
        <time>2017-03-19T10:11:32Z</time>
      </trkpt>
      <trkpt lat="44.99953" lon="5.215">
        <ele>996.54</ele>
        <time>2017-03-19T10:11:37Z</time>
      </trkpt>
      <trkpt lat="44.99955" lon="5.21502">
        <ele>996.54</ele>
        <time>2017-03-19T10:11:39Z</time>
      </trkpt>
      <trkpt lat="44.99959" lon="5.21506">
        <ele>996.54</ele>
        <time>2017-03-19T10:11:43Z</time>
      </trkpt>
      <trkpt lat="44.99969" lon="5.21522">
        <ele>996.06</ele>
        <time>2017-03-19T10:11:55Z</time>
      </trkpt>
      <trkpt lat="44.99975" lon="5.21532">
        <ele>997.02</ele>
        <time>2017-03-19T10:12:02Z</time>
      </trkpt>
      <trkpt lat="44.99981" lon="5.2154">
        <ele>996.54</ele>
        <time>2017-03-19T10:12:08Z</time>
      </trkpt>
      <trkpt lat="44.99984" lon="5.21542">
        <ele>997.02</ele>
        <time>2017-03-19T10:12:11Z</time>
      </trkpt>
      <trkpt lat="44.99989" lon="5.21549">
        <ele>996.54</ele>
        <time>2017-03-19T10:12:15Z</time>
      </trkpt>
      <trkpt lat="44.99995" lon="5.21558">
        <ele>997.51</ele>
        <time>2017-03-19T10:12:24Z</time>
      </trkpt>
      <trkpt lat="44.99997" lon="5.21562">
        <ele>998.95</ele>
        <time>2017-03-19T10:12:28Z</time>
      </trkpt>
      <trkpt lat="45.00003" lon="5.21569">
        <ele>1001.35</ele>
        <time>2017-03-19T10:12:39Z</time>
      </trkpt>
      <trkpt lat="45.00011" lon="5.21581">
        <ele>1003.27</ele>
        <time>2017-03-19T10:12:50Z</time>
      </trkpt>
      <trkpt lat="45.00012" lon="5.21583">
        <ele>1003.27</ele>
        <time>2017-03-19T10:12:51Z</time>
      </trkpt>
      <trkpt lat="45.00011" lon="5.21595">
        <ele>1003.75</ele>
        <time>2017-03-19T10:12:59Z</time>
      </trkpt>
      <trkpt lat="45.00012" lon="5.21598">
        <ele>1004.72</ele>
        <time>2017-03-19T10:13:05Z</time>
      </trkpt>
      <trkpt lat="45.00014" lon="5.21607">
        <ele>1005.68</ele>
        <time>2017-03-19T10:13:15Z</time>
      </trkpt>
      <trkpt lat="45.00013" lon="5.21625">
        <ele>1005.68</ele>
        <time>2017-03-19T10:13:27Z</time>
      </trkpt>
      <trkpt lat="45.00015" lon="5.21634">
        <ele>1006.16</ele>
        <time>2017-03-19T10:13:32Z</time>
      </trkpt>
      <trkpt lat="45.00013" lon="5.21642">
        <ele>1006.64</ele>
        <time>2017-03-19T10:13:37Z</time>
      </trkpt>
      <trkpt lat="45.00009" lon="5.21657">
        <ele>1007.12</ele>
        <time>2017-03-19T10:13:48Z</time>
      </trkpt>
      <trkpt lat="45.00008" lon="5.21679">
        <ele>1007.6</ele>
        <time>2017-03-19T10:13:59Z</time>
      </trkpt>
      <trkpt lat="45.00007" lon="5.21682">
        <ele>1009.04</ele>
        <time>2017-03-19T10:14:06Z</time>
      </trkpt>
      <trkpt lat="45.00001" lon="5.21698">
        <ele>1010</ele>
        <time>2017-03-19T10:14:17Z</time>
      </trkpt>
      <trkpt lat="44.99999" lon="5.21714">
        <ele>1011.44</ele>
        <time>2017-03-19T10:14:28Z</time>
      </trkpt>
      <trkpt lat="44.99997" lon="5.21733">
        <ele>1012.41</ele>
        <time>2017-03-19T10:14:39Z</time>
      </trkpt>
      <trkpt lat="44.99998" lon="5.21736">
        <ele>1012.41</ele>
        <time>2017-03-19T10:14:40Z</time>
      </trkpt>
      <trkpt lat="44.99999" lon="5.21757">
        <ele>1013.37</ele>
        <time>2017-03-19T10:14:52Z</time>
      </trkpt>
      <trkpt lat="45" lon="5.21765">
        <ele>1013.85</ele>
        <time>2017-03-19T10:15:03Z</time>
      </trkpt>
      <trkpt lat="45" lon="5.2177">
        <ele>1013.37</ele>
        <time>2017-03-19T10:15:06Z</time>
      </trkpt>
      <trkpt lat="45" lon="5.21786">
        <ele>1013.85</ele>
        <time>2017-03-19T10:15:20Z</time>
      </trkpt>
      <trkpt lat="45.00001" lon="5.21789">
        <ele>1013.85</ele>
        <time>2017-03-19T10:15:23Z</time>
      </trkpt>
      <trkpt lat="45.00004" lon="5.21803">
        <ele>1014.33</ele>
        <time>2017-03-19T10:15:30Z</time>
      </trkpt>
      <trkpt lat="45.00004" lon="5.21815">
        <ele>1014.81</ele>
        <time>2017-03-19T10:15:39Z</time>
      </trkpt>
      <trkpt lat="45.00006" lon="5.21835">
        <ele>1015.77</ele>
        <time>2017-03-19T10:15:51Z</time>
      </trkpt>
      <trkpt lat="45.00007" lon="5.21849">
        <ele>1016.25</ele>
        <time>2017-03-19T10:16:00Z</time>
      </trkpt>
      <trkpt lat="45.00011" lon="5.2187">
        <ele>1017.69</ele>
        <time>2017-03-19T10:16:12Z</time>
      </trkpt>
      <trkpt lat="45.00013" lon="5.21876">
        <ele>1018.65</ele>
        <time>2017-03-19T10:16:16Z</time>
      </trkpt>
      <trkpt lat="45.00016" lon="5.21888">
        <ele>1019.13</ele>
        <time>2017-03-19T10:16:23Z</time>
      </trkpt>
      <trkpt lat="45.00016" lon="5.21891">
        <ele>1019.62</ele>
        <time>2017-03-19T10:16:24Z</time>
      </trkpt>
      <trkpt lat="45.00016" lon="5.21896">
        <ele>1019.62</ele>
        <time>2017-03-19T10:16:27Z</time>
      </trkpt>
      <trkpt lat="45.00016" lon="5.2191">
        <ele>1020.58</ele>
        <time>2017-03-19T10:16:34Z</time>
      </trkpt>
      <trkpt lat="45.00013" lon="5.21926">
        <ele>1021.54</ele>
        <time>2017-03-19T10:16:46Z</time>
      </trkpt>
      <trkpt lat="45.00012" lon="5.21946">
        <ele>1022.5</ele>
        <time>2017-03-19T10:16:55Z</time>
      </trkpt>
      <trkpt lat="45.00009" lon="5.21958">
        <ele>1023.46</ele>
        <time>2017-03-19T10:17:06Z</time>
      </trkpt>
      <trkpt lat="45.00008" lon="5.21972">
        <ele>1024.42</ele>
        <time>2017-03-19T10:17:18Z</time>
      </trkpt>
      <trkpt lat="45.00007" lon="5.21979">
        <ele>1025.38</ele>
        <time>2017-03-19T10:17:35Z</time>
      </trkpt>
      <trkpt lat="44.99998" lon="5.21988">
        <ele>1025.86</ele>
        <time>2017-03-19T10:17:45Z</time>
      </trkpt>
      <trkpt lat="44.99995" lon="5.2199">
        <ele>1026.83</ele>
        <time>2017-03-19T10:17:49Z</time>
      </trkpt>
      <trkpt lat="44.9999" lon="5.22001">
        <ele>1027.31</ele>
        <time>2017-03-19T10:17:57Z</time>
      </trkpt>
      <trkpt lat="44.99978" lon="5.22011">
        <ele>1027.31</ele>
        <time>2017-03-19T10:18:10Z</time>
      </trkpt>
      <trkpt lat="44.99976" lon="5.22018">
        <ele>1027.31</ele>
        <time>2017-03-19T10:18:19Z</time>
      </trkpt>
      <trkpt lat="44.99975" lon="5.2202">
        <ele>1027.31</ele>
        <time>2017-03-19T10:18:21Z</time>
      </trkpt>
      <trkpt lat="44.99965" lon="5.22022">
        <ele>1028.75</ele>
        <time>2017-03-19T10:18:31Z</time>
      </trkpt>
      <trkpt lat="44.99958" lon="5.22036">
        <ele>1029.23</ele>
        <time>2017-03-19T10:18:45Z</time>
      </trkpt>
      <trkpt lat="44.99952" lon="5.22038">
        <ele>1032.11</ele>
        <time>2017-03-19T10:18:57Z</time>
      </trkpt>
      <trkpt lat="44.99939" lon="5.22038">
        <ele>1034.52</ele>
        <time>2017-03-19T10:19:10Z</time>
      </trkpt>
      <trkpt lat="44.99932" lon="5.22036">
        <ele>1036.92</ele>
        <time>2017-03-19T10:19:21Z</time>
      </trkpt>
      <trkpt lat="44.99928" lon="5.2204">
        <ele>1039.32</ele>
        <time>2017-03-19T10:19:32Z</time>
      </trkpt>
      <trkpt lat="44.9992" lon="5.22044">
        <ele>1041.73</ele>
        <time>2017-03-19T10:19:43Z</time>
      </trkpt>
      <trkpt lat="44.99907" lon="5.22044">
        <ele>1043.17</ele>
        <time>2017-03-19T10:19:56Z</time>
      </trkpt>
      <trkpt lat="44.99892" lon="5.22039">
        <ele>1045.57</ele>
        <time>2017-03-19T10:20:07Z</time>
      </trkpt>
      <trkpt lat="44.9988" lon="5.22038">
        <ele>1046.53</ele>
        <time>2017-03-19T10:20:18Z</time>
      </trkpt>
      <trkpt lat="44.99877" lon="5.22038">
        <ele>1047.49</ele>
        <time>2017-03-19T10:20:20Z</time>
      </trkpt>
      <trkpt lat="44.99871" lon="5.22039">
        <ele>1048.45</ele>
        <time>2017-03-19T10:20:31Z</time>
      </trkpt>
      <trkpt lat="44.99867" lon="5.2204">
        <ele>1050.38</ele>
        <time>2017-03-19T10:20:47Z</time>
      </trkpt>
      <trkpt lat="44.99864" lon="5.22044">
        <ele>1051.82</ele>
        <time>2017-03-19T10:20:59Z</time>
      </trkpt>
      <trkpt lat="44.99859" lon="5.22049">
        <ele>1053.26</ele>
        <time>2017-03-19T10:21:15Z</time>
      </trkpt>
      <trkpt lat="44.99847" lon="5.22059">
        <ele>1055.67</ele>
        <time>2017-03-19T10:21:26Z</time>
      </trkpt>
      <trkpt lat="44.99842" lon="5.22063">
        <ele>1056.63</ele>
        <time>2017-03-19T10:21:33Z</time>
      </trkpt>
      <trkpt lat="44.99831" lon="5.2206">
        <ele>1059.03</ele>
        <time>2017-03-19T10:21:46Z</time>
      </trkpt>
      <trkpt lat="44.99828" lon="5.22061">
        <ele>1059.99</ele>
        <time>2017-03-19T10:21:50Z</time>
      </trkpt>
      <trkpt lat="44.99821" lon="5.22061">
        <ele>1061.43</ele>
        <time>2017-03-19T10:21:55Z</time>
      </trkpt>
      <trkpt lat="44.99815" lon="5.22064">
        <ele>1063.36</ele>
        <time>2017-03-19T10:22:07Z</time>
      </trkpt>
      <trkpt lat="44.99815" lon="5.22064">
        <ele>1063.84</ele>
        <time>2017-03-19T10:22:30Z</time>
      </trkpt>
      <trkpt lat="44.99815" lon="5.22064">
        <ele>1063.84</ele>
        <time>2017-03-19T10:22:48Z</time>
      </trkpt>
      <trkpt lat="44.99815" lon="5.22064">
        <ele>1064.32</ele>
        <time>2017-03-19T10:23:19Z</time>
      </trkpt>
      <trkpt lat="44.99813" lon="5.22064">
        <ele>1065.28</ele>
        <time>2017-03-19T10:23:33Z</time>
      </trkpt>
      <trkpt lat="44.99805" lon="5.22065">
        <ele>1066.24</ele>
        <time>2017-03-19T10:23:39Z</time>
      </trkpt>
      <trkpt lat="44.99796" lon="5.22074">
        <ele>1068.16</ele>
        <time>2017-03-19T10:23:51Z</time>
      </trkpt>
      <trkpt lat="44.99797" lon="5.2209">
        <ele>1070.57</ele>
        <time>2017-03-19T10:24:03Z</time>
      </trkpt>
      <trkpt lat="44.99801" lon="5.221">
        <ele>1072.97</ele>
        <time>2017-03-19T10:24:16Z</time>
      </trkpt>
      <trkpt lat="44.99802" lon="5.22106">
        <ele>1075.85</ele>
        <time>2017-03-19T10:24:31Z</time>
      </trkpt>
      <trkpt lat="44.99802" lon="5.22106">
        <ele>1075.85</ele>
        <time>2017-03-19T10:24:56Z</time>
      </trkpt>
      <trkpt lat="44.99803" lon="5.22106">
        <ele>1075.37</ele>
        <time>2017-03-19T10:25:33Z</time>
      </trkpt>
      <trkpt lat="44.99803" lon="5.22105">
        <ele>1074.89</ele>
        <time>2017-03-19T10:26:00Z</time>
      </trkpt>
      <trkpt lat="44.99804" lon="5.22104">
        <ele>1075.37</ele>
        <time>2017-03-19T10:26:02Z</time>
      </trkpt>
      <trkpt lat="44.99829" lon="5.22117">
        <ele>1076.33</ele>
        <time>2017-03-19T10:27:35Z</time>
      </trkpt>
      <trkpt lat="44.99826" lon="5.22115">
        <ele>1076.33</ele>
        <time>2017-03-19T10:27:36Z</time>
      </trkpt>
      <trkpt lat="44.99809" lon="5.2212">
        <ele>1077.29</ele>
        <time>2017-03-19T10:27:52Z</time>
      </trkpt>
      <trkpt lat="44.99811" lon="5.22129">
        <ele>1079.22</ele>
        <time>2017-03-19T10:28:03Z</time>
      </trkpt>
      <trkpt lat="44.99821" lon="5.22136">
        <ele>1080.66</ele>
        <time>2017-03-19T10:28:15Z</time>
      </trkpt>
      <trkpt lat="44.99826" lon="5.22144">
        <ele>1082.58</ele>
        <time>2017-03-19T10:28:24Z</time>
      </trkpt>
      <trkpt lat="44.99831" lon="5.22145">
        <ele>1083.06</ele>
        <time>2017-03-19T10:28:28Z</time>
      </trkpt>
      <trkpt lat="44.9984" lon="5.22152">
        <ele>1084.5</ele>
        <time>2017-03-19T10:28:38Z</time>
      </trkpt>
      <trkpt lat="44.99849" lon="5.22155">
        <ele>1085.47</ele>
        <time>2017-03-19T10:28:49Z</time>
      </trkpt>
      <trkpt lat="44.99854" lon="5.22162">
        <ele>1087.87</ele>
        <time>2017-03-19T10:29:03Z</time>
      </trkpt>
      <trkpt lat="44.99865" lon="5.2217">
        <ele>1090.27</ele>
        <time>2017-03-19T10:29:15Z</time>
      </trkpt>
      <trkpt lat="44.99868" lon="5.22173">
        <ele>1091.23</ele>
        <time>2017-03-19T10:29:19Z</time>
      </trkpt>
      <trkpt lat="44.99877" lon="5.22183">
        <ele>1092.68</ele>
        <time>2017-03-19T10:29:30Z</time>
      </trkpt>
      <trkpt lat="44.99884" lon="5.22185">
        <ele>1094.12</ele>
        <time>2017-03-19T10:29:41Z</time>
      </trkpt>
      <trkpt lat="44.99892" lon="5.22194">
        <ele>1095.56</ele>
        <time>2017-03-19T10:29:50Z</time>
      </trkpt>
      <trkpt lat="44.99903" lon="5.22201">
        <ele>1097.96</ele>
        <time>2017-03-19T10:30:02Z</time>
      </trkpt>
      <trkpt lat="44.99911" lon="5.22206">
        <ele>1100.37</ele>
        <time>2017-03-19T10:30:14Z</time>
      </trkpt>
      <trkpt lat="44.99923" lon="5.22212">
        <ele>1100.85</ele>
        <time>2017-03-19T10:30:27Z</time>
      </trkpt>
      <trkpt lat="44.99926" lon="5.22214">
        <ele>1101.81</ele>
        <time>2017-03-19T10:30:31Z</time>
      </trkpt>
      <trkpt lat="44.99934" lon="5.22219">
        <ele>1102.77</ele>
        <time>2017-03-19T10:30:42Z</time>
      </trkpt>
      <trkpt lat="44.99937" lon="5.22219">
        <ele>1101.81</ele>
        <time>2017-03-19T10:30:53Z</time>
      </trkpt>
      <trkpt lat="44.99956" lon="5.22225">
        <ele>1104.69</ele>
        <time>2017-03-19T10:33:11Z</time>
      </trkpt>
      <trkpt lat="44.99955" lon="5.22224">
        <ele>1104.69</ele>
        <time>2017-03-19T10:33:12Z</time>
      </trkpt>
      <trkpt lat="44.99957" lon="5.22224">
        <ele>1104.69</ele>
        <time>2017-03-19T10:33:25Z</time>
      </trkpt>
      <trkpt lat="44.99962" lon="5.22231">
        <ele>1106.61</ele>
        <time>2017-03-19T10:33:33Z</time>
      </trkpt>
      <trkpt lat="44.99963" lon="5.22235">
        <ele>1107.1</ele>
        <time>2017-03-19T10:33:35Z</time>
      </trkpt>
      <trkpt lat="44.99971" lon="5.22241">
        <ele>1109.02</ele>
        <time>2017-03-19T10:33:46Z</time>
      </trkpt>
      <trkpt lat="44.99983" lon="5.22244">
        <ele>1109.98</ele>
        <time>2017-03-19T10:33:56Z</time>
      </trkpt>
      <trkpt lat="44.99995" lon="5.22245">
        <ele>1111.9</ele>
        <time>2017-03-19T10:34:08Z</time>
      </trkpt>
      <trkpt lat="45.00013" lon="5.22242">
        <ele>1113.82</ele>
        <time>2017-03-19T10:34:19Z</time>
      </trkpt>
      <trkpt lat="45.00024" lon="5.22239">
        <ele>1114.79</ele>
        <time>2017-03-19T10:34:30Z</time>
      </trkpt>
      <trkpt lat="45.00033" lon="5.22238">
        <ele>1116.71</ele>
        <time>2017-03-19T10:34:41Z</time>
      </trkpt>
      <trkpt lat="45.00043" lon="5.22235">
        <ele>1117.67</ele>
        <time>2017-03-19T10:34:48Z</time>
      </trkpt>
      <trkpt lat="45.00052" lon="5.22236">
        <ele>1119.59</ele>
        <time>2017-03-19T10:34:59Z</time>
      </trkpt>
      <trkpt lat="45.00057" lon="5.22231">
        <ele>1120.55</ele>
        <time>2017-03-19T10:35:09Z</time>
      </trkpt>
      <trkpt lat="45.00058" lon="5.22231">
        <ele>1120.55</ele>
        <time>2017-03-19T10:35:10Z</time>
      </trkpt>
      <trkpt lat="45.00067" lon="5.22222">
        <ele>1122</ele>
        <time>2017-03-19T10:35:22Z</time>
      </trkpt>
      <trkpt lat="45.00075" lon="5.22215">
        <ele>1123.92</ele>
        <time>2017-03-19T10:35:37Z</time>
      </trkpt>
      <trkpt lat="45.00083" lon="5.22205">
        <ele>1126.32</ele>
        <time>2017-03-19T10:35:51Z</time>
      </trkpt>
      <trkpt lat="45.00095" lon="5.22194">
        <ele>1127.76</ele>
        <time>2017-03-19T10:36:03Z</time>
      </trkpt>
      <trkpt lat="45.001" lon="5.22193">
        <ele>1129.69</ele>
        <time>2017-03-19T10:36:21Z</time>
      </trkpt>
      <trkpt lat="45.00097" lon="5.22192">
        <ele>1129.21</ele>
        <time>2017-03-19T10:36:37Z</time>
      </trkpt>
      <trkpt lat="45.00096" lon="5.22193">
        <ele>1129.21</ele>
        <time>2017-03-19T10:37:05Z</time>
      </trkpt>
      <trkpt lat="45.00099" lon="5.22191">
        <ele>1130.17</ele>
        <time>2017-03-19T10:37:23Z</time>
      </trkpt>
      <trkpt lat="45.00104" lon="5.22185">
        <ele>1132.57</ele>
        <time>2017-03-19T10:37:49Z</time>
      </trkpt>
      <trkpt lat="45.00113" lon="5.2217">
        <ele>1134.97</ele>
        <time>2017-03-19T10:38:00Z</time>
      </trkpt>
      <trkpt lat="45.00118" lon="5.22169">
        <ele>1136.42</ele>
        <time>2017-03-19T10:38:08Z</time>
      </trkpt>
      <trkpt lat="45.00124" lon="5.22167">
        <ele>1136.9</ele>
        <time>2017-03-19T10:38:14Z</time>
      </trkpt>
      <trkpt lat="45.00125" lon="5.22164">
        <ele>1135.94</ele>
        <time>2017-03-19T10:38:16Z</time>
      </trkpt>
      <trkpt lat="45.00128" lon="5.2216">
        <ele>1136.42</ele>
        <time>2017-03-19T10:38:20Z</time>
      </trkpt>
      <trkpt lat="45.00134" lon="5.22152">
        <ele>1134.49</ele>
        <time>2017-03-19T10:38:28Z</time>
      </trkpt>
      <trkpt lat="45.00135" lon="5.22147">
        <ele>1135.45</ele>
        <time>2017-03-19T10:38:41Z</time>
      </trkpt>
      <trkpt lat="45.00135" lon="5.22149">
        <ele>1135.45</ele>
        <time>2017-03-19T10:38:53Z</time>
      </trkpt>
      <trkpt lat="45.00135" lon="5.22149">
        <ele>1135.45</ele>
        <time>2017-03-19T10:39:14Z</time>
      </trkpt>
      <trkpt lat="45.00132" lon="5.22154">
        <ele>1135.45</ele>
        <time>2017-03-19T10:39:24Z</time>
      </trkpt>
      <trkpt lat="45.0013" lon="5.22158">
        <ele>1135.94</ele>
        <time>2017-03-19T10:39:27Z</time>
      </trkpt>
      <trkpt lat="45.00128" lon="5.22161">
        <ele>1136.42</ele>
        <time>2017-03-19T10:39:30Z</time>
      </trkpt>
      <trkpt lat="45.00126" lon="5.22167">
        <ele>1137.38</ele>
        <time>2017-03-19T10:39:35Z</time>
      </trkpt>
      <trkpt lat="45.00123" lon="5.22171">
        <ele>1137.38</ele>
        <time>2017-03-19T10:39:39Z</time>
      </trkpt>
      <trkpt lat="45.00121" lon="5.22173">
        <ele>1137.38</ele>
        <time>2017-03-19T10:39:42Z</time>
      </trkpt>
      <trkpt lat="45.0012" lon="5.22181">
        <ele>1138.34</ele>
        <time>2017-03-19T10:39:53Z</time>
      </trkpt>
      <trkpt lat="45.0012" lon="5.22182">
        <ele>1137.38</ele>
        <time>2017-03-19T10:40:15Z</time>
      </trkpt>
      <trkpt lat="45.0012" lon="5.22182">
        <ele>1137.38</ele>
        <time>2017-03-19T10:40:43Z</time>
      </trkpt>
      <trkpt lat="45.0012" lon="5.22182">
        <ele>1137.38</ele>
        <time>2017-03-19T10:41:03Z</time>
      </trkpt>
      <trkpt lat="45.00119" lon="5.22182">
        <ele>1139.78</ele>
        <time>2017-03-19T10:41:28Z</time>
      </trkpt>
      <trkpt lat="45.00119" lon="5.22184">
        <ele>1137.38</ele>
        <time>2017-03-19T10:41:42Z</time>
      </trkpt>
      <trkpt lat="45.00119" lon="5.22184">
        <ele>1137.38</ele>
        <time>2017-03-19T10:42:08Z</time>
      </trkpt>
      <trkpt lat="45.0012" lon="5.22184">
        <ele>1136.9</ele>
        <time>2017-03-19T10:42:24Z</time>
      </trkpt>
      <trkpt lat="45.0012" lon="5.22184">
        <ele>1137.86</ele>
        <time>2017-03-19T10:42:36Z</time>
      </trkpt>
      <trkpt lat="45.00122" lon="5.22187">
        <ele>1137.86</ele>
        <time>2017-03-19T10:42:39Z</time>
      </trkpt>
      <trkpt lat="45.0013" lon="5.22205">
        <ele>1138.34</ele>
        <time>2017-03-19T10:42:51Z</time>
      </trkpt>
      <trkpt lat="45.00134" lon="5.2221">
        <ele>1138.34</ele>
        <time>2017-03-19T10:42:55Z</time>
      </trkpt>
      <trkpt lat="45.00136" lon="5.22213">
        <ele>1136.9</ele>
        <time>2017-03-19T10:42:57Z</time>
      </trkpt>
      <trkpt lat="45.00136" lon="5.22218">
        <ele>1138.34</ele>
        <time>2017-03-19T10:43:00Z</time>
      </trkpt>
      <trkpt lat="45.00135" lon="5.22225">
        <ele>1138.34</ele>
        <time>2017-03-19T10:43:04Z</time>
      </trkpt>
      <trkpt lat="45.00138" lon="5.22238">
        <ele>1140.26</ele>
        <time>2017-03-19T10:43:14Z</time>
      </trkpt>
      <trkpt lat="45.00135" lon="5.22244">
        <ele>1140.74</ele>
        <time>2017-03-19T10:43:20Z</time>
      </trkpt>
      <trkpt lat="45.00134" lon="5.22249">
        <ele>1141.7</ele>
        <time>2017-03-19T10:43:24Z</time>
      </trkpt>
      <trkpt lat="45.00132" lon="5.22255">
        <ele>1142.66</ele>
        <time>2017-03-19T10:43:28Z</time>
      </trkpt>
      <trkpt lat="45.00131" lon="5.22258">
        <ele>1142.66</ele>
        <time>2017-03-19T10:43:31Z</time>
      </trkpt>
      <trkpt lat="45.0013" lon="5.22263">
        <ele>1143.63</ele>
        <time>2017-03-19T10:43:35Z</time>
      </trkpt>
      <trkpt lat="45.00126" lon="5.22278">
        <ele>1146.99</ele>
        <time>2017-03-19T10:43:46Z</time>
      </trkpt>
      <trkpt lat="45.00125" lon="5.22282">
        <ele>1146.99</ele>
        <time>2017-03-19T10:43:50Z</time>
      </trkpt>
      <trkpt lat="45.00124" lon="5.22284">
        <ele>1147.95</ele>
        <time>2017-03-19T10:43:57Z</time>
      </trkpt>
      <trkpt lat="45.00125" lon="5.22288">
        <ele>1147.95</ele>
        <time>2017-03-19T10:43:59Z</time>
      </trkpt>
      <trkpt lat="45.00123" lon="5.22296">
        <ele>1148.91</ele>
        <time>2017-03-19T10:44:08Z</time>
      </trkpt>
      <trkpt lat="45.00122" lon="5.223">
        <ele>1149.39</ele>
        <time>2017-03-19T10:44:21Z</time>
      </trkpt>
      <trkpt lat="45.00121" lon="5.22309">
        <ele>1151.32</ele>
        <time>2017-03-19T10:44:27Z</time>
      </trkpt>
      <trkpt lat="45.0012" lon="5.22314">
        <ele>1151.8</ele>
        <time>2017-03-19T10:44:30Z</time>
      </trkpt>
      <trkpt lat="45.00117" lon="5.22323">
        <ele>1152.76</ele>
        <time>2017-03-19T10:44:35Z</time>
      </trkpt>
      <trkpt lat="45.00115" lon="5.22332">
        <ele>1154.2</ele>
        <time>2017-03-19T10:44:42Z</time>
      </trkpt>
      <trkpt lat="45.00112" lon="5.22338">
        <ele>1155.16</ele>
        <time>2017-03-19T10:44:48Z</time>
      </trkpt>
      <trkpt lat="45.00107" lon="5.22347">
        <ele>1157.56</ele>
        <time>2017-03-19T10:44:58Z</time>
      </trkpt>
      <trkpt lat="45.00105" lon="5.22351">
        <ele>1158.05</ele>
        <time>2017-03-19T10:45:01Z</time>
      </trkpt>
      <trkpt lat="45.00102" lon="5.22356">
        <ele>1159.49</ele>
        <time>2017-03-19T10:45:08Z</time>
      </trkpt>
      <trkpt lat="45.00098" lon="5.22362">
        <ele>1160.93</ele>
        <time>2017-03-19T10:45:14Z</time>
      </trkpt>
      <trkpt lat="45.00096" lon="5.22364">
        <ele>1160.93</ele>
        <time>2017-03-19T10:45:17Z</time>
      </trkpt>
      <trkpt lat="45.00095" lon="5.22371">
        <ele>1161.89</ele>
        <time>2017-03-19T10:45:27Z</time>
      </trkpt>
      <trkpt lat="45.0009" lon="5.2238">
        <ele>1164.77</ele>
        <time>2017-03-19T10:45:37Z</time>
      </trkpt>
      <trkpt lat="45.00085" lon="5.22388">
        <ele>1166.22</ele>
        <time>2017-03-19T10:45:45Z</time>
      </trkpt>
      <trkpt lat="45.00084" lon="5.22391">
        <ele>1166.7</ele>
        <time>2017-03-19T10:45:48Z</time>
      </trkpt>
      <trkpt lat="45.00081" lon="5.22392">
        <ele>1167.66</ele>
        <time>2017-03-19T10:45:51Z</time>
      </trkpt>
      <trkpt lat="45.00077" lon="5.22397">
        <ele>1168.62</ele>
        <time>2017-03-19T10:45:57Z</time>
      </trkpt>
      <trkpt lat="45.00076" lon="5.22399">
        <ele>1170.06</ele>
        <time>2017-03-19T10:46:01Z</time>
      </trkpt>
      <trkpt lat="45.0007" lon="5.22408">
        <ele>1172.95</ele>
        <time>2017-03-19T10:46:11Z</time>
      </trkpt>
      <trkpt lat="45.00068" lon="5.22411">
        <ele>1173.91</ele>
        <time>2017-03-19T10:46:16Z</time>
      </trkpt>
      <trkpt lat="45.00066" lon="5.22413">
        <ele>1174.87</ele>
        <time>2017-03-19T10:46:19Z</time>
      </trkpt>
      <trkpt lat="45.00064" lon="5.22422">
        <ele>1176.31</ele>
        <time>2017-03-19T10:46:28Z</time>
      </trkpt>
      <trkpt lat="45.00061" lon="5.22429">
        <ele>1178.71</ele>
        <time>2017-03-19T10:46:37Z</time>
      </trkpt>
      <trkpt lat="45.00061" lon="5.2243">
        <ele>1176.79</ele>
        <time>2017-03-19T10:46:41Z</time>
      </trkpt>
      <trkpt lat="45.00061" lon="5.2243">
        <ele>1176.79</ele>
        <time>2017-03-19T10:47:08Z</time>
      </trkpt>
      <trkpt lat="45.00061" lon="5.2243">
        <ele>1177.75</ele>
        <time>2017-03-19T10:47:33Z</time>
      </trkpt>
      <trkpt lat="45.0006" lon="5.2243">
        <ele>1177.75</ele>
        <time>2017-03-19T10:47:35Z</time>
      </trkpt>
      <trkpt lat="45.00054" lon="5.22437">
        <ele>1181.6</ele>
        <time>2017-03-19T10:47:44Z</time>
      </trkpt>
      <trkpt lat="45.00053" lon="5.22439">
        <ele>1181.6</ele>
        <time>2017-03-19T10:47:46Z</time>
      </trkpt>
      <trkpt lat="45.00046" lon="5.22446">
        <ele>1184.48</ele>
        <time>2017-03-19T10:47:57Z</time>
      </trkpt>
      <trkpt lat="45.00044" lon="5.22447">
        <ele>1184.96</ele>
        <time>2017-03-19T10:47:59Z</time>
      </trkpt>
      <trkpt lat="45.00042" lon="5.22451">
        <ele>1186.88</ele>
        <time>2017-03-19T10:48:10Z</time>
      </trkpt>
      <trkpt lat="45.00039" lon="5.22455">
        <ele>1189.29</ele>
        <time>2017-03-19T10:48:19Z</time>
      </trkpt>
      <trkpt lat="45.00035" lon="5.22465">
        <ele>1190.25</ele>
        <time>2017-03-19T10:48:29Z</time>
      </trkpt>
      <trkpt lat="45.00035" lon="5.22466">
        <ele>1191.21</ele>
        <time>2017-03-19T10:48:30Z</time>
      </trkpt>
      <trkpt lat="45.00031" lon="5.22475">
        <ele>1193.61</ele>
        <time>2017-03-19T10:48:42Z</time>
      </trkpt>
      <trkpt lat="45.00029" lon="5.2248">
        <ele>1196.98</ele>
        <time>2017-03-19T10:48:47Z</time>
      </trkpt>
      <trkpt lat="45.00028" lon="5.22481">
        <ele>1186.4</ele>
        <time>2017-03-19T10:48:48Z</time>
      </trkpt>
      <trkpt lat="45.00028" lon="5.22481">
        <ele>1201.3</ele>
        <time>2017-03-19T10:48:49Z</time>
      </trkpt>
      <trkpt lat="45.00028" lon="5.22482">
        <ele>1192.65</ele>
        <time>2017-03-19T10:48:50Z</time>
      </trkpt>
      <trkpt lat="45.00027" lon="5.22483">
        <ele>1188.81</ele>
        <time>2017-03-19T10:48:51Z</time>
      </trkpt>
      <trkpt lat="45.00026" lon="5.22484">
        <ele>1205.15</ele>
        <time>2017-03-19T10:48:52Z</time>
      </trkpt>
      <trkpt lat="45.00025" lon="5.22484">
        <ele>1199.86</ele>
        <time>2017-03-19T10:48:53Z</time>
      </trkpt>
      <trkpt lat="45.00025" lon="5.22485">
        <ele>1194.09</ele>
        <time>2017-03-19T10:48:54Z</time>
      </trkpt>
      <trkpt lat="45.00025" lon="5.22486">
        <ele>1203.23</ele>
        <time>2017-03-19T10:48:55Z</time>
      </trkpt>
      <trkpt lat="45.00024" lon="5.22486">
        <ele>1197.46</ele>
        <time>2017-03-19T10:48:56Z</time>
      </trkpt>
      <trkpt lat="45.00021" lon="5.22492">
        <ele>1200.34</ele>
        <time>2017-03-19T10:49:07Z</time>
      </trkpt>
      <trkpt lat="45.00017" lon="5.22498">
        <ele>1202.27</ele>
        <time>2017-03-19T10:49:18Z</time>
      </trkpt>
      <trkpt lat="45.00015" lon="5.22502">
        <ele>1203.71</ele>
        <time>2017-03-19T10:49:22Z</time>
      </trkpt>
      <trkpt lat="45.00009" lon="5.22507">
        <ele>1205.63</ele>
        <time>2017-03-19T10:49:33Z</time>
      </trkpt>
      <trkpt lat="45.00007" lon="5.2251">
        <ele>1207.07</ele>
        <time>2017-03-19T10:49:38Z</time>
      </trkpt>
      <trkpt lat="45.00006" lon="5.22514">
        <ele>1208.03</ele>
        <time>2017-03-19T10:49:43Z</time>
      </trkpt>
      <trkpt lat="45.00002" lon="5.22519">
        <ele>1209.96</ele>
        <time>2017-03-19T10:49:51Z</time>
      </trkpt>
      <trkpt lat="44.99998" lon="5.22525">
        <ele>1211.88</ele>
        <time>2017-03-19T10:50:00Z</time>
      </trkpt>
      <trkpt lat="44.99997" lon="5.22525">
        <ele>1211.88</ele>
        <time>2017-03-19T10:50:02Z</time>
      </trkpt>
      <trkpt lat="44.99993" lon="5.22531">
        <ele>1214.76</ele>
        <time>2017-03-19T10:50:10Z</time>
      </trkpt>
      <trkpt lat="44.99991" lon="5.22536">
        <ele>1216.69</ele>
        <time>2017-03-19T10:50:20Z</time>
      </trkpt>
      <trkpt lat="44.99991" lon="5.22543">
        <ele>1219.09</ele>
        <time>2017-03-19T10:50:30Z</time>
      </trkpt>
      <trkpt lat="44.99989" lon="5.22549">
        <ele>1221.01</ele>
        <time>2017-03-19T10:50:39Z</time>
      </trkpt>
      <trkpt lat="44.99985" lon="5.22552">
        <ele>1223.9</ele>
        <time>2017-03-19T10:50:50Z</time>
      </trkpt>
      <trkpt lat="44.99982" lon="5.22557">
        <ele>1226.78</ele>
        <time>2017-03-19T10:51:03Z</time>
      </trkpt>
      <trkpt lat="44.99979" lon="5.22566">
        <ele>1229.66</ele>
        <time>2017-03-19T10:51:16Z</time>
      </trkpt>
      <trkpt lat="44.99976" lon="5.22571">
        <ele>1232.07</ele>
        <time>2017-03-19T10:51:28Z</time>
      </trkpt>
      <trkpt lat="44.99977" lon="5.22573">
        <ele>1232.55</ele>
        <time>2017-03-19T10:51:40Z</time>
      </trkpt>
      <trkpt lat="44.99977" lon="5.22573">
        <ele>1232.07</ele>
        <time>2017-03-19T10:52:06Z</time>
      </trkpt>
      <trkpt lat="44.99975" lon="5.22578">
        <ele>1233.03</ele>
        <time>2017-03-19T10:52:37Z</time>
      </trkpt>
      <trkpt lat="44.99974" lon="5.22588">
        <ele>1234.95</ele>
        <time>2017-03-19T10:52:50Z</time>
      </trkpt>
      <trkpt lat="44.99975" lon="5.226">
        <ele>1237.83</ele>
        <time>2017-03-19T10:53:05Z</time>
      </trkpt>
      <trkpt lat="44.99975" lon="5.22607">
        <ele>1240.24</ele>
        <time>2017-03-19T10:53:18Z</time>
      </trkpt>
      <trkpt lat="44.99977" lon="5.22617">
        <ele>1243.12</ele>
        <time>2017-03-19T10:53:33Z</time>
      </trkpt>
      <trkpt lat="44.99978" lon="5.22616">
        <ele>1243.12</ele>
        <time>2017-03-19T10:53:52Z</time>
      </trkpt>
      <trkpt lat="44.99978" lon="5.22616">
        <ele>1242.64</ele>
        <time>2017-03-19T10:54:18Z</time>
      </trkpt>
      <trkpt lat="44.99979" lon="5.22614">
        <ele>1242.64</ele>
        <time>2017-03-19T10:54:41Z</time>
      </trkpt>
      <trkpt lat="44.99979" lon="5.22614">
        <ele>1242.64</ele>
        <time>2017-03-19T10:55:01Z</time>
      </trkpt>
      <trkpt lat="44.99979" lon="5.22614">
        <ele>1242.64</ele>
        <time>2017-03-19T10:55:29Z</time>
      </trkpt>
      <trkpt lat="44.99979" lon="5.22615">
        <ele>1242.16</ele>
        <time>2017-03-19T10:55:51Z</time>
      </trkpt>
      <trkpt lat="44.99983" lon="5.22626">
        <ele>1244.56</ele>
        <time>2017-03-19T10:56:03Z</time>
      </trkpt>
      <trkpt lat="44.99985" lon="5.22633">
        <ele>1246.97</ele>
        <time>2017-03-19T10:56:17Z</time>
      </trkpt>
      <trkpt lat="44.99987" lon="5.22637">
        <ele>1250.33</ele>
        <time>2017-03-19T10:56:32Z</time>
      </trkpt>
      <trkpt lat="44.99993" lon="5.22648">
        <ele>1253.22</ele>
        <time>2017-03-19T10:56:47Z</time>
      </trkpt>
      <trkpt lat="44.99996" lon="5.22655">
        <ele>1255.62</ele>
        <time>2017-03-19T10:57:00Z</time>
      </trkpt>
      <trkpt lat="44.99998" lon="5.22662">
        <ele>1259.46</ele>
        <time>2017-03-19T10:57:14Z</time>
      </trkpt>
      <trkpt lat="44.99999" lon="5.22669">
        <ele>1261.39</ele>
        <time>2017-03-19T10:57:25Z</time>
      </trkpt>
      <trkpt lat="44.99997" lon="5.22673">
        <ele>1264.27</ele>
        <time>2017-03-19T10:57:35Z</time>
      </trkpt>
      <trkpt lat="44.99992" lon="5.22681">
        <ele>1266.19</ele>
        <time>2017-03-19T10:57:47Z</time>
      </trkpt>
      <trkpt lat="44.99993" lon="5.2268">
        <ele>1266.67</ele>
        <time>2017-03-19T10:57:58Z</time>
      </trkpt>
      <trkpt lat="44.99993" lon="5.2268">
        <ele>1268.6</ele>
        <time>2017-03-19T10:58:17Z</time>
      </trkpt>
      <trkpt lat="44.99992" lon="5.22682">
        <ele>1266.19</ele>
        <time>2017-03-19T10:58:31Z</time>
      </trkpt>
      <trkpt lat="44.99993" lon="5.22683">
        <ele>1265.71</ele>
        <time>2017-03-19T10:58:50Z</time>
      </trkpt>
      <trkpt lat="44.99993" lon="5.22684">
        <ele>1265.71</ele>
        <time>2017-03-19T10:59:08Z</time>
      </trkpt>
      <trkpt lat="44.99993" lon="5.22684">
        <ele>1265.71</ele>
        <time>2017-03-19T10:59:32Z</time>
      </trkpt>
      <trkpt lat="44.99989" lon="5.22691">
        <ele>1264.75</ele>
        <time>2017-03-19T10:59:52Z</time>
      </trkpt>
      <trkpt lat="44.99991" lon="5.22688">
        <ele>1264.27</ele>
        <time>2017-03-19T11:00:06Z</time>
      </trkpt>
      <trkpt lat="44.99992" lon="5.2268">
        <ele>1266.67</ele>
        <time>2017-03-19T11:00:17Z</time>
      </trkpt>
      <trkpt lat="44.99986" lon="5.22671">
        <ele>1267.16</ele>
        <time>2017-03-19T11:00:25Z</time>
      </trkpt>
      <trkpt lat="44.99985" lon="5.22661">
        <ele>1268.6</ele>
        <time>2017-03-19T11:00:36Z</time>
      </trkpt>
      <trkpt lat="44.99984" lon="5.22659">
        <ele>1268.6</ele>
        <time>2017-03-19T11:00:51Z</time>
      </trkpt>
      <trkpt lat="44.99984" lon="5.22659">
        <ele>1265.23</ele>
        <time>2017-03-19T11:00:52Z</time>
      </trkpt>
      <trkpt lat="44.99965" lon="5.22664">
        <ele>1269.08</ele>
        <time>2017-03-19T11:30:05Z</time>
      </trkpt>
      <trkpt lat="44.9997" lon="5.22662">
        <ele>1268.6</ele>
        <time>2017-03-19T11:30:06Z</time>
      </trkpt>
      <trkpt lat="44.99972" lon="5.22671">
        <ele>1267.16</ele>
        <time>2017-03-19T11:30:14Z</time>
      </trkpt>
      <trkpt lat="44.99966" lon="5.22676">
        <ele>1268.12</ele>
        <time>2017-03-19T11:30:21Z</time>
      </trkpt>
      <trkpt lat="44.99961" lon="5.22675">
        <ele>1269.56</ele>
        <time>2017-03-19T11:30:26Z</time>
      </trkpt>
      <trkpt lat="44.99952" lon="5.22676">
        <ele>1271.48</ele>
        <time>2017-03-19T11:30:35Z</time>
      </trkpt>
      <trkpt lat="44.9994" lon="5.22673">
        <ele>1274.85</ele>
        <time>2017-03-19T11:30:47Z</time>
      </trkpt>
      <trkpt lat="44.99926" lon="5.22669">
        <ele>1277.25</ele>
        <time>2017-03-19T11:31:01Z</time>
      </trkpt>
      <trkpt lat="44.99918" lon="5.22665">
        <ele>1279.17</ele>
        <time>2017-03-19T11:31:12Z</time>
      </trkpt>
      <trkpt lat="44.99914" lon="5.22662">
        <ele>1279.65</ele>
        <time>2017-03-19T11:31:16Z</time>
      </trkpt>
      <trkpt lat="44.9991" lon="5.22661">
        <ele>1279.65</ele>
        <time>2017-03-19T11:31:19Z</time>
      </trkpt>
      <trkpt lat="44.99907" lon="5.2266">
        <ele>1280.13</ele>
        <time>2017-03-19T11:31:22Z</time>
      </trkpt>
      <trkpt lat="44.99904" lon="5.2266">
        <ele>1280.61</ele>
        <time>2017-03-19T11:31:25Z</time>
      </trkpt>
      <trkpt lat="44.99902" lon="5.22649">
        <ele>1281.57</ele>
        <time>2017-03-19T11:31:32Z</time>
      </trkpt>
      <trkpt lat="44.99891" lon="5.22647">
        <ele>1283.02</ele>
        <time>2017-03-19T11:31:44Z</time>
      </trkpt>
      <trkpt lat="44.99889" lon="5.22647">
        <ele>1283.02</ele>
        <time>2017-03-19T11:31:48Z</time>
      </trkpt>
      <trkpt lat="44.99892" lon="5.22643">
        <ele>1283.02</ele>
        <time>2017-03-19T11:31:53Z</time>
      </trkpt>
      <trkpt lat="44.99892" lon="5.2264">
        <ele>1282.54</ele>
        <time>2017-03-19T11:31:56Z</time>
      </trkpt>
      <trkpt lat="44.99889" lon="5.22638">
        <ele>1284.94</ele>
        <time>2017-03-19T11:32:09Z</time>
      </trkpt>
      <trkpt lat="44.99888" lon="5.22637">
        <ele>1281.57</ele>
        <time>2017-03-19T11:32:31Z</time>
      </trkpt>
      <trkpt lat="44.99888" lon="5.22637">
        <ele>1284.94</ele>
        <time>2017-03-19T11:32:34Z</time>
      </trkpt>
      <trkpt lat="44.9989" lon="5.22637">
        <ele>1283.02</ele>
        <time>2017-03-19T11:32:57Z</time>
      </trkpt>
      <trkpt lat="44.9989" lon="5.2264">
        <ele>1283.98</ele>
        <time>2017-03-19T11:33:04Z</time>
      </trkpt>
      <trkpt lat="44.99891" lon="5.22643">
        <ele>1283.98</ele>
        <time>2017-03-19T11:33:06Z</time>
      </trkpt>
      <trkpt lat="44.99892" lon="5.22647">
        <ele>1284.46</ele>
        <time>2017-03-19T11:33:10Z</time>
      </trkpt>
      <trkpt lat="44.9989" lon="5.22649">
        <ele>1284.46</ele>
        <time>2017-03-19T11:33:12Z</time>
      </trkpt>
      <trkpt lat="44.99886" lon="5.22652">
        <ele>1283.98</ele>
        <time>2017-03-19T11:33:15Z</time>
      </trkpt>
      <trkpt lat="44.99876" lon="5.22656">
        <ele>1283.02</ele>
        <time>2017-03-19T11:33:25Z</time>
      </trkpt>
      <trkpt lat="44.99875" lon="5.22655">
        <ele>1283.98</ele>
        <time>2017-03-19T11:33:31Z</time>
      </trkpt>
      <trkpt lat="44.99872" lon="5.22654">
        <ele>1284.46</ele>
        <time>2017-03-19T11:33:34Z</time>
      </trkpt>
      <trkpt lat="44.9987" lon="5.22651">
        <ele>1284.94</ele>
        <time>2017-03-19T11:33:37Z</time>
      </trkpt>
      <trkpt lat="44.99868" lon="5.22649">
        <ele>1285.42</ele>
        <time>2017-03-19T11:33:42Z</time>
      </trkpt>
      <trkpt lat="44.99869" lon="5.22654">
        <ele>1284.46</ele>
        <time>2017-03-19T11:33:45Z</time>
      </trkpt>
      <trkpt lat="44.99864" lon="5.22658">
        <ele>1283.02</ele>
        <time>2017-03-19T11:33:50Z</time>
      </trkpt>
      <trkpt lat="44.99858" lon="5.2266">
        <ele>1283.02</ele>
        <time>2017-03-19T11:33:55Z</time>
      </trkpt>
      <trkpt lat="44.99849" lon="5.22662">
        <ele>1283.02</ele>
        <time>2017-03-19T11:34:01Z</time>
      </trkpt>
      <trkpt lat="44.99843" lon="5.22657">
        <ele>1283.98</ele>
        <time>2017-03-19T11:34:07Z</time>
      </trkpt>
      <trkpt lat="44.9983" lon="5.22653">
        <ele>1285.9</ele>
        <time>2017-03-19T11:34:18Z</time>
      </trkpt>
      <trkpt lat="44.99818" lon="5.22651">
        <ele>1286.38</ele>
        <time>2017-03-19T11:34:29Z</time>
      </trkpt>
      <trkpt lat="44.99814" lon="5.22651">
        <ele>1285.9</ele>
        <time>2017-03-19T11:34:41Z</time>
      </trkpt>
      <trkpt lat="44.99814" lon="5.22651">
        <ele>1286.38</ele>
        <time>2017-03-19T11:34:59Z</time>
      </trkpt>
      <trkpt lat="44.9981" lon="5.22655">
        <ele>1284.94</ele>
        <time>2017-03-19T11:35:05Z</time>
      </trkpt>
      <trkpt lat="44.99803" lon="5.22649">
        <ele>1286.86</ele>
        <time>2017-03-19T11:35:14Z</time>
      </trkpt>
      <trkpt lat="44.998" lon="5.22648">
        <ele>1286.86</ele>
        <time>2017-03-19T11:35:17Z</time>
      </trkpt>
      <trkpt lat="44.99792" lon="5.22651">
        <ele>1285.9</ele>
        <time>2017-03-19T11:35:25Z</time>
      </trkpt>
      <trkpt lat="44.99788" lon="5.22652">
        <ele>1284.94</ele>
        <time>2017-03-19T11:35:29Z</time>
      </trkpt>
      <trkpt lat="44.99776" lon="5.22652">
        <ele>1285.42</ele>
        <time>2017-03-19T11:35:42Z</time>
      </trkpt>
      <trkpt lat="44.99768" lon="5.22655">
        <ele>1283.5</ele>
        <time>2017-03-19T11:35:50Z</time>
      </trkpt>
      <trkpt lat="44.99758" lon="5.22652">
        <ele>1284.46</ele>
        <time>2017-03-19T11:36:02Z</time>
      </trkpt>
      <trkpt lat="44.99756" lon="5.22652">
        <ele>1283.98</ele>
        <time>2017-03-19T11:36:10Z</time>
      </trkpt>
      <trkpt lat="44.99745" lon="5.22656">
        <ele>1283.5</ele>
        <time>2017-03-19T11:36:23Z</time>
      </trkpt>
      <trkpt lat="44.99742" lon="5.22653">
        <ele>1284.46</ele>
        <time>2017-03-19T11:36:29Z</time>
      </trkpt>
      <trkpt lat="44.99738" lon="5.22652">
        <ele>1283.98</ele>
        <time>2017-03-19T11:36:33Z</time>
      </trkpt>
      <trkpt lat="44.99733" lon="5.22646">
        <ele>1284.94</ele>
        <time>2017-03-19T11:36:40Z</time>
      </trkpt>
      <trkpt lat="44.99725" lon="5.22648">
        <ele>1284.46</ele>
        <time>2017-03-19T11:36:52Z</time>
      </trkpt>
      <trkpt lat="44.99723" lon="5.22647">
        <ele>1285.42</ele>
        <time>2017-03-19T11:37:00Z</time>
      </trkpt>
      <trkpt lat="44.99712" lon="5.2265">
        <ele>1285.42</ele>
        <time>2017-03-19T11:37:08Z</time>
      </trkpt>
      <trkpt lat="44.99705" lon="5.22652">
        <ele>1284.94</ele>
        <time>2017-03-19T11:37:20Z</time>
      </trkpt>
      <trkpt lat="44.99705" lon="5.22652">
        <ele>1285.9</ele>
        <time>2017-03-19T11:37:34Z</time>
      </trkpt>
      <trkpt lat="44.99699" lon="5.22654">
        <ele>1284.94</ele>
        <time>2017-03-19T11:37:45Z</time>
      </trkpt>
      <trkpt lat="44.99689" lon="5.22654">
        <ele>1286.86</ele>
        <time>2017-03-19T11:37:57Z</time>
      </trkpt>
      <trkpt lat="44.99687" lon="5.22651">
        <ele>1287.82</ele>
        <time>2017-03-19T11:38:00Z</time>
      </trkpt>
      <trkpt lat="44.99673" lon="5.22643">
        <ele>1290.23</ele>
        <time>2017-03-19T11:38:12Z</time>
      </trkpt>
      <trkpt lat="44.99656" lon="5.22643">
        <ele>1292.15</ele>
        <time>2017-03-19T11:38:24Z</time>
      </trkpt>
      <trkpt lat="44.99645" lon="5.22641">
        <ele>1293.11</ele>
        <time>2017-03-19T11:38:31Z</time>
      </trkpt>
      <trkpt lat="44.99641" lon="5.22639">
        <ele>1293.59</ele>
        <time>2017-03-19T11:38:39Z</time>
      </trkpt>
      <trkpt lat="44.9964" lon="5.22639">
        <ele>1293.59</ele>
        <time>2017-03-19T11:38:41Z</time>
      </trkpt>
      <trkpt lat="44.99628" lon="5.22635">
        <ele>1294.55</ele>
        <time>2017-03-19T11:38:52Z</time>
      </trkpt>
      <trkpt lat="44.99625" lon="5.22633">
        <ele>1295.03</ele>
        <time>2017-03-19T11:38:56Z</time>
      </trkpt>
      <trkpt lat="44.99624" lon="5.22634">
        <ele>1294.07</ele>
        <time>2017-03-19T11:39:09Z</time>
      </trkpt>
      <trkpt lat="44.99624" lon="5.22634">
        <ele>1293.59</ele>
        <time>2017-03-19T11:39:22Z</time>
      </trkpt>
      <trkpt lat="44.99624" lon="5.22634">
        <ele>1292.15</ele>
        <time>2017-03-19T11:39:34Z</time>
      </trkpt>
      <trkpt lat="44.99624" lon="5.22633">
        <ele>1294.07</ele>
        <time>2017-03-19T11:39:39Z</time>
      </trkpt>
      <trkpt lat="44.99624" lon="5.22633">
        <ele>1292.63</ele>
        <time>2017-03-19T11:39:42Z</time>
      </trkpt>
      <trkpt lat="44.99624" lon="5.22633">
        <ele>1293.11</ele>
        <time>2017-03-19T11:40:03Z</time>
      </trkpt>
      <trkpt lat="44.99623" lon="5.22633">
        <ele>1294.07</ele>
        <time>2017-03-19T11:40:22Z</time>
      </trkpt>
      <trkpt lat="44.99623" lon="5.22633">
        <ele>1293.59</ele>
        <time>2017-03-19T11:40:50Z</time>
      </trkpt>
      <trkpt lat="44.99622" lon="5.22633">
        <ele>1293.59</ele>
        <time>2017-03-19T11:41:01Z</time>
      </trkpt>
      <trkpt lat="44.99622" lon="5.22633">
        <ele>1293.59</ele>
        <time>2017-03-19T11:41:05Z</time>
      </trkpt>
      <trkpt lat="44.99624" lon="5.22634">
        <ele>1295.03</ele>
        <time>2017-03-19T11:41:17Z</time>
      </trkpt>
      <trkpt lat="44.99624" lon="5.22634">
        <ele>1295.03</ele>
        <time>2017-03-19T11:41:27Z</time>
      </trkpt>
      <trkpt lat="44.99624" lon="5.22634">
        <ele>1295.51</ele>
        <time>2017-03-19T11:41:31Z</time>
      </trkpt>
      <trkpt lat="44.99628" lon="5.22639">
        <ele>1294.55</ele>
        <time>2017-03-19T11:41:38Z</time>
      </trkpt>
      <trkpt lat="44.99626" lon="5.22643">
        <ele>1291.19</ele>
        <time>2017-03-19T11:41:50Z</time>
      </trkpt>
      <trkpt lat="44.99624" lon="5.22645">
        <ele>1289.75</ele>
        <time>2017-03-19T11:41:54Z</time>
      </trkpt>
      <trkpt lat="44.99617" lon="5.22645">
        <ele>1289.75</ele>
        <time>2017-03-19T11:42:04Z</time>
      </trkpt>
      <trkpt lat="44.99616" lon="5.22645">
        <ele>1290.23</ele>
        <time>2017-03-19T11:42:07Z</time>
      </trkpt>
      <trkpt lat="44.99602" lon="5.22647">
        <ele>1288.78</ele>
        <time>2017-03-19T11:42:20Z</time>
      </trkpt>
      <trkpt lat="44.99599" lon="5.22648">
        <ele>1288.78</ele>
        <time>2017-03-19T11:42:22Z</time>
      </trkpt>
      <trkpt lat="44.99593" lon="5.2265">
        <ele>1287.82</ele>
        <time>2017-03-19T11:42:28Z</time>
      </trkpt>
      <trkpt lat="44.99584" lon="5.22647">
        <ele>1286.86</ele>
        <time>2017-03-19T11:42:38Z</time>
      </trkpt>
      <trkpt lat="44.99578" lon="5.22646">
        <ele>1286.38</ele>
        <time>2017-03-19T11:42:46Z</time>
      </trkpt>
      <trkpt lat="44.99572" lon="5.22631">
        <ele>1287.82</ele>
        <time>2017-03-19T11:42:58Z</time>
      </trkpt>
      <trkpt lat="44.99569" lon="5.22623">
        <ele>1288.78</ele>
        <time>2017-03-19T11:43:05Z</time>
      </trkpt>
      <trkpt lat="44.99568" lon="5.22618">
        <ele>1290.71</ele>
        <time>2017-03-19T11:43:09Z</time>
      </trkpt>
      <trkpt lat="44.99565" lon="5.22616">
        <ele>1290.71</ele>
        <time>2017-03-19T11:43:12Z</time>
      </trkpt>
      <trkpt lat="44.99559" lon="5.2261">
        <ele>1292.15</ele>
        <time>2017-03-19T11:43:25Z</time>
      </trkpt>
      <trkpt lat="44.99558" lon="5.22611">
        <ele>1293.59</ele>
        <time>2017-03-19T11:43:27Z</time>
      </trkpt>
      <trkpt lat="44.99554" lon="5.2261">
        <ele>1292.63</ele>
        <time>2017-03-19T11:43:30Z</time>
      </trkpt>
      <trkpt lat="44.99544" lon="5.22607">
        <ele>1292.63</ele>
        <time>2017-03-19T11:43:41Z</time>
      </trkpt>
      <trkpt lat="44.99541" lon="5.22608">
        <ele>1291.19</ele>
        <time>2017-03-19T11:43:44Z</time>
      </trkpt>
      <trkpt lat="44.99537" lon="5.22607">
        <ele>1289.75</ele>
        <time>2017-03-19T11:43:48Z</time>
      </trkpt>
      <trkpt lat="44.99531" lon="5.22607">
        <ele>1287.82</ele>
        <time>2017-03-19T11:43:56Z</time>
      </trkpt>
      <trkpt lat="44.99526" lon="5.22611">
        <ele>1283.98</ele>
        <time>2017-03-19T11:44:07Z</time>
      </trkpt>
      <trkpt lat="44.99525" lon="5.22609">
        <ele>1282.54</ele>
        <time>2017-03-19T11:44:17Z</time>
      </trkpt>
      <trkpt lat="44.99522" lon="5.2261">
        <ele>1279.17</ele>
        <time>2017-03-19T11:44:30Z</time>
      </trkpt>
      <trkpt lat="44.99513" lon="5.22619">
        <ele>1276.77</ele>
        <time>2017-03-19T11:44:43Z</time>
      </trkpt>
      <trkpt lat="44.9951" lon="5.22619">
        <ele>1274.85</ele>
        <time>2017-03-19T11:44:55Z</time>
      </trkpt>
      <trkpt lat="44.99509" lon="5.22619">
        <ele>1273.88</ele>
        <time>2017-03-19T11:45:10Z</time>
      </trkpt>
      <trkpt lat="44.99506" lon="5.22618">
        <ele>1272.44</ele>
        <time>2017-03-19T11:45:29Z</time>
      </trkpt>
      <trkpt lat="44.99502" lon="5.22619">
        <ele>1270.04</ele>
        <time>2017-03-19T11:45:43Z</time>
      </trkpt>
      <trkpt lat="44.99499" lon="5.22621">
        <ele>1268.12</ele>
        <time>2017-03-19T11:45:56Z</time>
      </trkpt>
      <trkpt lat="44.99494" lon="5.22623">
        <ele>1265.23</ele>
        <time>2017-03-19T11:46:06Z</time>
      </trkpt>
      <trkpt lat="44.99482" lon="5.22629">
        <ele>1262.35</ele>
        <time>2017-03-19T11:46:24Z</time>
      </trkpt>
      <trkpt lat="44.99469" lon="5.22624">
        <ele>1260.43</ele>
        <time>2017-03-19T11:46:37Z</time>
      </trkpt>
      <trkpt lat="44.99468" lon="5.22623">
        <ele>1260.43</ele>
        <time>2017-03-19T11:46:38Z</time>
      </trkpt>
      <trkpt lat="44.99462" lon="5.22614">
        <ele>1260.43</ele>
        <time>2017-03-19T11:46:45Z</time>
      </trkpt>
      <trkpt lat="44.99459" lon="5.22612">
        <ele>1260.43</ele>
        <time>2017-03-19T11:46:47Z</time>
      </trkpt>
      <trkpt lat="44.99448" lon="5.22608">
        <ele>1261.87</ele>
        <time>2017-03-19T11:46:58Z</time>
      </trkpt>
      <trkpt lat="44.99444" lon="5.2261">
        <ele>1261.39</ele>
        <time>2017-03-19T11:47:01Z</time>
      </trkpt>
      <trkpt lat="44.99433" lon="5.22609">
        <ele>1260.91</ele>
        <time>2017-03-19T11:47:14Z</time>
      </trkpt>
      <trkpt lat="44.99424" lon="5.22606">
        <ele>1259.46</ele>
        <time>2017-03-19T11:47:27Z</time>
      </trkpt>
      <trkpt lat="44.9942" lon="5.22607">
        <ele>1256.1</ele>
        <time>2017-03-19T11:47:41Z</time>
      </trkpt>
      <trkpt lat="44.99415" lon="5.22604">
        <ele>1254.18</ele>
        <time>2017-03-19T11:47:50Z</time>
      </trkpt>
      <trkpt lat="44.9941" lon="5.22604">
        <ele>1253.22</ele>
        <time>2017-03-19T11:47:57Z</time>
      </trkpt>
      <trkpt lat="44.99398" lon="5.22608">
        <ele>1251.29</ele>
        <time>2017-03-19T11:48:10Z</time>
      </trkpt>
      <trkpt lat="44.9939" lon="5.22613">
        <ele>1250.33</ele>
        <time>2017-03-19T11:48:19Z</time>
      </trkpt>
      <trkpt lat="44.99376" lon="5.22622">
        <ele>1246.97</ele>
        <time>2017-03-19T11:48:33Z</time>
      </trkpt>
      <trkpt lat="44.99368" lon="5.22623">
        <ele>1244.56</ele>
        <time>2017-03-19T11:48:44Z</time>
      </trkpt>
      <trkpt lat="44.99365" lon="5.22629">
        <ele>1241.68</ele>
        <time>2017-03-19T11:48:55Z</time>
      </trkpt>
      <trkpt lat="44.99363" lon="5.22641">
        <ele>1239.76</ele>
        <time>2017-03-19T11:49:06Z</time>
      </trkpt>
      <trkpt lat="44.99365" lon="5.22656">
        <ele>1237.83</ele>
        <time>2017-03-19T11:49:18Z</time>
      </trkpt>
      <trkpt lat="44.99361" lon="5.22664">
        <ele>1235.43</ele>
        <time>2017-03-19T11:49:25Z</time>
      </trkpt>
      <trkpt lat="44.99358" lon="5.22669">
        <ele>1234.95</ele>
        <time>2017-03-19T11:49:36Z</time>
      </trkpt>
      <trkpt lat="44.99357" lon="5.22673">
        <ele>1229.66</ele>
        <time>2017-03-19T11:49:39Z</time>
      </trkpt>
      <trkpt lat="44.99356" lon="5.22674">
        <ele>1237.83</ele>
        <time>2017-03-19T11:49:40Z</time>
      </trkpt>
      <trkpt lat="44.99356" lon="5.22675">
        <ele>1233.51</ele>
        <time>2017-03-19T11:49:41Z</time>
      </trkpt>
      <trkpt lat="44.99349" lon="5.22678">
        <ele>1231.59</ele>
        <time>2017-03-19T11:49:55Z</time>
      </trkpt>
      <trkpt lat="44.99344" lon="5.22669">
        <ele>1232.07</ele>
        <time>2017-03-19T11:50:07Z</time>
      </trkpt>
      <trkpt lat="44.99334" lon="5.22663">
        <ele>1233.99</ele>
        <time>2017-03-19T11:50:20Z</time>
      </trkpt>
      <trkpt lat="44.99326" lon="5.22655">
        <ele>1235.91</ele>
        <time>2017-03-19T11:50:32Z</time>
      </trkpt>
      <trkpt lat="44.99313" lon="5.2264">
        <ele>1237.83</ele>
        <time>2017-03-19T11:50:47Z</time>
      </trkpt>
      <trkpt lat="44.99304" lon="5.2263">
        <ele>1238.32</ele>
        <time>2017-03-19T11:50:59Z</time>
      </trkpt>
      <trkpt lat="44.99292" lon="5.22625">
        <ele>1237.35</ele>
        <time>2017-03-19T11:51:09Z</time>
      </trkpt>
      <trkpt lat="44.99278" lon="5.22627">
        <ele>1235.43</ele>
        <time>2017-03-19T11:51:21Z</time>
      </trkpt>
      <trkpt lat="44.99275" lon="5.22627">
        <ele>1233.99</ele>
        <time>2017-03-19T11:51:32Z</time>
      </trkpt>
      <trkpt lat="44.99273" lon="5.22631">
        <ele>1232.55</ele>
        <time>2017-03-19T11:51:44Z</time>
      </trkpt>
      <trkpt lat="44.99269" lon="5.22638">
        <ele>1230.62</ele>
        <time>2017-03-19T11:51:55Z</time>
      </trkpt>
      <trkpt lat="44.9926" lon="5.22639">
        <ele>1229.18</ele>
        <time>2017-03-19T11:52:10Z</time>
      </trkpt>
      <trkpt lat="44.99256" lon="5.22635">
        <ele>1228.7</ele>
        <time>2017-03-19T11:52:21Z</time>
      </trkpt>
      <trkpt lat="44.9925" lon="5.22629">
        <ele>1229.18</ele>
        <time>2017-03-19T11:52:35Z</time>
      </trkpt>
      <trkpt lat="44.99241" lon="5.22623">
        <ele>1226.3</ele>
        <time>2017-03-19T11:52:50Z</time>
      </trkpt>
      <trkpt lat="44.99228" lon="5.22615">
        <ele>1224.86</ele>
        <time>2017-03-19T11:53:04Z</time>
      </trkpt>
      <trkpt lat="44.99211" lon="5.22612">
        <ele>1223.42</ele>
        <time>2017-03-19T11:53:17Z</time>
      </trkpt>
      <trkpt lat="44.99207" lon="5.22601">
        <ele>1225.34</ele>
        <time>2017-03-19T11:53:27Z</time>
      </trkpt>
      <trkpt lat="44.99207" lon="5.22589">
        <ele>1228.22</ele>
        <time>2017-03-19T11:53:39Z</time>
      </trkpt>
      <trkpt lat="44.99199" lon="5.22579">
        <ele>1228.7</ele>
        <time>2017-03-19T11:53:50Z</time>
      </trkpt>
      <trkpt lat="44.99189" lon="5.22576">
        <ele>1228.7</ele>
        <time>2017-03-19T11:54:01Z</time>
      </trkpt>
      <trkpt lat="44.99187" lon="5.22582">
        <ele>1228.22</ele>
        <time>2017-03-19T11:54:12Z</time>
      </trkpt>
      <trkpt lat="44.99185" lon="5.22586">
        <ele>1226.78</ele>
        <time>2017-03-19T11:54:24Z</time>
      </trkpt>
      <trkpt lat="44.99184" lon="5.22589">
        <ele>1225.82</ele>
        <time>2017-03-19T11:54:38Z</time>
      </trkpt>
      <trkpt lat="44.99175" lon="5.22603">
        <ele>1222.93</ele>
        <time>2017-03-19T11:54:55Z</time>
      </trkpt>
      <trkpt lat="44.99166" lon="5.22606">
        <ele>1221.97</ele>
        <time>2017-03-19T11:55:06Z</time>
      </trkpt>
      <trkpt lat="44.99166" lon="5.22606">
        <ele>1221.97</ele>
        <time>2017-03-19T11:55:07Z</time>
      </trkpt>
      <trkpt lat="44.9916" lon="5.22615">
        <ele>1219.09</ele>
        <time>2017-03-19T11:55:20Z</time>
      </trkpt>
      <trkpt lat="44.99152" lon="5.22621">
        <ele>1215.72</ele>
        <time>2017-03-19T11:55:31Z</time>
      </trkpt>
      <trkpt lat="44.99151" lon="5.22615">
        <ele>1213.32</ele>
        <time>2017-03-19T11:55:45Z</time>
      </trkpt>
      <trkpt lat="44.99147" lon="5.22607">
        <ele>1211.88</ele>
        <time>2017-03-19T11:55:57Z</time>
      </trkpt>
      <trkpt lat="44.99143" lon="5.22605">
        <ele>1209.96</ele>
        <time>2017-03-19T11:56:09Z</time>
      </trkpt>
      <trkpt lat="44.99139" lon="5.22603">
        <ele>1208.51</ele>
        <time>2017-03-19T11:56:19Z</time>
      </trkpt>
      <trkpt lat="44.99132" lon="5.22603">
        <ele>1205.63</ele>
        <time>2017-03-19T11:56:33Z</time>
      </trkpt>
      <trkpt lat="44.99123" lon="5.22602">
        <ele>1203.23</ele>
        <time>2017-03-19T11:56:47Z</time>
      </trkpt>
      <trkpt lat="44.99115" lon="5.2261">
        <ele>1201.3</ele>
        <time>2017-03-19T11:57:00Z</time>
      </trkpt>
      <trkpt lat="44.99111" lon="5.22615">
        <ele>1197.94</ele>
        <time>2017-03-19T11:57:15Z</time>
      </trkpt>
      <trkpt lat="44.99102" lon="5.22628">
        <ele>1196.02</ele>
        <time>2017-03-19T11:57:27Z</time>
      </trkpt>
      <trkpt lat="44.99097" lon="5.22639">
        <ele>1192.65</ele>
        <time>2017-03-19T11:57:36Z</time>
      </trkpt>
      <trkpt lat="44.99089" lon="5.22645">
        <ele>1189.77</ele>
        <time>2017-03-19T11:57:49Z</time>
      </trkpt>
      <trkpt lat="44.99084" lon="5.22641">
        <ele>1186.4</ele>
        <time>2017-03-19T11:57:59Z</time>
      </trkpt>
      <trkpt lat="44.99084" lon="5.22641">
        <ele>1185.92</ele>
        <time>2017-03-19T11:58:01Z</time>
      </trkpt>
      <trkpt lat="44.99076" lon="5.22632">
        <ele>1183.04</ele>
        <time>2017-03-19T11:58:16Z</time>
      </trkpt>
      <trkpt lat="44.99073" lon="5.22628">
        <ele>1183.52</ele>
        <time>2017-03-19T11:58:24Z</time>
      </trkpt>
      <trkpt lat="44.99071" lon="5.22628">
        <ele>1182.56</ele>
        <time>2017-03-19T11:58:31Z</time>
      </trkpt>
      <trkpt lat="44.99066" lon="5.22625">
        <ele>1182.56</ele>
        <time>2017-03-19T11:58:38Z</time>
      </trkpt>
      <trkpt lat="44.99062" lon="5.22622">
        <ele>1182.56</ele>
        <time>2017-03-19T11:58:41Z</time>
      </trkpt>
      <trkpt lat="44.99045" lon="5.22615">
        <ele>1183.04</ele>
        <time>2017-03-19T11:58:53Z</time>
      </trkpt>
      <trkpt lat="44.99043" lon="5.22616">
        <ele>1183.04</ele>
        <time>2017-03-19T11:58:55Z</time>
      </trkpt>
      <trkpt lat="44.99039" lon="5.22613">
        <ele>1184</ele>
        <time>2017-03-19T11:58:59Z</time>
      </trkpt>
      <trkpt lat="44.99033" lon="5.2261">
        <ele>1186.88</ele>
        <time>2017-03-19T11:59:10Z</time>
      </trkpt>
      <trkpt lat="44.99029" lon="5.22608">
        <ele>1189.29</ele>
        <time>2017-03-19T11:59:17Z</time>
      </trkpt>
      <trkpt lat="44.99024" lon="5.22608">
        <ele>1190.73</ele>
        <time>2017-03-19T11:59:28Z</time>
      </trkpt>
      <trkpt lat="44.99008" lon="5.22609">
        <ele>1193.61</ele>
        <time>2017-03-19T11:59:42Z</time>
      </trkpt>
      <trkpt lat="44.99004" lon="5.2261">
        <ele>1194.09</ele>
        <time>2017-03-19T11:59:46Z</time>
      </trkpt>
      <trkpt lat="44.98996" lon="5.22612">
        <ele>1194.09</ele>
        <time>2017-03-19T11:59:51Z</time>
      </trkpt>
      <trkpt lat="44.98987" lon="5.22607">
        <ele>1195.54</ele>
        <time>2017-03-19T11:59:59Z</time>
      </trkpt>
      <trkpt lat="44.98984" lon="5.22603">
        <ele>1196.98</ele>
        <time>2017-03-19T12:00:05Z</time>
      </trkpt>
      <trkpt lat="44.98984" lon="5.226">
        <ele>1196.98</ele>
        <time>2017-03-19T12:00:08Z</time>
      </trkpt>
      <trkpt lat="44.98981" lon="5.22584">
        <ele>1199.38</ele>
        <time>2017-03-19T12:00:21Z</time>
      </trkpt>
      <trkpt lat="44.9898" lon="5.22584">
        <ele>1193.61</ele>
        <time>2017-03-19T12:00:29Z</time>
      </trkpt>
      <trkpt lat="44.9898" lon="5.22584">
        <ele>1213.8</ele>
        <time>2017-03-19T12:00:30Z</time>
      </trkpt>
      <trkpt lat="44.9898" lon="5.22584">
        <ele>1199.86</ele>
        <time>2017-03-19T12:00:31Z</time>
      </trkpt>
      <trkpt lat="44.9898" lon="5.22584">
        <ele>1194.09</ele>
        <time>2017-03-19T12:00:32Z</time>
      </trkpt>
      <trkpt lat="44.98979" lon="5.22585">
        <ele>1209.96</ele>
        <time>2017-03-19T12:00:33Z</time>
      </trkpt>
      <trkpt lat="44.98978" lon="5.22585">
        <ele>1188.33</ele>
        <time>2017-03-19T12:00:34Z</time>
      </trkpt>
      <trkpt lat="44.98978" lon="5.22585">
        <ele>1211.4</ele>
        <time>2017-03-19T12:00:35Z</time>
      </trkpt>
      <trkpt lat="44.98978" lon="5.22585">
        <ele>1200.82</ele>
        <time>2017-03-19T12:00:36Z</time>
      </trkpt>
      <trkpt lat="44.98975" lon="5.22587">
        <ele>1203.71</ele>
        <time>2017-03-19T12:00:50Z</time>
      </trkpt>
      <trkpt lat="44.98964" lon="5.22577">
        <ele>1206.59</ele>
        <time>2017-03-19T12:01:02Z</time>
      </trkpt>
      <trkpt lat="44.98958" lon="5.22568">
        <ele>1208.51</ele>
        <time>2017-03-19T12:01:14Z</time>
      </trkpt>
      <trkpt lat="44.98953" lon="5.22562">
        <ele>1209.48</ele>
        <time>2017-03-19T12:01:26Z</time>
      </trkpt>
      <trkpt lat="44.98946" lon="5.22549">
        <ele>1209.96</ele>
        <time>2017-03-19T12:01:42Z</time>
      </trkpt>
      <trkpt lat="44.98945" lon="5.22545">
        <ele>1209.96</ele>
        <time>2017-03-19T12:01:45Z</time>
      </trkpt>
      <trkpt lat="44.98933" lon="5.2253">
        <ele>1212.84</ele>
        <time>2017-03-19T12:01:59Z</time>
      </trkpt>
      <trkpt lat="44.98921" lon="5.22521">
        <ele>1215.24</ele>
        <time>2017-03-19T12:02:13Z</time>
      </trkpt>
      <trkpt lat="44.98909" lon="5.22513">
        <ele>1217.17</ele>
        <time>2017-03-19T12:02:24Z</time>
      </trkpt>
      <trkpt lat="44.98893" lon="5.22516">
        <ele>1218.61</ele>
        <time>2017-03-19T12:02:38Z</time>
      </trkpt>
      <trkpt lat="44.98888" lon="5.22514">
        <ele>1218.61</ele>
        <time>2017-03-19T12:02:43Z</time>
      </trkpt>
      <trkpt lat="44.98883" lon="5.2251">
        <ele>1218.61</ele>
        <time>2017-03-19T12:02:52Z</time>
      </trkpt>
      <trkpt lat="44.98875" lon="5.22499">
        <ele>1218.13</ele>
        <time>2017-03-19T12:03:05Z</time>
      </trkpt>
      <trkpt lat="44.98872" lon="5.22498">
        <ele>1218.61</ele>
        <time>2017-03-19T12:03:23Z</time>
      </trkpt>
      <trkpt lat="44.98859" lon="5.2249">
        <ele>1220.05</ele>
        <time>2017-03-19T12:03:33Z</time>
      </trkpt>
      <trkpt lat="44.9885" lon="5.22487">
        <ele>1220.53</ele>
        <time>2017-03-19T12:03:40Z</time>
      </trkpt>
      <trkpt lat="44.9884" lon="5.22487">
        <ele>1221.01</ele>
        <time>2017-03-19T12:03:47Z</time>
      </trkpt>
      <trkpt lat="44.98838" lon="5.2249">
        <ele>1221.01</ele>
        <time>2017-03-19T12:03:49Z</time>
      </trkpt>
      <trkpt lat="44.98836" lon="5.225">
        <ele>1220.53</ele>
        <time>2017-03-19T12:03:57Z</time>
      </trkpt>
      <trkpt lat="44.98824" lon="5.22513">
        <ele>1218.13</ele>
        <time>2017-03-19T12:04:11Z</time>
      </trkpt>
      <trkpt lat="44.98819" lon="5.22515">
        <ele>1217.17</ele>
        <time>2017-03-19T12:04:27Z</time>
      </trkpt>
      <trkpt lat="44.98817" lon="5.22516">
        <ele>1217.17</ele>
        <time>2017-03-19T12:04:29Z</time>
      </trkpt>
      <trkpt lat="44.98813" lon="5.22519">
        <ele>1217.17</ele>
        <time>2017-03-19T12:04:32Z</time>
      </trkpt>
      <trkpt lat="44.98805" lon="5.22525">
        <ele>1215.72</ele>
        <time>2017-03-19T12:04:40Z</time>
      </trkpt>
      <trkpt lat="44.98801" lon="5.22529">
        <ele>1215.24</ele>
        <time>2017-03-19T12:04:43Z</time>
      </trkpt>
      <trkpt lat="44.98796" lon="5.22528">
        <ele>1214.76</ele>
        <time>2017-03-19T12:04:48Z</time>
      </trkpt>
      <trkpt lat="44.98789" lon="5.22521">
        <ele>1215.24</ele>
        <time>2017-03-19T12:04:58Z</time>
      </trkpt>
      <trkpt lat="44.98784" lon="5.22519">
        <ele>1214.76</ele>
        <time>2017-03-19T12:05:03Z</time>
      </trkpt>
      <trkpt lat="44.98779" lon="5.22517">
        <ele>1214.28</ele>
        <time>2017-03-19T12:05:08Z</time>
      </trkpt>
      <trkpt lat="44.98768" lon="5.22519">
        <ele>1212.36</ele>
        <time>2017-03-19T12:05:18Z</time>
      </trkpt>
      <trkpt lat="44.98766" lon="5.22519">
        <ele>1211.88</ele>
        <time>2017-03-19T12:05:20Z</time>
      </trkpt>
      <trkpt lat="44.98757" lon="5.22515">
        <ele>1210.44</ele>
        <time>2017-03-19T12:05:30Z</time>
      </trkpt>
      <trkpt lat="44.98744" lon="5.22506">
        <ele>1209.48</ele>
        <time>2017-03-19T12:05:41Z</time>
      </trkpt>
      <trkpt lat="44.98744" lon="5.22505">
        <ele>1209.48</ele>
        <time>2017-03-19T12:05:42Z</time>
      </trkpt>
      <trkpt lat="44.98741" lon="5.22486">
        <ele>1210.92</ele>
        <time>2017-03-19T12:05:54Z</time>
      </trkpt>
      <trkpt lat="44.9874" lon="5.22484">
        <ele>1211.88</ele>
        <time>2017-03-19T12:05:56Z</time>
      </trkpt>
      <trkpt lat="44.98738" lon="5.22474">
        <ele>1212.36</ele>
        <time>2017-03-19T12:06:01Z</time>
      </trkpt>
      <trkpt lat="44.98736" lon="5.2247">
        <ele>1212.84</ele>
        <time>2017-03-19T12:06:04Z</time>
      </trkpt>
      <trkpt lat="44.98736" lon="5.22463">
        <ele>1213.32</ele>
        <time>2017-03-19T12:06:09Z</time>
      </trkpt>
      <trkpt lat="44.98738" lon="5.22453">
        <ele>1214.28</ele>
        <time>2017-03-19T12:06:16Z</time>
      </trkpt>
      <trkpt lat="44.98741" lon="5.22442">
        <ele>1215.72</ele>
        <time>2017-03-19T12:06:23Z</time>
      </trkpt>
      <trkpt lat="44.98741" lon="5.22431">
        <ele>1217.17</ele>
        <time>2017-03-19T12:06:32Z</time>
      </trkpt>
      <trkpt lat="44.98739" lon="5.22427">
        <ele>1217.17</ele>
        <time>2017-03-19T12:06:38Z</time>
      </trkpt>
      <trkpt lat="44.98738" lon="5.22423">
        <ele>1217.65</ele>
        <time>2017-03-19T12:06:52Z</time>
      </trkpt>
      <trkpt lat="44.98738" lon="5.22423">
        <ele>1217.17</ele>
        <time>2017-03-19T12:07:21Z</time>
      </trkpt>
      <trkpt lat="44.98738" lon="5.22423">
        <ele>1217.17</ele>
        <time>2017-03-19T12:07:54Z</time>
      </trkpt>
      <trkpt lat="44.98738" lon="5.22423">
        <ele>1217.17</ele>
        <time>2017-03-19T12:08:18Z</time>
      </trkpt>
      <trkpt lat="44.98739" lon="5.22423">
        <ele>1217.65</ele>
        <time>2017-03-19T12:08:36Z</time>
      </trkpt>
      <trkpt lat="44.98739" lon="5.22424">
        <ele>1217.17</ele>
        <time>2017-03-19T12:08:42Z</time>
      </trkpt>
      <trkpt lat="44.98732" lon="5.22408">
        <ele>1216.21</ele>
        <time>2017-03-19T12:08:55Z</time>
      </trkpt>
      <trkpt lat="44.98721" lon="5.22407">
        <ele>1215.24</ele>
        <time>2017-03-19T12:09:04Z</time>
      </trkpt>
      <trkpt lat="44.98708" lon="5.22412">
        <ele>1213.32</ele>
        <time>2017-03-19T12:09:15Z</time>
      </trkpt>
      <trkpt lat="44.98697" lon="5.22412">
        <ele>1214.76</ele>
        <time>2017-03-19T12:09:25Z</time>
      </trkpt>
      <trkpt lat="44.98691" lon="5.22413">
        <ele>1215.72</ele>
        <time>2017-03-19T12:09:29Z</time>
      </trkpt>
      <trkpt lat="44.98686" lon="5.22418">
        <ele>1216.21</ele>
        <time>2017-03-19T12:09:33Z</time>
      </trkpt>
      <trkpt lat="44.98682" lon="5.22423">
        <ele>1216.21</ele>
        <time>2017-03-19T12:09:37Z</time>
      </trkpt>
      <trkpt lat="44.98673" lon="5.22424">
        <ele>1218.61</ele>
        <time>2017-03-19T12:09:44Z</time>
      </trkpt>
      <trkpt lat="44.98664" lon="5.22425">
        <ele>1218.13</ele>
        <time>2017-03-19T12:09:57Z</time>
      </trkpt>
      <trkpt lat="44.98664" lon="5.22426">
        <ele>1218.13</ele>
        <time>2017-03-19T12:10:02Z</time>
      </trkpt>
      <trkpt lat="44.98668" lon="5.22426">
        <ele>1218.61</ele>
        <time>2017-03-19T12:10:08Z</time>
      </trkpt>
      <trkpt lat="44.9867" lon="5.22426">
        <ele>1219.57</ele>
        <time>2017-03-19T12:10:23Z</time>
      </trkpt>
      <trkpt lat="44.98669" lon="5.22426">
        <ele>1218.61</ele>
        <time>2017-03-19T12:10:38Z</time>
      </trkpt>
      <trkpt lat="44.98668" lon="5.22426">
        <ele>1218.61</ele>
        <time>2017-03-19T12:10:39Z</time>
      </trkpt>
      <trkpt lat="44.98661" lon="5.22425">
        <ele>1217.65</ele>
        <time>2017-03-19T12:10:45Z</time>
      </trkpt>
      <trkpt lat="44.98642" lon="5.22423">
        <ele>1215.72</ele>
        <time>2017-03-19T12:10:59Z</time>
      </trkpt>
      <trkpt lat="44.98635" lon="5.22423">
        <ele>1214.76</ele>
        <time>2017-03-19T12:11:06Z</time>
      </trkpt>
      <trkpt lat="44.98627" lon="5.22421">
        <ele>1213.32</ele>
        <time>2017-03-19T12:11:13Z</time>
      </trkpt>
      <trkpt lat="44.98621" lon="5.22418">
        <ele>1213.32</ele>
        <time>2017-03-19T12:11:17Z</time>
      </trkpt>
      <trkpt lat="44.98609" lon="5.22419">
        <ele>1211.4</ele>
        <time>2017-03-19T12:11:27Z</time>
      </trkpt>
      <trkpt lat="44.98599" lon="5.22426">
        <ele>1208.03</ele>
        <time>2017-03-19T12:11:37Z</time>
      </trkpt>
      <trkpt lat="44.98597" lon="5.22431">
        <ele>1207.07</ele>
        <time>2017-03-19T12:11:42Z</time>
      </trkpt>
      <trkpt lat="44.9859" lon="5.22447">
        <ele>1206.11</ele>
        <time>2017-03-19T12:11:52Z</time>
      </trkpt>
      <trkpt lat="44.98588" lon="5.22448">
        <ele>1205.63</ele>
        <time>2017-03-19T12:11:54Z</time>
      </trkpt>
      <trkpt lat="44.98583" lon="5.22453">
        <ele>1204.67</ele>
        <time>2017-03-19T12:11:59Z</time>
      </trkpt>
      <trkpt lat="44.98569" lon="5.22452">
        <ele>1202.27</ele>
        <time>2017-03-19T12:12:11Z</time>
      </trkpt>
      <trkpt lat="44.98563" lon="5.2245">
        <ele>1200.82</ele>
        <time>2017-03-19T12:12:17Z</time>
      </trkpt>
      <trkpt lat="44.98556" lon="5.22437">
        <ele>1198.42</ele>
        <time>2017-03-19T12:12:29Z</time>
      </trkpt>
      <trkpt lat="44.98555" lon="5.22434">
        <ele>1197.46</ele>
        <time>2017-03-19T12:12:31Z</time>
      </trkpt>
      <trkpt lat="44.98548" lon="5.22423">
        <ele>1196.98</ele>
        <time>2017-03-19T12:12:38Z</time>
      </trkpt>
      <trkpt lat="44.98542" lon="5.22415">
        <ele>1197.46</ele>
        <time>2017-03-19T12:12:45Z</time>
      </trkpt>
      <trkpt lat="44.98538" lon="5.22403">
        <ele>1196.98</ele>
        <time>2017-03-19T12:12:53Z</time>
      </trkpt>
      <trkpt lat="44.98535" lon="5.22396">
        <ele>1196.5</ele>
        <time>2017-03-19T12:12:57Z</time>
      </trkpt>
      <trkpt lat="44.98535" lon="5.2239">
        <ele>1196.5</ele>
        <time>2017-03-19T12:13:01Z</time>
      </trkpt>
      <trkpt lat="44.98533" lon="5.22382">
        <ele>1197.94</ele>
        <time>2017-03-19T12:13:07Z</time>
      </trkpt>
      <trkpt lat="44.98531" lon="5.22371">
        <ele>1199.86</ele>
        <time>2017-03-19T12:13:17Z</time>
      </trkpt>
      <trkpt lat="44.98527" lon="5.22363">
        <ele>1201.79</ele>
        <time>2017-03-19T12:13:29Z</time>
      </trkpt>
      <trkpt lat="44.98521" lon="5.2236">
        <ele>1203.71</ele>
        <time>2017-03-19T12:13:40Z</time>
      </trkpt>
      <trkpt lat="44.98518" lon="5.22358">
        <ele>1206.59</ele>
        <time>2017-03-19T12:13:51Z</time>
      </trkpt>
      <trkpt lat="44.98513" lon="5.22351">
        <ele>1207.55</ele>
        <time>2017-03-19T12:13:56Z</time>
      </trkpt>
      <trkpt lat="44.98509" lon="5.22346">
        <ele>1208.03</ele>
        <time>2017-03-19T12:14:00Z</time>
      </trkpt>
      <trkpt lat="44.98502" lon="5.22337">
        <ele>1208.03</ele>
        <time>2017-03-19T12:14:14Z</time>
      </trkpt>
      <trkpt lat="44.98503" lon="5.22337">
        <ele>1207.55</ele>
        <time>2017-03-19T12:14:29Z</time>
      </trkpt>
      <trkpt lat="44.98503" lon="5.22337">
        <ele>1207.07</ele>
        <time>2017-03-19T12:14:55Z</time>
      </trkpt>
      <trkpt lat="44.98503" lon="5.22337">
        <ele>1203.23</ele>
        <time>2017-03-19T12:15:08Z</time>
      </trkpt>
      <trkpt lat="44.98503" lon="5.22337">
        <ele>1209</ele>
        <time>2017-03-19T12:15:09Z</time>
      </trkpt>
      <trkpt lat="44.98502" lon="5.22336">
        <ele>1207.55</ele>
        <time>2017-03-19T12:15:10Z</time>
      </trkpt>
      <trkpt lat="44.98499" lon="5.22337">
        <ele>1206.59</ele>
        <time>2017-03-19T12:15:14Z</time>
      </trkpt>
      <trkpt lat="44.9849" lon="5.22335">
        <ele>1205.15</ele>
        <time>2017-03-19T12:15:27Z</time>
      </trkpt>
      <trkpt lat="44.98483" lon="5.22331">
        <ele>1203.71</ele>
        <time>2017-03-19T12:15:41Z</time>
      </trkpt>
      <trkpt lat="44.98481" lon="5.22329">
        <ele>1203.71</ele>
        <time>2017-03-19T12:15:44Z</time>
      </trkpt>
      <trkpt lat="44.98473" lon="5.22326">
        <ele>1202.27</ele>
        <time>2017-03-19T12:15:54Z</time>
      </trkpt>
      <trkpt lat="44.9847" lon="5.22326">
        <ele>1202.75</ele>
        <time>2017-03-19T12:15:56Z</time>
      </trkpt>
      <trkpt lat="44.9846" lon="5.22321">
        <ele>1205.15</ele>
        <time>2017-03-19T12:16:07Z</time>
      </trkpt>
      <trkpt lat="44.98458" lon="5.22321">
        <ele>1201.79</ele>
        <time>2017-03-19T12:16:09Z</time>
      </trkpt>
      <trkpt lat="44.98451" lon="5.22321">
        <ele>1199.38</ele>
        <time>2017-03-19T12:16:21Z</time>
      </trkpt>
      <trkpt lat="44.98446" lon="5.22313">
        <ele>1198.42</ele>
        <time>2017-03-19T12:16:32Z</time>
      </trkpt>
      <trkpt lat="44.98441" lon="5.22305">
        <ele>1198.42</ele>
        <time>2017-03-19T12:16:45Z</time>
      </trkpt>
      <trkpt lat="44.98432" lon="5.22297">
        <ele>1196.5</ele>
        <time>2017-03-19T12:17:00Z</time>
      </trkpt>
      <trkpt lat="44.98426" lon="5.22287">
        <ele>1194.09</ele>
        <time>2017-03-19T12:17:16Z</time>
      </trkpt>
      <trkpt lat="44.98421" lon="5.22282">
        <ele>1194.09</ele>
        <time>2017-03-19T12:17:31Z</time>
      </trkpt>
      <trkpt lat="44.98412" lon="5.22268">
        <ele>1192.17</ele>
        <time>2017-03-19T12:17:47Z</time>
      </trkpt>
      <trkpt lat="44.98408" lon="5.22261">
        <ele>1190.73</ele>
        <time>2017-03-19T12:17:54Z</time>
      </trkpt>
      <trkpt lat="44.98406" lon="5.22253">
        <ele>1192.65</ele>
        <time>2017-03-19T12:18:06Z</time>
      </trkpt>
      <trkpt lat="44.98403" lon="5.2224">
        <ele>1195.06</ele>
        <time>2017-03-19T12:18:18Z</time>
      </trkpt>
      <trkpt lat="44.98402" lon="5.22241">
        <ele>1195.06</ele>
        <time>2017-03-19T12:18:43Z</time>
      </trkpt>
      <trkpt lat="44.98403" lon="5.22242">
        <ele>1195.06</ele>
        <time>2017-03-19T12:19:00Z</time>
      </trkpt>
      <trkpt lat="44.98403" lon="5.22242">
        <ele>1194.58</ele>
        <time>2017-03-19T12:19:18Z</time>
      </trkpt>
      <trkpt lat="44.98403" lon="5.22242">
        <ele>1194.58</ele>
        <time>2017-03-19T12:19:36Z</time>
      </trkpt>
      <trkpt lat="44.98403" lon="5.2224">
        <ele>1195.06</ele>
        <time>2017-03-19T12:20:02Z</time>
      </trkpt>
      <trkpt lat="44.98402" lon="5.22239">
        <ele>1195.06</ele>
        <time>2017-03-19T12:20:21Z</time>
      </trkpt>
      <trkpt lat="44.98399" lon="5.22241">
        <ele>1193.13</ele>
        <time>2017-03-19T12:20:39Z</time>
      </trkpt>
      <trkpt lat="44.98393" lon="5.22228">
        <ele>1192.17</ele>
        <time>2017-03-19T12:20:51Z</time>
      </trkpt>
      <trkpt lat="44.98392" lon="5.22224">
        <ele>1192.17</ele>
        <time>2017-03-19T12:20:54Z</time>
      </trkpt>
      <trkpt lat="44.98393" lon="5.22217">
        <ele>1192.17</ele>
        <time>2017-03-19T12:21:08Z</time>
      </trkpt>
      <trkpt lat="44.98393" lon="5.22217">
        <ele>1192.65</ele>
        <time>2017-03-19T12:21:37Z</time>
      </trkpt>
      <trkpt lat="44.98393" lon="5.22216">
        <ele>1193.13</ele>
        <time>2017-03-19T12:22:13Z</time>
      </trkpt>
      <trkpt lat="44.98393" lon="5.22216">
        <ele>1193.13</ele>
        <time>2017-03-19T12:22:19Z</time>
      </trkpt>
      <trkpt lat="44.98386" lon="5.22219">
        <ele>1192.17</ele>
        <time>2017-03-19T12:24:47Z</time>
      </trkpt>
      <trkpt lat="44.98387" lon="5.2222">
        <ele>1192.17</ele>
        <time>2017-03-19T12:24:48Z</time>
      </trkpt>
      <trkpt lat="44.98387" lon="5.22219">
        <ele>1191.21</ele>
        <time>2017-03-19T12:25:02Z</time>
      </trkpt>
      <trkpt lat="44.98383" lon="5.22219">
        <ele>1189.77</ele>
        <time>2017-03-19T12:25:25Z</time>
      </trkpt>
      <trkpt lat="44.9838" lon="5.22218">
        <ele>1188.81</ele>
        <time>2017-03-19T12:25:29Z</time>
      </trkpt>
      <trkpt lat="44.98374" lon="5.22222">
        <ele>1184.96</ele>
        <time>2017-03-19T12:25:40Z</time>
      </trkpt>
      <trkpt lat="44.98368" lon="5.22218">
        <ele>1181.6</ele>
        <time>2017-03-19T12:25:55Z</time>
      </trkpt>
      <trkpt lat="44.98362" lon="5.22214">
        <ele>1178.23</ele>
        <time>2017-03-19T12:26:05Z</time>
      </trkpt>
      <trkpt lat="44.98356" lon="5.22212">
        <ele>1175.35</ele>
        <time>2017-03-19T12:26:16Z</time>
      </trkpt>
      <trkpt lat="44.9835" lon="5.22208">
        <ele>1172.47</ele>
        <time>2017-03-19T12:26:27Z</time>
      </trkpt>
      <trkpt lat="44.98345" lon="5.2221">
        <ele>1170.06</ele>
        <time>2017-03-19T12:26:38Z</time>
      </trkpt>
      <trkpt lat="44.98342" lon="5.22206">
        <ele>1168.14</ele>
        <time>2017-03-19T12:26:48Z</time>
      </trkpt>
      <trkpt lat="44.98339" lon="5.22204">
        <ele>1164.77</ele>
        <time>2017-03-19T12:27:01Z</time>
      </trkpt>
      <trkpt lat="44.98336" lon="5.22204">
        <ele>1162.85</ele>
        <time>2017-03-19T12:27:18Z</time>
      </trkpt>
      <trkpt lat="44.9833" lon="5.22203">
        <ele>1160.45</ele>
        <time>2017-03-19T12:27:37Z</time>
      </trkpt>
      <trkpt lat="44.98322" lon="5.22204">
        <ele>1157.08</ele>
        <time>2017-03-19T12:27:48Z</time>
      </trkpt>
      <trkpt lat="44.98315" lon="5.22201">
        <ele>1154.68</ele>
        <time>2017-03-19T12:28:00Z</time>
      </trkpt>
      <trkpt lat="44.98311" lon="5.22199">
        <ele>1154.2</ele>
        <time>2017-03-19T12:28:06Z</time>
      </trkpt>
      <trkpt lat="44.98301" lon="5.22191">
        <ele>1151.8</ele>
        <time>2017-03-19T12:28:18Z</time>
      </trkpt>
      <trkpt lat="44.98293" lon="5.22184">
        <ele>1151.8</ele>
        <time>2017-03-19T12:28:25Z</time>
      </trkpt>
      <trkpt lat="44.98283" lon="5.22174">
        <ele>1151.8</ele>
        <time>2017-03-19T12:28:35Z</time>
      </trkpt>
      <trkpt lat="44.98282" lon="5.22167">
        <ele>1153.24</ele>
        <time>2017-03-19T12:28:49Z</time>
      </trkpt>
      <trkpt lat="44.98276" lon="5.22162">
        <ele>1153.72</ele>
        <time>2017-03-19T12:28:57Z</time>
      </trkpt>
      <trkpt lat="44.98275" lon="5.22155">
        <ele>1154.68</ele>
        <time>2017-03-19T12:29:01Z</time>
      </trkpt>
      <trkpt lat="44.9827" lon="5.22144">
        <ele>1156.12</ele>
        <time>2017-03-19T12:29:14Z</time>
      </trkpt>
      <trkpt lat="44.98268" lon="5.22138">
        <ele>1157.56</ele>
        <time>2017-03-19T12:29:25Z</time>
      </trkpt>
      <trkpt lat="44.98262" lon="5.22126">
        <ele>1161.41</ele>
        <time>2017-03-19T12:29:36Z</time>
      </trkpt>
      <trkpt lat="44.98262" lon="5.22125">
        <ele>1161.41</ele>
        <time>2017-03-19T12:29:37Z</time>
      </trkpt>
      <trkpt lat="44.98259" lon="5.22123">
        <ele>1161.41</ele>
        <time>2017-03-19T12:29:40Z</time>
      </trkpt>
      <trkpt lat="44.98255" lon="5.22121">
        <ele>1160.93</ele>
        <time>2017-03-19T12:29:45Z</time>
      </trkpt>
      <trkpt lat="44.98249" lon="5.22114">
        <ele>1163.33</ele>
        <time>2017-03-19T12:29:57Z</time>
      </trkpt>
      <trkpt lat="44.98249" lon="5.22114">
        <ele>1162.85</ele>
        <time>2017-03-19T12:30:01Z</time>
      </trkpt>
      <trkpt lat="44.98248" lon="5.22115">
        <ele>1162.37</ele>
        <time>2017-03-19T12:30:03Z</time>
      </trkpt>
      <trkpt lat="44.98246" lon="5.22114">
        <ele>1161.89</ele>
        <time>2017-03-19T12:30:05Z</time>
      </trkpt>
      <trkpt lat="44.98241" lon="5.2211">
        <ele>1160.93</ele>
        <time>2017-03-19T12:30:12Z</time>
      </trkpt>
      <trkpt lat="44.98241" lon="5.22107">
        <ele>1163.33</ele>
        <time>2017-03-19T12:30:15Z</time>
      </trkpt>
      <trkpt lat="44.98237" lon="5.22105">
        <ele>1162.85</ele>
        <time>2017-03-19T12:30:27Z</time>
      </trkpt>
      <trkpt lat="44.98234" lon="5.22103">
        <ele>1162.37</ele>
        <time>2017-03-19T12:30:32Z</time>
      </trkpt>
      <trkpt lat="44.98229" lon="5.22096">
        <ele>1163.33</ele>
        <time>2017-03-19T12:30:44Z</time>
      </trkpt>
      <trkpt lat="44.98224" lon="5.22092">
        <ele>1163.33</ele>
        <time>2017-03-19T12:31:08Z</time>
      </trkpt>
      <trkpt lat="44.98215" lon="5.22086">
        <ele>1162.37</ele>
        <time>2017-03-19T12:31:18Z</time>
      </trkpt>
      <trkpt lat="44.98201" lon="5.2208">
        <ele>1160.93</ele>
        <time>2017-03-19T12:31:30Z</time>
      </trkpt>
      <trkpt lat="44.98192" lon="5.22071">
        <ele>1162.37</ele>
        <time>2017-03-19T12:31:41Z</time>
      </trkpt>
      <trkpt lat="44.98184" lon="5.2206">
        <ele>1163.33</ele>
        <time>2017-03-19T12:31:52Z</time>
      </trkpt>
      <trkpt lat="44.98174" lon="5.2205">
        <ele>1164.77</ele>
        <time>2017-03-19T12:32:04Z</time>
      </trkpt>
      <trkpt lat="44.98165" lon="5.22041">
        <ele>1165.74</ele>
        <time>2017-03-19T12:32:16Z</time>
      </trkpt>
      <trkpt lat="44.9816" lon="5.22034">
        <ele>1168.14</ele>
        <time>2017-03-19T12:32:30Z</time>
      </trkpt>
      <trkpt lat="44.98161" lon="5.22032">
        <ele>1169.58</ele>
        <time>2017-03-19T12:32:35Z</time>
      </trkpt>
      <trkpt lat="44.98159" lon="5.22026">
        <ele>1170.06</ele>
        <time>2017-03-19T12:32:48Z</time>
      </trkpt>
      <trkpt lat="44.98159" lon="5.22019">
        <ele>1166.7</ele>
        <time>2017-03-19T12:32:57Z</time>
      </trkpt>
      <trkpt lat="44.98159" lon="5.22016">
        <ele>1164.77</ele>
        <time>2017-03-19T12:33:03Z</time>
      </trkpt>
      <trkpt lat="44.98155" lon="5.22014">
        <ele>1160.93</ele>
        <time>2017-03-19T12:33:15Z</time>
      </trkpt>
      <trkpt lat="44.98155" lon="5.22011">
        <ele>1159.97</ele>
        <time>2017-03-19T12:33:17Z</time>
      </trkpt>
      <trkpt lat="44.98158" lon="5.22007">
        <ele>1157.08</ele>
        <time>2017-03-19T12:33:26Z</time>
      </trkpt>
      <trkpt lat="44.98157" lon="5.22003">
        <ele>1155.64</ele>
        <time>2017-03-19T12:33:32Z</time>
      </trkpt>
      <trkpt lat="44.98157" lon="5.21992">
        <ele>1153.24</ele>
        <time>2017-03-19T12:33:43Z</time>
      </trkpt>
      <trkpt lat="44.98159" lon="5.21991">
        <ele>1149.87</ele>
        <time>2017-03-19T12:33:56Z</time>
      </trkpt>
      <trkpt lat="44.98159" lon="5.21987">
        <ele>1146.51</ele>
        <time>2017-03-19T12:34:09Z</time>
      </trkpt>
      <trkpt lat="44.98159" lon="5.21985">
        <ele>1146.03</ele>
        <time>2017-03-19T12:34:10Z</time>
      </trkpt>
      <trkpt lat="44.98159" lon="5.21973">
        <ele>1143.14</ele>
        <time>2017-03-19T12:34:23Z</time>
      </trkpt>
      <trkpt lat="44.9816" lon="5.21973">
        <ele>1139.78</ele>
        <time>2017-03-19T12:34:38Z</time>
      </trkpt>
      <trkpt lat="44.9816" lon="5.21973">
        <ele>1139.3</ele>
        <time>2017-03-19T12:35:00Z</time>
      </trkpt>
      <trkpt lat="44.98162" lon="5.2197">
        <ele>1137.38</ele>
        <time>2017-03-19T12:35:20Z</time>
      </trkpt>
      <trkpt lat="44.98163" lon="5.21961">
        <ele>1134.01</ele>
        <time>2017-03-19T12:35:29Z</time>
      </trkpt>
      <trkpt lat="44.98163" lon="5.2195">
        <ele>1131.13</ele>
        <time>2017-03-19T12:35:39Z</time>
      </trkpt>
      <trkpt lat="44.98162" lon="5.21943">
        <ele>1128.24</ele>
        <time>2017-03-19T12:35:55Z</time>
      </trkpt>
      <trkpt lat="44.98161" lon="5.21937">
        <ele>1126.8</ele>
        <time>2017-03-19T12:36:10Z</time>
      </trkpt>
      <trkpt lat="44.9816" lon="5.21927">
        <ele>1123.92</ele>
        <time>2017-03-19T12:36:21Z</time>
      </trkpt>
      <trkpt lat="44.98159" lon="5.21918">
        <ele>1121.03</ele>
        <time>2017-03-19T12:36:29Z</time>
      </trkpt>
      <trkpt lat="44.98161" lon="5.21909">
        <ele>1117.67</ele>
        <time>2017-03-19T12:36:40Z</time>
      </trkpt>
      <trkpt lat="44.98155" lon="5.21889">
        <ele>1114.31</ele>
        <time>2017-03-19T12:36:52Z</time>
      </trkpt>
      <trkpt lat="44.98153" lon="5.21883">
        <ele>1110.94</ele>
        <time>2017-03-19T12:37:09Z</time>
      </trkpt>
      <trkpt lat="44.98153" lon="5.21881">
        <ele>1110.46</ele>
        <time>2017-03-19T12:37:10Z</time>
      </trkpt>
      <trkpt lat="44.98148" lon="5.21877">
        <ele>1108.54</ele>
        <time>2017-03-19T12:37:25Z</time>
      </trkpt>
      <trkpt lat="44.98151" lon="5.21874">
        <ele>1105.65</ele>
        <time>2017-03-19T12:37:34Z</time>
      </trkpt>
      <trkpt lat="44.98152" lon="5.21873">
        <ele>1104.21</ele>
        <time>2017-03-19T12:37:36Z</time>
      </trkpt>
      <trkpt lat="44.9815" lon="5.21866">
        <ele>1101.33</ele>
        <time>2017-03-19T12:37:48Z</time>
      </trkpt>
      <trkpt lat="44.98151" lon="5.21859">
        <ele>1097.96</ele>
        <time>2017-03-19T12:37:58Z</time>
      </trkpt>
      <trkpt lat="44.98153" lon="5.2185">
        <ele>1095.08</ele>
        <time>2017-03-19T12:38:12Z</time>
      </trkpt>
      <trkpt lat="44.98154" lon="5.21847">
        <ele>1091.71</ele>
        <time>2017-03-19T12:38:19Z</time>
      </trkpt>
      <trkpt lat="44.98158" lon="5.21836">
        <ele>1088.35</ele>
        <time>2017-03-19T12:38:28Z</time>
      </trkpt>
      <trkpt lat="44.9816" lon="5.2183">
        <ele>1085.95</ele>
        <time>2017-03-19T12:38:40Z</time>
      </trkpt>
      <trkpt lat="44.9816" lon="5.2183">
        <ele>1084.5</ele>
        <time>2017-03-19T12:38:42Z</time>
      </trkpt>
      <trkpt lat="44.9816" lon="5.21829">
        <ele>1081.62</ele>
        <time>2017-03-19T12:38:55Z</time>
      </trkpt>
      <trkpt lat="44.9816" lon="5.21825">
        <ele>1078.26</ele>
        <time>2017-03-19T12:39:07Z</time>
      </trkpt>
      <trkpt lat="44.9816" lon="5.21821">
        <ele>1075.37</ele>
        <time>2017-03-19T12:39:18Z</time>
      </trkpt>
      <trkpt lat="44.98165" lon="5.21812">
        <ele>1070.08</ele>
        <time>2017-03-19T12:39:29Z</time>
      </trkpt>
      <trkpt lat="44.98165" lon="5.2181">
        <ele>1070.08</ele>
        <time>2017-03-19T12:39:30Z</time>
      </trkpt>
      <trkpt lat="44.98166" lon="5.21806">
        <ele>1068.64</ele>
        <time>2017-03-19T12:39:37Z</time>
      </trkpt>
      <trkpt lat="44.98172" lon="5.21799">
        <ele>1065.28</ele>
        <time>2017-03-19T12:39:47Z</time>
      </trkpt>
      <trkpt lat="44.98175" lon="5.21792">
        <ele>1061.91</ele>
        <time>2017-03-19T12:39:52Z</time>
      </trkpt>
      <trkpt lat="44.98176" lon="5.21781">
        <ele>1058.55</ele>
        <time>2017-03-19T12:40:00Z</time>
      </trkpt>
      <trkpt lat="44.98177" lon="5.21774">
        <ele>1055.67</ele>
        <time>2017-03-19T12:40:07Z</time>
      </trkpt>
      <trkpt lat="44.98177" lon="5.21772">
        <ele>1055.67</ele>
        <time>2017-03-19T12:40:08Z</time>
      </trkpt>
      <trkpt lat="44.98173" lon="5.21763">
        <ele>1051.82</ele>
        <time>2017-03-19T12:40:18Z</time>
      </trkpt>
      <trkpt lat="44.98173" lon="5.21759">
        <ele>1050.86</ele>
        <time>2017-03-19T12:40:22Z</time>
      </trkpt>
      <trkpt lat="44.98175" lon="5.21749">
        <ele>1047.01</ele>
        <time>2017-03-19T12:40:30Z</time>
      </trkpt>
      <trkpt lat="44.98175" lon="5.21743">
        <ele>1043.65</ele>
        <time>2017-03-19T12:40:35Z</time>
      </trkpt>
      <trkpt lat="44.98175" lon="5.21743">
        <ele>1043.17</ele>
        <time>2017-03-19T12:40:36Z</time>
      </trkpt>
      <trkpt lat="44.9818" lon="5.21732">
        <ele>1040.76</ele>
        <time>2017-03-19T12:40:41Z</time>
      </trkpt>
      <trkpt lat="44.98182" lon="5.21722">
        <ele>1038.84</ele>
        <time>2017-03-19T12:40:46Z</time>
      </trkpt>
      <trkpt lat="44.98184" lon="5.21714">
        <ele>1035.96</ele>
        <time>2017-03-19T12:40:56Z</time>
      </trkpt>
      <trkpt lat="44.98186" lon="5.21703">
        <ele>1033.55</ele>
        <time>2017-03-19T12:41:10Z</time>
      </trkpt>
      <trkpt lat="44.98178" lon="5.21678">
        <ele>1032.59</ele>
        <time>2017-03-19T12:41:20Z</time>
      </trkpt>
      <trkpt lat="44.9818" lon="5.21672">
        <ele>1030.19</ele>
        <time>2017-03-19T12:41:27Z</time>
      </trkpt>
      <trkpt lat="44.98181" lon="5.21657">
        <ele>1027.79</ele>
        <time>2017-03-19T12:41:39Z</time>
      </trkpt>
      <trkpt lat="44.98182" lon="5.21653">
        <ele>1024.9</ele>
        <time>2017-03-19T12:41:47Z</time>
      </trkpt>
      <trkpt lat="44.98186" lon="5.21632">
        <ele>1022.98</ele>
        <time>2017-03-19T12:41:59Z</time>
      </trkpt>
      <trkpt lat="44.98187" lon="5.21629">
        <ele>1023.46</ele>
        <time>2017-03-19T12:42:00Z</time>
      </trkpt>
      <trkpt lat="44.98193" lon="5.21605">
        <ele>1023.46</ele>
        <time>2017-03-19T12:42:06Z</time>
      </trkpt>
      <trkpt lat="44.98198" lon="5.21586">
        <ele>1021.06</ele>
        <time>2017-03-19T12:42:18Z</time>
      </trkpt>
      <trkpt lat="44.98205" lon="5.21574">
        <ele>1018.17</ele>
        <time>2017-03-19T12:42:31Z</time>
      </trkpt>
      <trkpt lat="44.98208" lon="5.21561">
        <ele>1014.81</ele>
        <time>2017-03-19T12:42:41Z</time>
      </trkpt>
      <trkpt lat="44.98213" lon="5.2155">
        <ele>1011.93</ele>
        <time>2017-03-19T12:42:51Z</time>
      </trkpt>
      <trkpt lat="44.9822" lon="5.21542">
        <ele>1008.56</ele>
        <time>2017-03-19T12:43:01Z</time>
      </trkpt>
      <trkpt lat="44.98225" lon="5.21537">
        <ele>1006.64</ele>
        <time>2017-03-19T12:43:05Z</time>
      </trkpt>
      <trkpt lat="44.9823" lon="5.21528">
        <ele>1003.27</ele>
        <time>2017-03-19T12:43:13Z</time>
      </trkpt>
      <trkpt lat="44.98233" lon="5.21521">
        <ele>1001.35</ele>
        <time>2017-03-19T12:43:17Z</time>
      </trkpt>
      <trkpt lat="44.98242" lon="5.21513">
        <ele>997.99</ele>
        <time>2017-03-19T12:43:27Z</time>
      </trkpt>
      <trkpt lat="44.98244" lon="5.21509">
        <ele>996.54</ele>
        <time>2017-03-19T12:43:30Z</time>
      </trkpt>
      <trkpt lat="44.9825" lon="5.21504">
        <ele>993.66</ele>
        <time>2017-03-19T12:43:38Z</time>
      </trkpt>
      <trkpt lat="44.98253" lon="5.21499">
        <ele>990.3</ele>
        <time>2017-03-19T12:43:48Z</time>
      </trkpt>
      <trkpt lat="44.98254" lon="5.21496">
        <ele>989.33</ele>
        <time>2017-03-19T12:43:50Z</time>
      </trkpt>
      <trkpt lat="44.98255" lon="5.21492">
        <ele>987.89</ele>
        <time>2017-03-19T12:43:54Z</time>
      </trkpt>
      <trkpt lat="44.98263" lon="5.21485">
        <ele>984.05</ele>
        <time>2017-03-19T12:44:02Z</time>
      </trkpt>
      <trkpt lat="44.98264" lon="5.21484">
        <ele>984.05</ele>
        <time>2017-03-19T12:44:03Z</time>
      </trkpt>
      <trkpt lat="44.98268" lon="5.21476">
        <ele>981.16</ele>
        <time>2017-03-19T12:44:09Z</time>
      </trkpt>
      <trkpt lat="44.98271" lon="5.2147">
        <ele>978.28</ele>
        <time>2017-03-19T12:44:17Z</time>
      </trkpt>
      <trkpt lat="44.98273" lon="5.21466">
        <ele>974.91</ele>
        <time>2017-03-19T12:44:26Z</time>
      </trkpt>
      <trkpt lat="44.98276" lon="5.21459">
        <ele>972.99</ele>
        <time>2017-03-19T12:44:31Z</time>
      </trkpt>
      <trkpt lat="44.9828" lon="5.21452">
        <ele>969.63</ele>
        <time>2017-03-19T12:44:39Z</time>
      </trkpt>
      <trkpt lat="44.98287" lon="5.21444">
        <ele>967.7</ele>
        <time>2017-03-19T12:44:52Z</time>
      </trkpt>
      <trkpt lat="44.98303" lon="5.21437">
        <ele>967.7</ele>
        <time>2017-03-19T12:45:04Z</time>
      </trkpt>
      <trkpt lat="44.98308" lon="5.21432">
        <ele>967.7</ele>
        <time>2017-03-19T12:45:08Z</time>
      </trkpt>
      <trkpt lat="44.98326" lon="5.21417">
        <ele>969.63</ele>
        <time>2017-03-19T12:45:22Z</time>
      </trkpt>
      <trkpt lat="44.98329" lon="5.21418">
        <ele>970.59</ele>
        <time>2017-03-19T12:45:25Z</time>
      </trkpt>
      <trkpt lat="44.98333" lon="5.21419">
        <ele>969.63</ele>
        <time>2017-03-19T12:45:40Z</time>
      </trkpt>
      <trkpt lat="44.98333" lon="5.21419">
        <ele>967.7</ele>
        <time>2017-03-19T12:45:45Z</time>
      </trkpt>
      <trkpt lat="44.98333" lon="5.21414">
        <ele>969.63</ele>
        <time>2017-03-19T12:59:26Z</time>
      </trkpt>
      <trkpt lat="44.98336" lon="5.2141">
        <ele>969.15</ele>
        <time>2017-03-19T12:59:28Z</time>
      </trkpt>
      <trkpt lat="44.9833" lon="5.21407">
        <ele>968.18</ele>
        <time>2017-03-19T12:59:38Z</time>
      </trkpt>
      <trkpt lat="44.98325" lon="5.2141">
        <ele>967.22</ele>
        <time>2017-03-19T12:59:44Z</time>
      </trkpt>
      <trkpt lat="44.98318" lon="5.21421">
        <ele>967.7</ele>
        <time>2017-03-19T12:59:56Z</time>
      </trkpt>
      <trkpt lat="44.98317" lon="5.21422">
        <ele>967.7</ele>
        <time>2017-03-19T12:59:57Z</time>
      </trkpt>
      <trkpt lat="44.98313" lon="5.21431">
        <ele>967.22</ele>
        <time>2017-03-19T13:00:05Z</time>
      </trkpt>
      <trkpt lat="44.98318" lon="5.21449">
        <ele>964.34</ele>
        <time>2017-03-19T13:00:19Z</time>
      </trkpt>
      <trkpt lat="44.98324" lon="5.21456">
        <ele>962.42</ele>
        <time>2017-03-19T13:00:28Z</time>
      </trkpt>
      <trkpt lat="44.9833" lon="5.21466">
        <ele>959.05</ele>
        <time>2017-03-19T13:00:39Z</time>
      </trkpt>
      <trkpt lat="44.9833" lon="5.21468">
        <ele>958.57</ele>
        <time>2017-03-19T13:00:41Z</time>
      </trkpt>
      <trkpt lat="44.9833" lon="5.2147">
        <ele>957.61</ele>
        <time>2017-03-19T13:00:42Z</time>
      </trkpt>
      <trkpt lat="44.9833" lon="5.21476">
        <ele>956.65</ele>
        <time>2017-03-19T13:00:46Z</time>
      </trkpt>
      <trkpt lat="44.98325" lon="5.21495">
        <ele>952.8</ele>
        <time>2017-03-19T13:00:59Z</time>
      </trkpt>
      <trkpt lat="44.98324" lon="5.21503">
        <ele>951.36</ele>
        <time>2017-03-19T13:01:05Z</time>
      </trkpt>
      <trkpt lat="44.98321" lon="5.21522">
        <ele>949.44</ele>
        <time>2017-03-19T13:01:17Z</time>
      </trkpt>
      <trkpt lat="44.98324" lon="5.21528">
        <ele>946.07</ele>
        <time>2017-03-19T13:01:29Z</time>
      </trkpt>
      <trkpt lat="44.98325" lon="5.21531">
        <ele>943.67</ele>
        <time>2017-03-19T13:01:34Z</time>
      </trkpt>
      <trkpt lat="44.98327" lon="5.21533">
        <ele>940.31</ele>
        <time>2017-03-19T13:01:44Z</time>
      </trkpt>
      <trkpt lat="44.98328" lon="5.21533">
        <ele>939.35</ele>
        <time>2017-03-19T13:01:46Z</time>
      </trkpt>
      <trkpt lat="44.98331" lon="5.21531">
        <ele>938.86</ele>
        <time>2017-03-19T13:01:49Z</time>
      </trkpt>
      <trkpt lat="44.98334" lon="5.21529">
        <ele>938.38</ele>
        <time>2017-03-19T13:01:51Z</time>
      </trkpt>
      <trkpt lat="44.9834" lon="5.21524">
        <ele>937.9</ele>
        <time>2017-03-19T13:01:59Z</time>
      </trkpt>
      <trkpt lat="44.98356" lon="5.21524">
        <ele>935.5</ele>
        <time>2017-03-19T13:02:09Z</time>
      </trkpt>
      <trkpt lat="44.98365" lon="5.21523">
        <ele>932.62</ele>
        <time>2017-03-19T13:02:20Z</time>
      </trkpt>
      <trkpt lat="44.98377" lon="5.21526">
        <ele>930.69</ele>
        <time>2017-03-19T13:02:30Z</time>
      </trkpt>
      <trkpt lat="44.9839" lon="5.21521">
        <ele>926.85</ele>
        <time>2017-03-19T13:02:41Z</time>
      </trkpt>
      <trkpt lat="44.98392" lon="5.21521">
        <ele>925.89</ele>
        <time>2017-03-19T13:02:43Z</time>
      </trkpt>
      <trkpt lat="44.98396" lon="5.21521">
        <ele>923.96</ele>
        <time>2017-03-19T13:02:47Z</time>
      </trkpt>
      <trkpt lat="44.98398" lon="5.21527">
        <ele>922.04</ele>
        <time>2017-03-19T13:02:57Z</time>
      </trkpt>
      <trkpt lat="44.98405" lon="5.21543">
        <ele>918.2</ele>
        <time>2017-03-19T13:03:09Z</time>
      </trkpt>
      <trkpt lat="44.98405" lon="5.21545">
        <ele>917.72</ele>
        <time>2017-03-19T13:03:10Z</time>
      </trkpt>
      <trkpt lat="44.98401" lon="5.21552">
        <ele>914.83</ele>
        <time>2017-03-19T13:03:21Z</time>
      </trkpt>
      <trkpt lat="44.984" lon="5.21552">
        <ele>912.43</ele>
        <time>2017-03-19T13:03:29Z</time>
      </trkpt>
      <trkpt lat="44.98395" lon="5.21558">
        <ele>909.06</ele>
        <time>2017-03-19T13:03:42Z</time>
      </trkpt>
      <trkpt lat="44.98395" lon="5.21558">
        <ele>906.18</ele>
        <time>2017-03-19T13:03:57Z</time>
      </trkpt>
      <trkpt lat="44.98396" lon="5.21559">
        <ele>904.74</ele>
        <time>2017-03-19T13:04:00Z</time>
      </trkpt>
      <trkpt lat="44.98398" lon="5.21561">
        <ele>904.74</ele>
        <time>2017-03-19T13:04:02Z</time>
      </trkpt>
      <trkpt lat="44.98402" lon="5.21566">
        <ele>902.33</ele>
        <time>2017-03-19T13:04:12Z</time>
      </trkpt>
      <trkpt lat="44.98402" lon="5.21566">
        <ele>901.37</ele>
        <time>2017-03-19T13:04:24Z</time>
      </trkpt>
      <trkpt lat="44.98402" lon="5.21566">
        <ele>900.89</ele>
        <time>2017-03-19T13:04:26Z</time>
      </trkpt>
      <trkpt lat="44.98403" lon="5.21567">
        <ele>900.41</ele>
        <time>2017-03-19T13:04:28Z</time>
      </trkpt>
      <trkpt lat="44.98407" lon="5.2157">
        <ele>899.45</ele>
        <time>2017-03-19T13:04:30Z</time>
      </trkpt>
      <trkpt lat="44.9841" lon="5.21578">
        <ele>896.57</ele>
        <time>2017-03-19T13:04:44Z</time>
      </trkpt>
      <trkpt lat="44.9841" lon="5.21578">
        <ele>893.68</ele>
        <time>2017-03-19T13:04:54Z</time>
      </trkpt>
      <trkpt lat="44.9841" lon="5.2158">
        <ele>890.32</ele>
        <time>2017-03-19T13:05:07Z</time>
      </trkpt>
      <trkpt lat="44.98412" lon="5.21585">
        <ele>889.36</ele>
        <time>2017-03-19T13:05:10Z</time>
      </trkpt>
      <trkpt lat="44.98421" lon="5.21599">
        <ele>885.51</ele>
        <time>2017-03-19T13:05:19Z</time>
      </trkpt>
      <trkpt lat="44.98423" lon="5.21606">
        <ele>882.63</ele>
        <time>2017-03-19T13:05:29Z</time>
      </trkpt>
      <trkpt lat="44.98423" lon="5.21606">
        <ele>879.74</ele>
        <time>2017-03-19T13:05:47Z</time>
      </trkpt>
      <trkpt lat="44.98424" lon="5.21608">
        <ele>875.9</ele>
        <time>2017-03-19T13:06:00Z</time>
      </trkpt>
      <trkpt lat="44.98433" lon="5.21631">
        <ele>873.01</ele>
        <time>2017-03-19T13:06:10Z</time>
      </trkpt>
      <trkpt lat="44.98446" lon="5.21644">
        <ele>870.13</ele>
        <time>2017-03-19T13:06:21Z</time>
      </trkpt>
      <trkpt lat="44.98446" lon="5.21644">
        <ele>868.21</ele>
        <time>2017-03-19T13:06:26Z</time>
      </trkpt>
      <trkpt lat="44.98462" lon="5.21658">
        <ele>864.84</ele>
        <time>2017-03-19T13:06:38Z</time>
      </trkpt>
      <trkpt lat="44.98473" lon="5.21675">
        <ele>863.4</ele>
        <time>2017-03-19T13:06:50Z</time>
      </trkpt>
      <trkpt lat="44.98479" lon="5.21677">
        <ele>863.4</ele>
        <time>2017-03-19T13:07:06Z</time>
      </trkpt>
      <trkpt lat="44.98479" lon="5.21677">
        <ele>862.44</ele>
        <time>2017-03-19T13:07:16Z</time>
      </trkpt>
      <trkpt lat="44.98479" lon="5.21677">
        <ele>861.96</ele>
        <time>2017-03-19T13:07:18Z</time>
      </trkpt>
      <trkpt lat="44.98487" lon="5.21677">
        <ele>859.56</ele>
        <time>2017-03-19T13:07:31Z</time>
      </trkpt>
      <trkpt lat="44.98487" lon="5.21677">
        <ele>863.88</ele>
        <time>2017-03-19T13:07:32Z</time>
      </trkpt>
      <trkpt lat="44.98487" lon="5.21677">
        <ele>860.52</ele>
        <time>2017-03-19T13:07:34Z</time>
      </trkpt>
      <trkpt lat="44.98487" lon="5.21677">
        <ele>863.88</ele>
        <time>2017-03-19T13:07:36Z</time>
      </trkpt>
      <trkpt lat="44.98488" lon="5.21677">
        <ele>861</ele>
        <time>2017-03-19T13:07:46Z</time>
      </trkpt>
      <trkpt lat="44.98488" lon="5.21677">
        <ele>861</ele>
        <time>2017-03-19T13:08:06Z</time>
      </trkpt>
      <trkpt lat="44.98487" lon="5.21676">
        <ele>863.88</ele>
        <time>2017-03-19T13:08:33Z</time>
      </trkpt>
      <trkpt lat="44.98487" lon="5.21675">
        <ele>862.92</ele>
        <time>2017-03-19T13:08:35Z</time>
      </trkpt>
      <trkpt lat="44.98483" lon="5.21665">
        <ele>864.84</ele>
        <time>2017-03-19T13:08:43Z</time>
      </trkpt>
      <trkpt lat="44.98481" lon="5.21662">
        <ele>865.32</ele>
        <time>2017-03-19T13:08:46Z</time>
      </trkpt>
      <trkpt lat="44.98477" lon="5.21658">
        <ele>866.29</ele>
        <time>2017-03-19T13:08:51Z</time>
      </trkpt>
      <trkpt lat="44.98473" lon="5.21652">
        <ele>865.8</ele>
        <time>2017-03-19T13:09:03Z</time>
      </trkpt>
      <trkpt lat="44.98473" lon="5.21652">
        <ele>863.4</ele>
        <time>2017-03-19T13:09:12Z</time>
      </trkpt>
      <trkpt lat="44.98479" lon="5.21657">
        <ele>860.52</ele>
        <time>2017-03-19T13:09:21Z</time>
      </trkpt>
      <trkpt lat="44.98488" lon="5.21663">
        <ele>857.15</ele>
        <time>2017-03-19T13:09:32Z</time>
      </trkpt>
      <trkpt lat="44.98495" lon="5.21667">
        <ele>854.27</ele>
        <time>2017-03-19T13:09:42Z</time>
      </trkpt>
      <trkpt lat="44.985" lon="5.21669">
        <ele>852.83</ele>
        <time>2017-03-19T13:09:46Z</time>
      </trkpt>
      <trkpt lat="44.98512" lon="5.21674">
        <ele>849.94</ele>
        <time>2017-03-19T13:09:57Z</time>
      </trkpt>
      <trkpt lat="44.9852" lon="5.21677">
        <ele>847.06</ele>
        <time>2017-03-19T13:10:05Z</time>
      </trkpt>
      <trkpt lat="44.98531" lon="5.21681">
        <ele>844.18</ele>
        <time>2017-03-19T13:10:15Z</time>
      </trkpt>
      <trkpt lat="44.98544" lon="5.21683">
        <ele>841.29</ele>
        <time>2017-03-19T13:10:28Z</time>
      </trkpt>
      <trkpt lat="44.98548" lon="5.21686">
        <ele>840.33</ele>
        <time>2017-03-19T13:10:31Z</time>
      </trkpt>
      <trkpt lat="44.98562" lon="5.21684">
        <ele>836.96</ele>
        <time>2017-03-19T13:10:42Z</time>
      </trkpt>
      <trkpt lat="44.98566" lon="5.21683">
        <ele>836.48</ele>
        <time>2017-03-19T13:10:45Z</time>
      </trkpt>
      <trkpt lat="44.98578" lon="5.21683">
        <ele>833.12</ele>
        <time>2017-03-19T13:10:55Z</time>
      </trkpt>
      <trkpt lat="44.98588" lon="5.21685">
        <ele>829.76</ele>
        <time>2017-03-19T13:11:06Z</time>
      </trkpt>
      <trkpt lat="44.98598" lon="5.21681">
        <ele>827.35</ele>
        <time>2017-03-19T13:11:14Z</time>
      </trkpt>
      <trkpt lat="44.98605" lon="5.21679">
        <ele>824.47</ele>
        <time>2017-03-19T13:11:24Z</time>
      </trkpt>
      <trkpt lat="44.98611" lon="5.21674">
        <ele>823.51</ele>
        <time>2017-03-19T13:11:30Z</time>
      </trkpt>
      <trkpt lat="44.98613" lon="5.21674">
        <ele>823.03</ele>
        <time>2017-03-19T13:11:32Z</time>
      </trkpt>
      <trkpt lat="44.98625" lon="5.21673">
        <ele>821.1</ele>
        <time>2017-03-19T13:11:40Z</time>
      </trkpt>
      <trkpt lat="44.98628" lon="5.21674">
        <ele>820.14</ele>
        <time>2017-03-19T13:11:43Z</time>
      </trkpt>
      <trkpt lat="44.98633" lon="5.21677">
        <ele>819.18</ele>
        <time>2017-03-19T13:11:55Z</time>
      </trkpt>
      <trkpt lat="44.98633" lon="5.21677">
        <ele>819.18</ele>
        <time>2017-03-19T13:12:18Z</time>
      </trkpt>
      <trkpt lat="44.98631" lon="5.21676">
        <ele>820.14</ele>
        <time>2017-03-19T13:12:49Z</time>
      </trkpt>
      <trkpt lat="44.98633" lon="5.21682">
        <ele>820.14</ele>
        <time>2017-03-19T13:13:07Z</time>
      </trkpt>
      <trkpt lat="44.98637" lon="5.21684">
        <ele>818.22</ele>
        <time>2017-03-19T13:13:15Z</time>
      </trkpt>
      <trkpt lat="44.98653" lon="5.21682">
        <ele>814.85</ele>
        <time>2017-03-19T13:13:27Z</time>
      </trkpt>
      <trkpt lat="44.98658" lon="5.21674">
        <ele>811.49</ele>
        <time>2017-03-19T13:13:37Z</time>
      </trkpt>
      <trkpt lat="44.9866" lon="5.21672">
        <ele>811.01</ele>
        <time>2017-03-19T13:13:39Z</time>
      </trkpt>
      <trkpt lat="44.98667" lon="5.2167">
        <ele>808.61</ele>
        <time>2017-03-19T13:13:45Z</time>
      </trkpt>
      <trkpt lat="44.98673" lon="5.21661">
        <ele>805.24</ele>
        <time>2017-03-19T13:13:54Z</time>
      </trkpt>
      <trkpt lat="44.98674" lon="5.21661">
        <ele>801.88</ele>
        <time>2017-03-19T13:14:03Z</time>
      </trkpt>
      <trkpt lat="44.98674" lon="5.21661">
        <ele>799.95</ele>
        <time>2017-03-19T13:14:08Z</time>
      </trkpt>
      <trkpt lat="44.98674" lon="5.21661">
        <ele>798.99</ele>
        <time>2017-03-19T13:14:10Z</time>
      </trkpt>
      <trkpt lat="44.98679" lon="5.2166">
        <ele>798.51</ele>
        <time>2017-03-19T13:14:12Z</time>
      </trkpt>
      <trkpt lat="44.98693" lon="5.21653">
        <ele>796.59</ele>
        <time>2017-03-19T13:14:20Z</time>
      </trkpt>
      <trkpt lat="44.98703" lon="5.21646">
        <ele>793.22</ele>
        <time>2017-03-19T13:14:32Z</time>
      </trkpt>
      <trkpt lat="44.98715" lon="5.21639">
        <ele>792.26</ele>
        <time>2017-03-19T13:14:40Z</time>
      </trkpt>
      <trkpt lat="44.9872" lon="5.21632">
        <ele>790.82</ele>
        <time>2017-03-19T13:14:47Z</time>
      </trkpt>
      <trkpt lat="44.98729" lon="5.2163">
        <ele>789.38</ele>
        <time>2017-03-19T13:14:56Z</time>
      </trkpt>
      <trkpt lat="44.98729" lon="5.2163">
        <ele>789.38</ele>
        <time>2017-03-19T13:14:59Z</time>
      </trkpt>
      <trkpt lat="44.98732" lon="5.21632">
        <ele>788.9</ele>
        <time>2017-03-19T13:15:14Z</time>
      </trkpt>
      <trkpt lat="44.98732" lon="5.21632">
        <ele>788.42</ele>
        <time>2017-03-19T13:15:37Z</time>
      </trkpt>
      <trkpt lat="44.98736" lon="5.21632">
        <ele>787.46</ele>
        <time>2017-03-19T13:15:41Z</time>
      </trkpt>
      <trkpt lat="44.98753" lon="5.21637">
        <ele>783.61</ele>
        <time>2017-03-19T13:15:51Z</time>
      </trkpt>
      <trkpt lat="44.98771" lon="5.21643">
        <ele>780.73</ele>
        <time>2017-03-19T13:16:02Z</time>
      </trkpt>
      <trkpt lat="44.98777" lon="5.21644">
        <ele>778.81</ele>
        <time>2017-03-19T13:16:07Z</time>
      </trkpt>
      <trkpt lat="44.988" lon="5.21649">
        <ele>777.36</ele>
        <time>2017-03-19T13:16:18Z</time>
      </trkpt>
      <trkpt lat="44.98808" lon="5.21643">
        <ele>775.92</ele>
        <time>2017-03-19T13:16:33Z</time>
      </trkpt>
      <trkpt lat="44.9881" lon="5.2164">
        <ele>774.96</ele>
        <time>2017-03-19T13:16:37Z</time>
      </trkpt>
      <trkpt lat="44.98816" lon="5.21635">
        <ele>774</ele>
        <time>2017-03-19T13:16:40Z</time>
      </trkpt>
      <trkpt lat="44.98819" lon="5.21634">
        <ele>774</ele>
        <time>2017-03-19T13:16:42Z</time>
      </trkpt>
      <trkpt lat="44.98831" lon="5.2163">
        <ele>772.08</ele>
        <time>2017-03-19T13:16:51Z</time>
      </trkpt>
      <trkpt lat="44.98835" lon="5.21628">
        <ele>770.63</ele>
        <time>2017-03-19T13:16:57Z</time>
      </trkpt>
      <trkpt lat="44.98839" lon="5.2161">
        <ele>767.27</ele>
        <time>2017-03-19T13:17:06Z</time>
      </trkpt>
      <trkpt lat="44.98844" lon="5.21592">
        <ele>764.87</ele>
        <time>2017-03-19T13:17:17Z</time>
      </trkpt>
      <trkpt lat="44.9885" lon="5.21584">
        <ele>763.9</ele>
        <time>2017-03-19T13:17:22Z</time>
      </trkpt>
      <trkpt lat="44.98859" lon="5.21559">
        <ele>762.46</ele>
        <time>2017-03-19T13:17:37Z</time>
      </trkpt>
      <trkpt lat="44.98863" lon="5.21558">
        <ele>761.98</ele>
        <time>2017-03-19T13:17:44Z</time>
      </trkpt>
      <trkpt lat="44.9887" lon="5.21548">
        <ele>760.54</ele>
        <time>2017-03-19T13:17:51Z</time>
      </trkpt>
      <trkpt lat="44.98876" lon="5.21546">
        <ele>759.58</ele>
        <time>2017-03-19T13:17:55Z</time>
      </trkpt>
      <trkpt lat="44.98879" lon="5.21543">
        <ele>758.62</ele>
        <time>2017-03-19T13:18:00Z</time>
      </trkpt>
      <trkpt lat="44.98885" lon="5.21539">
        <ele>757.66</ele>
        <time>2017-03-19T13:18:05Z</time>
      </trkpt>
      <trkpt lat="44.98888" lon="5.21539">
        <ele>757.18</ele>
        <time>2017-03-19T13:18:07Z</time>
      </trkpt>
      <trkpt lat="44.98892" lon="5.2154">
        <ele>757.18</ele>
        <time>2017-03-19T13:18:10Z</time>
      </trkpt>
      <trkpt lat="44.98896" lon="5.21535">
        <ele>756.21</ele>
        <time>2017-03-19T13:18:13Z</time>
      </trkpt>
      <trkpt lat="44.9891" lon="5.21523">
        <ele>754.77</ele>
        <time>2017-03-19T13:18:24Z</time>
      </trkpt>
      <trkpt lat="44.9892" lon="5.21515">
        <ele>753.81</ele>
        <time>2017-03-19T13:18:31Z</time>
      </trkpt>
      <trkpt lat="44.98922" lon="5.21513">
        <ele>753.81</ele>
        <time>2017-03-19T13:18:34Z</time>
      </trkpt>
      <trkpt lat="44.9893" lon="5.21505">
        <ele>752.37</ele>
        <time>2017-03-19T13:18:43Z</time>
      </trkpt>
      <trkpt lat="44.98936" lon="5.21499">
        <ele>752.37</ele>
        <time>2017-03-19T13:18:48Z</time>
      </trkpt>
      <trkpt lat="44.98942" lon="5.21493">
        <ele>751.89</ele>
        <time>2017-03-19T13:18:52Z</time>
      </trkpt>
      <trkpt lat="44.9895" lon="5.21482">
        <ele>750.45</ele>
        <time>2017-03-19T13:19:01Z</time>
      </trkpt>
      <trkpt lat="44.98956" lon="5.21478">
        <ele>749.49</ele>
        <time>2017-03-19T13:19:06Z</time>
      </trkpt>
      <trkpt lat="44.98962" lon="5.21467">
        <ele>748.52</ele>
        <time>2017-03-19T13:19:12Z</time>
      </trkpt>
      <trkpt lat="44.98967" lon="5.21457">
        <ele>747.56</ele>
        <time>2017-03-19T13:19:20Z</time>
      </trkpt>
      <trkpt lat="44.98974" lon="5.21437">
        <ele>745.16</ele>
        <time>2017-03-19T13:19:29Z</time>
      </trkpt>
      <trkpt lat="44.98979" lon="5.21425">
        <ele>744.2</ele>
        <time>2017-03-19T13:19:38Z</time>
      </trkpt>
      <trkpt lat="44.98979" lon="5.21424">
        <ele>745.16</ele>
        <time>2017-03-19T13:19:59Z</time>
      </trkpt>
      <trkpt lat="44.98979" lon="5.21424">
        <ele>744.68</ele>
        <time>2017-03-19T13:20:21Z</time>
      </trkpt>
      <trkpt lat="44.9898" lon="5.21424">
        <ele>743.24</ele>
        <time>2017-03-19T13:20:26Z</time>
      </trkpt>
      <trkpt lat="44.98986" lon="5.21414">
        <ele>743.24</ele>
        <time>2017-03-19T13:20:34Z</time>
      </trkpt>
      <trkpt lat="44.98996" lon="5.21399">
        <ele>742.76</ele>
        <time>2017-03-19T13:20:44Z</time>
      </trkpt>
      <trkpt lat="44.99004" lon="5.21387">
        <ele>741.79</ele>
        <time>2017-03-19T13:20:55Z</time>
      </trkpt>
      <trkpt lat="44.99014" lon="5.21375">
        <ele>739.87</ele>
        <time>2017-03-19T13:21:06Z</time>
      </trkpt>
      <trkpt lat="44.99018" lon="5.21372">
        <ele>738.43</ele>
        <time>2017-03-19T13:21:11Z</time>
      </trkpt>
      <trkpt lat="44.99028" lon="5.21372">
        <ele>736.51</ele>
        <time>2017-03-19T13:21:24Z</time>
      </trkpt>
      <trkpt lat="44.99037" lon="5.21375">
        <ele>733.14</ele>
        <time>2017-03-19T13:21:37Z</time>
      </trkpt>
      <trkpt lat="44.99044" lon="5.21374">
        <ele>731.22</ele>
        <time>2017-03-19T13:21:50Z</time>
      </trkpt>
      <trkpt lat="44.9905" lon="5.21375">
        <ele>728.34</ele>
        <time>2017-03-19T13:21:57Z</time>
      </trkpt>
      <trkpt lat="44.9906" lon="5.21374">
        <ele>724.97</ele>
        <time>2017-03-19T13:22:07Z</time>
      </trkpt>
      <trkpt lat="44.99065" lon="5.21378">
        <ele>723.05</ele>
        <time>2017-03-19T13:22:18Z</time>
      </trkpt>
      <trkpt lat="44.99075" lon="5.2138">
        <ele>719.68</ele>
        <time>2017-03-19T13:22:28Z</time>
      </trkpt>
      <trkpt lat="44.9908" lon="5.21381">
        <ele>718.24</ele>
        <time>2017-03-19T13:22:38Z</time>
      </trkpt>
      <trkpt lat="44.99091" lon="5.21385">
        <ele>714.88</ele>
        <time>2017-03-19T13:22:49Z</time>
      </trkpt>
      <trkpt lat="44.99103" lon="5.21388">
        <ele>711.99</ele>
        <time>2017-03-19T13:22:59Z</time>
      </trkpt>
      <trkpt lat="44.99112" lon="5.21389">
        <ele>709.11</ele>
        <time>2017-03-19T13:23:10Z</time>
      </trkpt>
      <trkpt lat="44.99128" lon="5.21388">
        <ele>705.75</ele>
        <time>2017-03-19T13:23:21Z</time>
      </trkpt>
      <trkpt lat="44.99132" lon="5.21388">
        <ele>703.34</ele>
        <time>2017-03-19T13:23:36Z</time>
      </trkpt>
      <trkpt lat="44.99143" lon="5.2139">
        <ele>700.46</ele>
        <time>2017-03-19T13:23:49Z</time>
      </trkpt>
      <trkpt lat="44.99146" lon="5.21392">
        <ele>697.57</ele>
        <time>2017-03-19T13:24:05Z</time>
      </trkpt>
      <trkpt lat="44.99146" lon="5.2139">
        <ele>697.57</ele>
        <time>2017-03-19T13:24:07Z</time>
      </trkpt>
      <trkpt lat="44.99157" lon="5.21389">
        <ele>695.17</ele>
        <time>2017-03-19T13:24:17Z</time>
      </trkpt>
      <trkpt lat="44.99162" lon="5.21385">
        <ele>694.69</ele>
        <time>2017-03-19T13:24:20Z</time>
      </trkpt>
      <trkpt lat="44.99163" lon="5.21382">
        <ele>694.69</ele>
        <time>2017-03-19T13:24:22Z</time>
      </trkpt>
      <trkpt lat="44.99165" lon="5.21376">
        <ele>693.73</ele>
        <time>2017-03-19T13:24:26Z</time>
      </trkpt>
      <trkpt lat="44.99165" lon="5.2137">
        <ele>692.77</ele>
        <time>2017-03-19T13:24:29Z</time>
      </trkpt>
      <trkpt lat="44.9916" lon="5.21354">
        <ele>689.4</ele>
        <time>2017-03-19T13:24:39Z</time>
      </trkpt>
      <trkpt lat="44.9916" lon="5.21351">
        <ele>688.44</ele>
        <time>2017-03-19T13:24:46Z</time>
      </trkpt>
      <trkpt lat="44.99156" lon="5.21345">
        <ele>687.48</ele>
        <time>2017-03-19T13:24:50Z</time>
      </trkpt>
      <trkpt lat="44.99144" lon="5.21331">
        <ele>685.08</ele>
        <time>2017-03-19T13:25:03Z</time>
      </trkpt>
      <trkpt lat="44.99138" lon="5.21324">
        <ele>684.12</ele>
        <time>2017-03-19T13:25:10Z</time>
      </trkpt>
      <trkpt lat="44.99131" lon="5.21312">
        <ele>682.19</ele>
        <time>2017-03-19T13:25:21Z</time>
      </trkpt>
      <trkpt lat="44.99131" lon="5.21312">
        <ele>682.19</ele>
        <time>2017-03-19T13:25:26Z</time>
      </trkpt>
      <trkpt lat="44.99131" lon="5.2131">
        <ele>682.19</ele>
        <time>2017-03-19T13:25:28Z</time>
      </trkpt>
      <trkpt lat="44.99124" lon="5.21295">
        <ele>680.27</ele>
        <time>2017-03-19T13:25:38Z</time>
      </trkpt>
      <trkpt lat="44.99116" lon="5.21275">
        <ele>677.39</ele>
        <time>2017-03-19T13:25:49Z</time>
      </trkpt>
      <trkpt lat="44.99115" lon="5.21272">
        <ele>678.83</ele>
        <time>2017-03-19T13:25:52Z</time>
      </trkpt>
      <trkpt lat="44.99114" lon="5.21258">
        <ele>674.98</ele>
        <time>2017-03-19T13:26:01Z</time>
      </trkpt>
      <trkpt lat="44.99112" lon="5.21251">
        <ele>673.06</ele>
        <time>2017-03-19T13:26:06Z</time>
      </trkpt>
      <trkpt lat="44.9911" lon="5.21244">
        <ele>672.58</ele>
        <time>2017-03-19T13:26:10Z</time>
      </trkpt>
      <trkpt lat="44.99108" lon="5.21241">
        <ele>671.62</ele>
        <time>2017-03-19T13:26:12Z</time>
      </trkpt>
      <trkpt lat="44.99106" lon="5.21237">
        <ele>670.18</ele>
        <time>2017-03-19T13:26:18Z</time>
      </trkpt>
      <trkpt lat="44.99102" lon="5.21231">
        <ele>668.73</ele>
        <time>2017-03-19T13:26:22Z</time>
      </trkpt>
      <trkpt lat="44.99094" lon="5.21212">
        <ele>666.81</ele>
        <time>2017-03-19T13:26:31Z</time>
      </trkpt>
      <trkpt lat="44.99091" lon="5.21195">
        <ele>664.41</ele>
        <time>2017-03-19T13:26:39Z</time>
      </trkpt>
      <trkpt lat="44.99092" lon="5.21187">
        <ele>662.49</ele>
        <time>2017-03-19T13:26:45Z</time>
      </trkpt>
      <trkpt lat="44.99091" lon="5.21162">
        <ele>659.12</ele>
        <time>2017-03-19T13:26:57Z</time>
      </trkpt>
      <trkpt lat="44.99084" lon="5.21154">
        <ele>657.68</ele>
        <time>2017-03-19T13:27:07Z</time>
      </trkpt>
      <trkpt lat="44.99071" lon="5.2114">
        <ele>655.76</ele>
        <time>2017-03-19T13:27:17Z</time>
      </trkpt>
      <trkpt lat="44.99064" lon="5.2112">
        <ele>652.39</ele>
        <time>2017-03-19T13:27:28Z</time>
      </trkpt>
      <trkpt lat="44.99067" lon="5.21111">
        <ele>650.95</ele>
        <time>2017-03-19T13:27:35Z</time>
      </trkpt>
      <trkpt lat="44.99072" lon="5.21103">
        <ele>649.99</ele>
        <time>2017-03-19T13:27:40Z</time>
      </trkpt>
      <trkpt lat="44.99082" lon="5.21099">
        <ele>648.55</ele>
        <time>2017-03-19T13:27:50Z</time>
      </trkpt>
      <trkpt lat="44.99088" lon="5.21092">
        <ele>647.59</ele>
        <time>2017-03-19T13:27:55Z</time>
      </trkpt>
      <trkpt lat="44.99091" lon="5.21085">
        <ele>647.1</ele>
        <time>2017-03-19T13:28:01Z</time>
      </trkpt>
      <trkpt lat="44.99095" lon="5.21058">
        <ele>644.7</ele>
        <time>2017-03-19T13:28:13Z</time>
      </trkpt>
      <trkpt lat="44.99095" lon="5.21054">
        <ele>645.18</ele>
        <time>2017-03-19T13:28:14Z</time>
      </trkpt>
      <trkpt lat="44.99094" lon="5.21044">
        <ele>644.7</ele>
        <time>2017-03-19T13:28:20Z</time>
      </trkpt>
      <trkpt lat="44.99096" lon="5.21027">
        <ele>644.22</ele>
        <time>2017-03-19T13:28:31Z</time>
      </trkpt>
      <trkpt lat="44.99096" lon="5.21023">
        <ele>643.74</ele>
        <time>2017-03-19T13:28:36Z</time>
      </trkpt>
      <trkpt lat="44.99097" lon="5.21018">
        <ele>642.3</ele>
        <time>2017-03-19T13:28:47Z</time>
      </trkpt>
      <trkpt lat="44.99097" lon="5.21018">
        <ele>642.3</ele>
        <time>2017-03-19T13:29:12Z</time>
      </trkpt>
      <trkpt lat="44.99097" lon="5.21018">
        <ele>642.3</ele>
        <time>2017-03-19T13:29:13Z</time>
      </trkpt>
      <trkpt lat="44.99104" lon="5.20997">
        <ele>640.38</ele>
        <time>2017-03-19T13:29:24Z</time>
      </trkpt>
      <trkpt lat="44.99104" lon="5.20992">
        <ele>639.89</ele>
        <time>2017-03-19T13:29:26Z</time>
      </trkpt>
      <trkpt lat="44.99105" lon="5.2097">
        <ele>636.53</ele>
        <time>2017-03-19T13:29:39Z</time>
      </trkpt>
      <trkpt lat="44.99104" lon="5.20966">
        <ele>636.05</ele>
        <time>2017-03-19T13:29:41Z</time>
      </trkpt>
      <trkpt lat="44.99104" lon="5.20944">
        <ele>633.17</ele>
        <time>2017-03-19T13:29:54Z</time>
      </trkpt>
      <trkpt lat="44.99104" lon="5.20938">
        <ele>632.2</ele>
        <time>2017-03-19T13:30:08Z</time>
      </trkpt>
      <trkpt lat="44.99104" lon="5.20936">
        <ele>632.2</ele>
        <time>2017-03-19T13:30:16Z</time>
      </trkpt>
      <trkpt lat="44.99105" lon="5.20923">
        <ele>630.76</ele>
        <time>2017-03-19T13:30:23Z</time>
      </trkpt>
      <trkpt lat="44.99106" lon="5.20912">
        <ele>629.32</ele>
        <time>2017-03-19T13:30:29Z</time>
      </trkpt>
      <trkpt lat="44.99108" lon="5.209">
        <ele>627.88</ele>
        <time>2017-03-19T13:30:35Z</time>
      </trkpt>
      <trkpt lat="44.99107" lon="5.20881">
        <ele>625.96</ele>
        <time>2017-03-19T13:30:45Z</time>
      </trkpt>
      <trkpt lat="44.99108" lon="5.20876">
        <ele>625.47</ele>
        <time>2017-03-19T13:30:48Z</time>
      </trkpt>
      <trkpt lat="44.99108" lon="5.20861">
        <ele>624.03</ele>
        <time>2017-03-19T13:30:58Z</time>
      </trkpt>
      <trkpt lat="44.99108" lon="5.20858">
        <ele>623.55</ele>
        <time>2017-03-19T13:31:00Z</time>
      </trkpt>
      <trkpt lat="44.99108" lon="5.20846">
        <ele>622.59</ele>
        <time>2017-03-19T13:31:05Z</time>
      </trkpt>
      <trkpt lat="44.99108" lon="5.20819">
        <ele>619.23</ele>
        <time>2017-03-19T13:31:20Z</time>
      </trkpt>
      <trkpt lat="44.99107" lon="5.20813">
        <ele>618.75</ele>
        <time>2017-03-19T13:31:23Z</time>
      </trkpt>
      <trkpt lat="44.99104" lon="5.20794">
        <ele>615.86</ele>
        <time>2017-03-19T13:31:33Z</time>
      </trkpt>
      <trkpt lat="44.99098" lon="5.20773">
        <ele>612.98</ele>
        <time>2017-03-19T13:31:46Z</time>
      </trkpt>
      <trkpt lat="44.99097" lon="5.2077">
        <ele>612.98</ele>
        <time>2017-03-19T13:31:47Z</time>
      </trkpt>
      <trkpt lat="44.99097" lon="5.20762">
        <ele>612.5</ele>
        <time>2017-03-19T13:31:51Z</time>
      </trkpt>
      <trkpt lat="44.991" lon="5.20739">
        <ele>610.57</ele>
        <time>2017-03-19T13:32:03Z</time>
      </trkpt>
      <trkpt lat="44.99106" lon="5.20718">
        <ele>609.13</ele>
        <time>2017-03-19T13:32:14Z</time>
      </trkpt>
      <trkpt lat="44.9911" lon="5.20702">
        <ele>606.73</ele>
        <time>2017-03-19T13:32:25Z</time>
      </trkpt>
      <trkpt lat="44.99113" lon="5.20688">
        <ele>604.81</ele>
        <time>2017-03-19T13:32:36Z</time>
      </trkpt>
      <trkpt lat="44.99113" lon="5.20687">
        <ele>604.81</ele>
        <time>2017-03-19T13:32:37Z</time>
      </trkpt>
      <trkpt lat="44.99116" lon="5.20666">
        <ele>602.88</ele>
        <time>2017-03-19T13:32:49Z</time>
      </trkpt>
      <trkpt lat="44.99118" lon="5.20653">
        <ele>600.48</ele>
        <time>2017-03-19T13:32:57Z</time>
      </trkpt>
      <trkpt lat="44.99119" lon="5.20644">
        <ele>599.04</ele>
        <time>2017-03-19T13:33:05Z</time>
      </trkpt>
      <trkpt lat="44.9912" lon="5.20635">
        <ele>598.08</ele>
        <time>2017-03-19T13:33:09Z</time>
      </trkpt>
      <trkpt lat="44.99128" lon="5.20613">
        <ele>595.19</ele>
        <time>2017-03-19T13:33:21Z</time>
      </trkpt>
      <trkpt lat="44.99137" lon="5.20594">
        <ele>592.31</ele>
        <time>2017-03-19T13:33:34Z</time>
      </trkpt>
      <trkpt lat="44.99147" lon="5.20582">
        <ele>590.39</ele>
        <time>2017-03-19T13:33:46Z</time>
      </trkpt>
      <trkpt lat="44.99158" lon="5.20568">
        <ele>587.5</ele>
        <time>2017-03-19T13:33:58Z</time>
      </trkpt>
      <trkpt lat="44.99165" lon="5.20563">
        <ele>587.02</ele>
        <time>2017-03-19T13:34:04Z</time>
      </trkpt>
      <trkpt lat="44.9917" lon="5.20557">
        <ele>586.06</ele>
        <time>2017-03-19T13:34:10Z</time>
      </trkpt>
      <trkpt lat="44.99173" lon="5.20554">
        <ele>585.58</ele>
        <time>2017-03-19T13:34:12Z</time>
      </trkpt>
      <trkpt lat="44.99176" lon="5.2055">
        <ele>585.1</ele>
        <time>2017-03-19T13:34:16Z</time>
      </trkpt>
      <trkpt lat="44.99185" lon="5.20541">
        <ele>583.18</ele>
        <time>2017-03-19T13:34:27Z</time>
      </trkpt>
      <trkpt lat="44.99196" lon="5.2053">
        <ele>581.73</ele>
        <time>2017-03-19T13:34:36Z</time>
      </trkpt>
      <trkpt lat="44.992" lon="5.20525">
        <ele>581.25</ele>
        <time>2017-03-19T13:34:42Z</time>
      </trkpt>
      <trkpt lat="44.99204" lon="5.20521">
        <ele>580.29</ele>
        <time>2017-03-19T13:34:45Z</time>
      </trkpt>
      <trkpt lat="44.99218" lon="5.20507">
        <ele>578.85</ele>
        <time>2017-03-19T13:34:58Z</time>
      </trkpt>
      <trkpt lat="44.99221" lon="5.20504">
        <ele>578.85</ele>
        <time>2017-03-19T13:35:01Z</time>
      </trkpt>
      <trkpt lat="44.99224" lon="5.205">
        <ele>578.37</ele>
        <time>2017-03-19T13:35:03Z</time>
      </trkpt>
      <trkpt lat="44.99232" lon="5.20493">
        <ele>577.41</ele>
        <time>2017-03-19T13:35:10Z</time>
      </trkpt>
      <trkpt lat="44.99239" lon="5.20486">
        <ele>575.97</ele>
        <time>2017-03-19T13:35:20Z</time>
      </trkpt>
      <trkpt lat="44.99244" lon="5.2048">
        <ele>575.49</ele>
        <time>2017-03-19T13:35:26Z</time>
      </trkpt>
      <trkpt lat="44.99254" lon="5.2046">
        <ele>573.08</ele>
        <time>2017-03-19T13:35:39Z</time>
      </trkpt>
      <trkpt lat="44.99255" lon="5.20459">
        <ele>573.08</ele>
        <time>2017-03-19T13:35:40Z</time>
      </trkpt>
      <trkpt lat="44.99256" lon="5.20451">
        <ele>572.12</ele>
        <time>2017-03-19T13:35:44Z</time>
      </trkpt>
      <trkpt lat="44.99262" lon="5.20435">
        <ele>570.2</ele>
        <time>2017-03-19T13:35:55Z</time>
      </trkpt>
      <trkpt lat="44.9927" lon="5.20417">
        <ele>567.8</ele>
        <time>2017-03-19T13:36:08Z</time>
      </trkpt>
      <trkpt lat="44.99273" lon="5.20409">
        <ele>567.32</ele>
        <time>2017-03-19T13:36:13Z</time>
      </trkpt>
      <trkpt lat="44.99278" lon="5.20396">
        <ele>565.87</ele>
        <time>2017-03-19T13:36:20Z</time>
      </trkpt>
      <trkpt lat="44.99281" lon="5.2039">
        <ele>565.87</ele>
        <time>2017-03-19T13:36:24Z</time>
      </trkpt>
      <trkpt lat="44.99282" lon="5.20376">
        <ele>564.91</ele>
        <time>2017-03-19T13:36:32Z</time>
      </trkpt>
      <trkpt lat="44.99282" lon="5.2037">
        <ele>564.91</ele>
        <time>2017-03-19T13:36:35Z</time>
      </trkpt>
      <trkpt lat="44.99283" lon="5.20355">
        <ele>564.43</ele>
        <time>2017-03-19T13:36:44Z</time>
      </trkpt>
      <trkpt lat="44.99283" lon="5.20347">
        <ele>563.47</ele>
        <time>2017-03-19T13:36:48Z</time>
      </trkpt>
      <trkpt lat="44.99283" lon="5.20332">
        <ele>562.99</ele>
        <time>2017-03-19T13:36:57Z</time>
      </trkpt>
      <trkpt lat="44.9928" lon="5.20311">
        <ele>562.03</ele>
        <time>2017-03-19T13:37:10Z</time>
      </trkpt>
      <trkpt lat="44.99278" lon="5.20297">
        <ele>561.07</ele>
        <time>2017-03-19T13:37:18Z</time>
      </trkpt>
      <trkpt lat="44.99277" lon="5.20293">
        <ele>560.59</ele>
        <time>2017-03-19T13:37:22Z</time>
      </trkpt>
      <trkpt lat="44.99275" lon="5.20287">
        <ele>559.62</ele>
        <time>2017-03-19T13:37:25Z</time>
      </trkpt>
      <trkpt lat="44.99272" lon="5.20274">
        <ele>558.66</ele>
        <time>2017-03-19T13:37:32Z</time>
      </trkpt>
      <trkpt lat="44.99271" lon="5.20266">
        <ele>558.18</ele>
        <time>2017-03-19T13:37:36Z</time>
      </trkpt>
      <trkpt lat="44.99269" lon="5.20254">
        <ele>556.74</ele>
        <time>2017-03-19T13:37:44Z</time>
      </trkpt>
      <trkpt lat="44.99266" lon="5.20229">
        <ele>554.34</ele>
        <time>2017-03-19T13:37:58Z</time>
      </trkpt>
      <trkpt lat="44.99266" lon="5.20222">
        <ele>553.86</ele>
        <time>2017-03-19T13:38:02Z</time>
      </trkpt>
      <trkpt lat="44.9926" lon="5.202">
        <ele>552.41</ele>
        <time>2017-03-19T13:38:14Z</time>
      </trkpt>
      <trkpt lat="44.99259" lon="5.20187">
        <ele>550.97</ele>
        <time>2017-03-19T13:38:21Z</time>
      </trkpt>
      <trkpt lat="44.99257" lon="5.2018">
        <ele>550.49</ele>
        <time>2017-03-19T13:38:26Z</time>
      </trkpt>
      <trkpt lat="44.99255" lon="5.20166">
        <ele>550.01</ele>
        <time>2017-03-19T13:38:34Z</time>
      </trkpt>
      <trkpt lat="44.99249" lon="5.20142">
        <ele>548.57</ele>
        <time>2017-03-19T13:38:47Z</time>
      </trkpt>
      <trkpt lat="44.99248" lon="5.20141">
        <ele>548.57</ele>
        <time>2017-03-19T13:38:48Z</time>
      </trkpt>
      <trkpt lat="44.99245" lon="5.20128">
        <ele>547.61</ele>
        <time>2017-03-19T13:38:57Z</time>
      </trkpt>
      <trkpt lat="44.99239" lon="5.2011">
        <ele>546.65</ele>
        <time>2017-03-19T13:39:06Z</time>
      </trkpt>
      <trkpt lat="44.99235" lon="5.20102">
        <ele>546.17</ele>
        <time>2017-03-19T13:39:12Z</time>
      </trkpt>
      <trkpt lat="44.99229" lon="5.20081">
        <ele>545.2</ele>
        <time>2017-03-19T13:39:25Z</time>
      </trkpt>
      <trkpt lat="44.99228" lon="5.20078">
        <ele>544.72</ele>
        <time>2017-03-19T13:39:27Z</time>
      </trkpt>
      <trkpt lat="44.99226" lon="5.20068">
        <ele>543.76</ele>
        <time>2017-03-19T13:39:32Z</time>
      </trkpt>
      <trkpt lat="44.99223" lon="5.20054">
        <ele>542.32</ele>
        <time>2017-03-19T13:39:39Z</time>
      </trkpt>
      <trkpt lat="44.99222" lon="5.2005">
        <ele>541.36</ele>
        <time>2017-03-19T13:39:43Z</time>
      </trkpt>
      <trkpt lat="44.99216" lon="5.20031">
        <ele>539.44</ele>
        <time>2017-03-19T13:39:54Z</time>
      </trkpt>
      <trkpt lat="44.99208" lon="5.20017">
        <ele>537.99</ele>
        <time>2017-03-19T13:40:03Z</time>
      </trkpt>
      <trkpt lat="44.99203" lon="5.20001">
        <ele>535.59</ele>
        <time>2017-03-19T13:40:14Z</time>
      </trkpt>
      <trkpt lat="44.992" lon="5.19994">
        <ele>535.11</ele>
        <time>2017-03-19T13:40:18Z</time>
      </trkpt>
      <trkpt lat="44.99198" lon="5.19989">
        <ele>534.63</ele>
        <time>2017-03-19T13:40:22Z</time>
      </trkpt>
      <trkpt lat="44.99189" lon="5.1997">
        <ele>531.27</ele>
        <time>2017-03-19T13:40:33Z</time>
      </trkpt>
      <trkpt lat="44.9918" lon="5.19958">
        <ele>529.34</ele>
        <time>2017-03-19T13:40:43Z</time>
      </trkpt>
      <trkpt lat="44.99178" lon="5.19956">
        <ele>528.38</ele>
        <time>2017-03-19T13:40:45Z</time>
      </trkpt>
      <trkpt lat="44.99171" lon="5.19946">
        <ele>527.42</ele>
        <time>2017-03-19T13:40:52Z</time>
      </trkpt>
      <trkpt lat="44.99169" lon="5.19939">
        <ele>525.5</ele>
        <time>2017-03-19T13:40:58Z</time>
      </trkpt>
      <trkpt lat="44.99165" lon="5.19921">
        <ele>523.58</ele>
        <time>2017-03-19T13:41:09Z</time>
      </trkpt>
      <trkpt lat="44.99164" lon="5.19913">
        <ele>522.13</ele>
        <time>2017-03-19T13:41:15Z</time>
      </trkpt>
      <trkpt lat="44.99162" lon="5.1989">
        <ele>519.73</ele>
        <time>2017-03-19T13:41:27Z</time>
      </trkpt>
      <trkpt lat="44.99161" lon="5.19881">
        <ele>518.29</ele>
        <time>2017-03-19T13:41:36Z</time>
      </trkpt>
      <trkpt lat="44.9916" lon="5.19869">
        <ele>517.33</ele>
        <time>2017-03-19T13:41:44Z</time>
      </trkpt>
      <trkpt lat="44.99157" lon="5.19858">
        <ele>516.85</ele>
        <time>2017-03-19T13:41:49Z</time>
      </trkpt>
      <trkpt lat="44.99155" lon="5.19839">
        <ele>515.88</ele>
        <time>2017-03-19T13:41:59Z</time>
      </trkpt>
      <trkpt lat="44.99156" lon="5.19837">
        <ele>516.37</ele>
        <time>2017-03-19T13:42:01Z</time>
      </trkpt>
      <trkpt lat="44.99162" lon="5.19819">
        <ele>515.88</ele>
        <time>2017-03-19T13:42:11Z</time>
      </trkpt>
      <trkpt lat="44.99166" lon="5.1981">
        <ele>514.92</ele>
        <time>2017-03-19T13:42:21Z</time>
      </trkpt>
      <trkpt lat="44.99178" lon="5.19785">
        <ele>513.96</ele>
        <time>2017-03-19T13:42:36Z</time>
      </trkpt>
      <trkpt lat="44.99187" lon="5.1978">
        <ele>512.52</ele>
        <time>2017-03-19T13:42:45Z</time>
      </trkpt>
      <trkpt lat="44.99194" lon="5.19781">
        <ele>511.56</ele>
        <time>2017-03-19T13:42:54Z</time>
      </trkpt>
      <trkpt lat="44.99216" lon="5.19781">
        <ele>511.08</ele>
        <time>2017-03-19T13:43:08Z</time>
      </trkpt>
    </trkseg>
  </trk>
</gpx>